GFSNW_925_thetae_000.txt.gz
Theta_e
309 308 306 307 307 308 314 320 325 318 321 328 327 327 327 322 324 324 324 326 327 327 328 328 327 329 327 324 326 328 325 328 328 327 319 319 318 320 319 322 323 320 317 318
311 309 308 306 306 307 311 321 321 320 322 327 325 324 322 323 325 324 325 326 327 326 327 330 329 326 324 323 324 325 326 328 330 328 324 322 325 323 320 320 321 325 321 319
315 310 310 307 306 307 312 320 325 325 322 320 323 324 324 323 321 323 324 324 325 325 328 327 329 325 323 323 322 320 322 325 326 325 322 322 325 324 323 322 322 322 321 320
315 314 311 308 307 308 314 318 318 317 324 320 320 321 321 322 324 323 322 324 324 325 327 326 325 323 322 321 318 321 323 324 321 321 320 319 319 320 319 321 321 322 319 319
315 315 313 310 306 311 315 319 317 316 317 317 317 318 320 319 319 319 323 325 323 323 323 324 326 324 323 323 320 321 319 321 319 318 315 314 315 314 314 316 318 319 319 319
315 315 316 313 306 311 315 314 313 316 314 317 317 318 317 318 317 317 318 321 322 322 316 313 313 316 319 320 320 319 319 317 315 316 315 316 317 316 316 316 315 315 317 316
316 315 315 315 309 310 313 313 314 319 317 316 317 317 317 317 315 316 315 315 317 313 310 310 311 311 311 312 314 315 318 317 316 317 317 320 318 317 317 318 317 315 316 316
316 316 315 315 315 306 312 313 313 316 316 315 315 315 315 313 312 312 313 310 307 308 310 314 316 314 315 314 314 314 311 315 316 319 320 319 319 319 319 319 318 317 316 315
314 315 315 315 315 311 310 309 312 314 319 317 313 313 313 314 312 309 308 306 306 308 312 316 325 328 322 318 317 315 315 312 315 313 319 325 321 316 314 316 317 318 317 317
313 314 315 315 315 314 313 313 310 315 321 314 314 318 316 312 312 311 307 307 308 308 312 317 320 321 312 321 321 319 317 315 316 317 319 320 318 314 315 320 320 319 318 317
310 312 314 315 314 314 314 314 309 314 319 316 311 311 311 309 311 317 309 311 310 310 315 319 316 316 315 314 317 318 319 319 319 319 320 319 317 316 319 316 316 317 317 314
308 309 311 313 314 314 313 314 311 309 315 315 312 312 313 309 310 312 307 313 313 314 316 313 312 312 311 314 319 314 315 316 319 319 319 317 317 316 313 311 314 313 312 311
306 308 309 311 312 313 313 312 311 310 311 314 313 316 314 312 310 310 314 311 312 311 314 314 314 316 311 317 316 315 315 314 316 316 316 315 314 313 308 308 308 308 307 308
305 306 308 310 311 311 312 312 312 311 311 316 317 312 313 312 313 313 312 309 309 310 311 314 314 316 315 318 315 316 315 314 316 315 315 314 314 311 308 308 305 304 303 304
304 305 307 308 310 311 311 311 312 311 313 316 316 312 312 311 312 312 312 311 311 311 311 313 314 313 313 313 312 315 313 314 315 316 312 312 312 310 306 306 306 304 302 299
303 304 306 307 308 310 311 311 311 311 311 313 314 313 310 309 310 312 313 312 310 311 311 311 311 310 312 314 315 311 311 311 310 311 309 309 309 308 304 304 304 301 301 300
302 303 305 306 308 310 309 311 307 309 310 311 311 315 307 307 310 309 309 310 309 310 310 310 311 310 311 313 314 311 309 309 308 308 308 309 308 304 299 299 298 297 295 294
302 303 304 306 308 308 307 307 307 310 309 309 310 311 309 306 309 310 308 310 309 309 310 310 311 310 311 312 311 309 308 308 308 307 303 303 299 297 296 295 295 293 293 292
303 305 306 307 306 306 303 306 308 309 308 310 307 310 312 305 308 308 307 308 310 309 310 310 310 311 311 310 309 307 307 308 307 299 297 296 296 298 295 293 293 294 292 290
306 306 306 304 301 303 303 304 306 303 303 303 307 308 310 307 309 308 307 306 307 308 308 306 307 309 307 306 306 305 305 301 300 299 297 298 297 297 295 293 293 291 287 287
304 304 301 299 300 302 303 304 306 306 306 304 304 305 307 304 309 309 306 306 305 307 307 306 307 305 304 303 303 298 296 297 298 298 297 298 297 295 295 294 289 287 287 286
304 301 299 299 300 302 303 304 302 303 307 304 304 303 304 302 303 306 304 306 304 306 301 303 304 302 300 299 298 297 295 296 297 295 296 295 296 295 294 289 287 286 286 285
302 300 299 301 301 303 302 303 305 305 301 299 300 302 302 301 302 304 304 306 306 300 302 303 301 300 298 296 296 296 294 295 294 292 290 291 291 291 287 286 286 286 285 285
302 302 301 300 299 300 302 304 303 299 298 299 301 301 302 300 303 303 304 304 300 303 303 301 299 298 297 294 294 294 293 292 290 288 286 286 286 285 286 286 286 285 285 284
301 300 301 301 299 298 295 295 296 295 296 298 299 299 299 300 302 301 303 303 302 302 301 300 295 293 291 292 292 293 292 291 288 287 285 285 285 285 285 285 285 285 284 283
299 300 302 297 297 299 294 295 297 294 298 296 298 299 300 301 300 303 302 303 301 300 297 295 292 294 292 291 291 291 292 292 290 288 287 286 286 285 285 286 285 284 283 283
299 300 298 297 296 300 297 295 296 295 297 298 300 301 298 296 301 302 298 299 300 298 294 292 291 289 289 289 290 290 291 291 291 289 287 287 287 286 284 282 284 284 283 282

GFSNW_925_thetae_003.txt.gz
Theta_e
315 311 308 308 307 307 313 314 317 320 321 322 320 324 325 323 324 323 325 327 327 327 328 327 327 328 326 323 326 327 325 322 325 325 318 318 317 319 316 319 323 317 315 318
315 314 311 310 308 307 309 314 317 320 321 322 321 321 322 322 324 324 325 327 326 325 327 330 327 324 322 323 324 326 325 325 327 325 321 320 323 322 319 318 318 322 320 318
315 315 314 311 308 307 311 313 318 316 312 314 319 322 323 323 321 323 323 324 323 325 326 325 326 324 323 321 321 319 320 321 322 324 321 320 324 323 322 319 319 319 320 320
315 315 316 313 308 308 313 310 313 314 317 315 315 317 320 322 324 322 321 323 323 325 326 324 323 322 322 319 318 319 319 319 318 318 318 317 318 318 318 321 320 320 318 317
315 315 316 315 308 311 313 313 312 311 312 314 314 315 317 319 318 320 324 324 321 319 320 322 324 322 322 322 319 319 316 318 315 315 314 313 313 312 312 314 316 317 317 318
314 315 315 316 308 312 310 312 311 309 311 313 314 316 317 317 316 316 316 318 319 317 313 311 311 313 315 318 318 317 316 313 313 314 314 315 318 316 314 313 313 313 314 314
314 315 315 316 312 310 312 312 311 310 314 312 315 316 315 313 313 315 311 312 315 312 309 309 309 308 309 309 309 311 316 314 313 315 315 320 317 315 315 315 316 314 314 313
313 315 315 316 315 308 310 310 310 310 312 311 313 314 311 310 307 309 310 307 306 305 309 311 313 313 315 313 313 313 309 312 314 316 317 316 318 315 317 318 317 314 315 315
312 314 314 315 315 312 311 309 312 309 310 312 311 310 310 309 308 307 306 305 305 309 310 315 321 321 319 316 317 313 312 309 312 306 314 320 318 315 314 313 316 317 317 317
311 312 314 315 316 314 314 313 310 313 313 311 312 312 311 308 308 307 307 307 308 308 313 317 314 319 313 318 316 317 313 312 313 314 316 315 314 314 314 318 315 315 317 316
310 311 312 314 315 315 315 313 311 314 314 313 311 311 309 308 310 312 308 312 310 310 314 315 314 315 313 314 314 316 316 313 315 314 315 316 314 315 318 313 311 311 311 313
308 309 310 312 314 315 314 313 311 312 312 313 312 313 313 310 310 308 307 313 310 309 312 311 309 312 308 310 316 312 315 314 317 315 314 312 311 311 310 309 310 309 309 308
307 308 309 310 312 313 314 314 311 313 310 311 312 314 313 312 310 310 311 310 310 311 312 313 313 316 308 314 312 315 313 312 314 315 314 313 312 306 306 306 306 306 307 307
305 307 308 310 311 312 312 313 312 312 311 316 316 312 312 312 313 311 311 309 310 310 311 312 313 317 312 315 313 312 311 312 313 312 312 311 310 309 308 306 305 305 304 303
305 306 307 309 311 311 311 312 311 312 314 316 315 312 309 311 313 313 311 310 310 310 311 310 311 313 313 313 309 308 309 312 312 312 310 309 309 308 305 306 305 303 301 299
304 305 306 307 309 311 312 312 311 312 312 313 313 310 308 310 312 312 311 311 310 310 308 308 310 310 312 311 313 309 308 309 309 310 308 306 306 305 303 304 303 302 300 299
303 305 306 307 309 311 310 311 308 311 311 311 309 312 306 307 309 308 309 309 309 309 310 310 310 310 310 312 311 308 308 307 306 306 307 308 304 305 299 300 297 297 296 297
303 304 305 307 309 308 307 307 307 310 310 309 307 309 308 306 309 311 308 310 309 309 310 309 311 310 310 312 308 308 307 306 306 302 302 303 301 298 298 296 296 295 295 294
303 304 306 307 306 305 305 307 308 309 308 308 307 309 311 305 308 307 307 308 310 308 311 310 310 311 311 309 308 307 305 307 307 298 295 293 296 297 298 295 294 294 293 292
304 306 305 303 302 303 305 305 305 303 303 304 308 307 308 306 308 307 307 305 307 308 308 306 307 309 306 305 305 304 303 300 296 297 296 296 297 296 298 296 295 295 294 290
305 302 300 300 301 302 301 303 305 305 305 305 305 305 305 302 308 306 303 305 304 306 305 306 306 305 302 302 301 295 292 294 296 297 295 294 296 296 297 296 294 291 287 285
303 300 300 300 299 299 301 303 302 304 305 303 304 303 304 302 301 302 304 305 303 303 301 303 303 300 299 299 297 296 295 296 296 294 294 294 295 295 294 292 287 287 286 285
302 298 298 300 300 302 302 302 302 303 300 300 301 302 302 301 302 303 304 304 304 297 302 302 299 298 297 294 295 294 293 294 293 291 289 290 293 293 291 287 287 286 285 285
300 300 302 298 298 297 294 295 297 297 296 297 300 300 301 298 303 301 301 303 299 301 302 300 298 295 297 295 293 293 294 293 292 290 288 286 286 285 286 286 285 285 284 284
300 299 299 296 293 292 288 287 291 291 293 297 296 297 298 300 301 301 300 301 302 300 299 298 292 289 288 292 292 292 291 291 291 288 286 285 285 284 284 285 285 285 284 284
298 298 298 297 296 297 292 291 291 290 295 290 292 299 299 298 301 301 302 302 299 299 295 291 286 294 292 290 289 289 290 290 290 290 287 286 284 283 284 285 285 285 284 283
298 299 293 291 294 297 294 294 294 293 292 292 297 296 295 293 300 299 295 298 297 293 291 288 289 291 291 289 288 288 289 289 290 290 288 286 286 285 284 282 284 284 284 283

GFSNW_925_thetae_006.txt.gz
Theta_e
314 315 315 312 310 307 311 311 317 315 315 320 319 326 327 324 326 325 326 322 322 326 329 327 327 328 326 322 324 326 324 319 321 322 317 316 316 317 314 317 319 315 314 318
314 315 315 314 310 308 309 312 316 316 317 325 321 321 323 323 326 325 327 328 327 325 327 329 326 325 322 322 324 324 322 323 324 326 321 319 321 318 316 315 316 320 320 319
313 314 315 315 311 307 310 311 318 315 311 312 319 322 323 324 322 324 323 325 325 325 325 323 325 324 322 320 320 319 319 319 322 327 323 320 323 323 318 317 318 317 318 319
313 314 315 316 313 308 311 308 312 314 318 315 316 318 321 322 324 322 321 323 323 325 325 323 323 322 321 319 318 317 317 319 318 318 317 317 319 320 320 320 318 318 317 317
313 314 315 316 311 310 310 311 311 309 312 312 315 314 317 319 318 320 323 321 317 317 320 320 324 322 321 322 318 318 315 318 315 313 313 313 314 313 313 315 318 318 317 317
312 314 315 316 312 311 308 309 309 307 310 311 313 315 316 317 317 315 313 318 316 313 312 311 311 314 314 317 318 317 315 313 312 313 313 315 317 315 313 311 310 311 312 311
311 314 314 316 314 309 311 311 309 308 312 312 314 315 313 314 314 315 310 312 313 312 307 308 308 308 310 311 311 311 313 312 312 314 315 320 317 312 313 313 314 312 312 312
311 312 314 315 315 309 309 310 308 307 310 310 312 311 310 309 307 309 308 306 305 304 309 311 314 314 315 313 312 312 309 310 313 316 316 316 317 316 316 318 317 314 315 315
310 311 313 314 316 313 311 310 312 306 309 310 310 310 309 309 307 307 306 305 304 308 311 316 319 320 318 316 317 310 309 308 312 307 315 320 316 315 313 313 314 315 316 316
310 311 313 313 314 314 314 311 312 311 310 309 310 309 311 306 306 307 306 307 308 308 312 317 316 320 314 318 317 315 311 310 313 314 314 313 311 312 313 317 312 312 312 312
308 310 311 312 314 315 314 312 312 314 310 311 311 310 308 308 308 313 308 311 310 310 315 316 313 315 312 313 313 314 313 311 312 311 314 314 312 314 318 311 311 309 308 308
308 308 310 311 313 315 314 314 312 314 311 312 312 312 312 309 310 306 305 312 309 309 311 310 308 312 307 310 316 310 315 313 315 312 312 311 309 310 309 308 308 309 309 308
307 308 309 310 312 314 314 313 312 314 310 310 311 313 312 311 310 311 310 308 309 310 308 308 309 314 307 312 311 313 312 310 313 314 312 310 309 308 307 307 307 306 306 306
306 307 309 310 311 313 313 313 312 313 310 314 315 311 311 311 313 311 310 309 310 310 311 313 314 317 308 311 311 311 309 312 312 311 311 309 307 307 306 305 305 305 304 304
305 306 308 310 310 312 312 312 312 312 312 316 314 311 309 310 313 312 310 310 310 310 312 312 314 313 311 307 307 311 308 310 312 312 309 309 308 307 306 305 305 303 302 302
305 306 307 309 311 311 312 311 311 312 312 311 308 309 307 310 312 311 311 310 310 310 311 310 310 309 308 309 312 307 306 307 307 309 306 305 306 303 303 305 303 301 300 299
305 306 306 308 311 311 309 308 308 311 312 309 308 311 306 307 309 308 309 308 309 310 310 310 310 310 307 308 311 307 307 306 306 305 305 307 306 305 300 298 296 297 297 298
304 305 306 309 310 309 307 307 309 311 309 308 307 309 308 306 310 311 308 310 309 309 309 309 311 309 309 310 307 307 307 306 304 303 302 303 300 296 296 296 296 296 295 295
304 305 307 308 306 305 305 308 309 309 308 308 307 309 310 305 308 308 307 308 311 308 311 310 309 310 311 308 306 306 305 306 304 299 295 291 295 296 295 296 296 296 295 293
304 307 305 304 302 305 306 305 305 303 304 305 308 307 309 307 308 307 306 305 308 310 308 307 309 309 305 304 304 304 303 302 297 297 294 289 290 295 294 296 295 293 295 293
305 302 301 300 302 302 301 303 303 305 306 305 306 306 307 303 307 308 304 304 304 306 301 307 305 302 301 300 300 295 292 295 295 295 293 294 296 295 295 295 294 294 292 288
303 300 301 300 299 299 300 303 302 304 302 303 305 304 303 302 301 304 304 304 303 304 302 304 304 301 298 298 295 294 293 294 295 295 294 293 294 294 293 293 292 290 287 286
301 299 299 300 300 301 301 300 301 302 299 300 301 303 302 301 300 302 303 304 304 300 303 300 298 296 295 293 294 294 293 294 294 292 291 291 293 294 293 290 289 287 285 285
301 301 302 299 299 298 296 294 294 294 297 301 301 300 302 300 302 302 304 303 301 303 302 299 297 295 296 295 293 292 292 291 291 290 289 287 288 288 289 288 287 285 283 284
300 299 301 298 290 292 290 292 293 293 296 299 298 297 298 300 300 301 301 301 302 300 300 298 292 287 287 293 291 290 290 290 290 290 288 287 286 284 284 284 284 284 284 284
298 296 293 293 297 295 287 283 295 293 294 292 291 298 297 299 297 300 299 299 299 299 297 291 285 292 291 291 290 289 289 289 289 290 290 289 286 284 284 284 284 284 284 284
298 294 293 289 290 295 290 292 293 294 291 292 297 291 293 296 297 296 295 299 298 295 289 285 288 290 292 292 291 289 288 288 289 289 290 289 288 285 283 281 283 284 284 283

GFSNW_925_thetae_009.txt.gz
Theta_e
315 313 314 315 313 308 309 308 316 314 315 322 322 325 327 321 321 325 326 322 321 321 321 324 327 327 324 322 321 324 320 315 319 319 316 314 315 314 312 317 318 313 313 317
313 313 314 315 314 308 308 310 316 314 314 325 324 324 325 325 327 327 326 322 323 325 325 328 324 325 322 322 322 324 321 321 324 324 320 318 319 316 313 313 314 316 318 318
313 313 314 314 314 309 309 309 315 315 316 313 321 322 325 326 324 324 323 326 325 324 324 322 324 324 321 319 320 319 318 319 319 322 322 319 321 320 315 316 317 317 316 318
312 313 313 314 315 308 310 306 311 312 315 315 318 319 322 325 327 324 323 325 326 325 325 323 323 322 320 319 318 316 315 319 317 316 316 318 319 321 317 316 315 318 317 316
311 312 313 315 315 309 310 310 310 308 310 312 315 315 318 320 318 324 326 325 321 323 323 321 324 321 321 322 318 317 313 317 314 313 313 313 314 314 318 318 318 316 317 316
310 312 313 314 315 309 306 307 307 306 310 310 313 315 316 318 315 314 317 317 316 317 312 310 312 312 312 315 317 315 313 312 311 314 313 315 314 313 311 310 310 312 312 311
310 311 312 314 315 308 311 309 307 307 311 311 313 314 313 316 314 316 311 311 314 310 307 307 310 310 311 312 311 311 312 312 311 313 314 318 313 312 313 312 313 311 314 314
310 310 312 313 314 309 309 310 307 306 310 309 311 310 309 308 306 308 308 306 305 304 308 313 316 316 314 313 312 310 309 312 314 318 316 315 317 315 313 316 317 314 315 315
310 310 311 312 314 312 310 310 311 304 309 311 309 309 308 308 307 307 306 304 303 307 311 315 317 318 316 316 316 309 309 309 314 311 317 322 316 314 313 311 319 313 314 314
309 310 311 312 313 313 314 311 312 308 308 308 308 309 309 305 307 307 306 307 308 308 313 317 313 319 313 317 317 313 311 311 314 316 316 315 311 312 312 317 312 312 310 311
308 309 310 312 313 314 314 312 312 312 308 309 310 310 308 307 308 314 307 311 310 309 315 316 315 316 312 314 312 311 311 311 313 312 315 318 311 313 316 310 309 308 308 308
307 308 309 310 313 315 315 313 311 313 308 310 311 311 310 308 309 304 304 312 309 310 310 309 308 312 307 310 317 309 316 312 313 312 312 309 309 310 308 307 307 308 309 308
307 307 308 310 312 314 315 313 312 312 309 309 309 312 311 311 310 309 310 307 307 310 306 306 308 313 306 312 310 312 311 308 312 313 310 310 309 307 307 308 309 307 306 306
306 307 308 310 312 314 314 313 312 312 308 313 314 311 310 310 312 310 310 308 309 308 308 310 311 315 307 309 310 310 309 310 311 311 310 308 307 307 307 307 305 305 304 304
306 307 308 309 311 313 313 313 312 312 311 316 312 309 308 311 312 310 310 309 308 309 310 311 315 313 312 306 307 311 307 310 312 311 308 307 307 306 305 305 305 304 303 302
305 307 309 309 311 312 312 310 312 312 311 311 312 307 306 309 310 309 308 308 309 307 310 310 310 309 308 308 308 306 305 306 306 308 305 305 305 303 302 304 300 297 296 296
305 307 308 310 311 311 308 307 308 312 311 309 310 310 307 306 309 308 310 308 309 310 310 310 310 310 307 307 309 306 305 305 305 304 304 306 305 303 297 296 296 297 297 297
306 306 307 311 309 308 307 308 310 310 309 305 306 309 308 306 310 311 308 310 310 309 309 309 311 309 308 309 306 306 305 303 303 302 300 300 297 296 296 296 296 296 296 295
306 307 309 308 306 306 306 309 309 309 308 306 307 309 310 306 308 308 308 308 311 308 311 310 309 310 309 308 305 305 304 306 303 295 292 292 295 295 294 293 294 295 295 295
306 307 304 303 303 307 307 305 307 303 304 304 306 306 309 307 308 307 307 305 308 310 309 307 310 310 306 303 303 303 302 301 297 297 297 291 288 289 294 294 293 296 295 292
306 301 301 301 303 303 301 303 305 305 303 306 304 305 307 304 308 307 304 305 303 307 304 309 306 300 298 297 298 295 293 296 296 295 292 293 296 294 294 294 293 293 293 291
304 301 301 301 299 300 301 305 302 304 302 302 306 305 304 303 301 304 303 304 303 304 301 305 301 296 296 297 296 294 293 294 294 295 295 294 293 293 292 292 292 293 293 289
302 300 299 301 300 302 302 302 302 302 299 302 302 303 302 302 301 302 303 304 303 300 303 302 296 293 293 292 293 293 292 294 294 293 293 292 292 293 293 292 292 292 288 286
300 300 302 302 300 297 297 293 295 294 300 302 302 301 303 301 303 303 305 302 301 302 298 295 292 292 295 293 292 291 292 291 291 290 290 289 288 289 292 292 291 288 285 285
299 300 303 299 290 289 283 291 297 295 300 300 299 298 298 299 301 300 302 302 303 300 295 293 289 288 289 293 292 291 290 289 289 289 289 288 288 285 285 286 286 286 285 284
296 296 292 293 292 294 293 291 297 295 297 293 294 297 298 300 300 302 302 300 296 295 290 290 285 291 291 292 292 290 289 288 288 288 289 289 288 286 285 286 284 284 283 283
298 297 292 287 286 293 294 294 297 295 300 297 296 292 295 297 296 296 294 296 293 290 286 284 287 290 290 290 291 291 290 289 288 288 289 289 290 288 284 281 284 283 283 283

GFSNW_925_thetae_012.txt.gz
Theta_e
312 314 314 313 314 312 308 307 314 314 312 318 319 317 324 321 323 324 325 322 322 320 323 324 324 325 324 320 320 319 316 313 316 316 315 311 311 313 313 318 318 312 313 317
312 313 313 313 314 312 307 309 316 314 314 324 325 324 324 323 324 324 325 321 321 320 323 327 327 326 321 321 321 320 318 318 322 323 320 317 317 313 311 311 312 313 317 317
311 312 312 312 314 311 308 308 316 317 316 316 320 325 325 326 324 325 323 323 322 323 324 323 325 324 321 320 320 320 319 317 318 323 321 318 320 316 312 314 316 315 314 317
311 311 312 312 314 312 309 306 310 313 318 318 317 320 324 326 328 324 323 325 323 323 324 322 324 321 319 318 320 316 315 320 318 314 317 318 318 319 314 315 315 319 318 315
310 311 311 312 314 310 309 309 309 306 310 312 317 315 322 324 319 323 326 325 322 321 324 322 323 320 321 320 317 316 312 317 314 313 312 313 317 318 314 314 314 315 315 315
310 310 310 311 313 309 306 305 306 306 310 311 314 316 319 319 317 318 315 320 320 315 314 311 312 311 311 315 316 314 312 311 313 316 313 314 313 311 316 315 314 315 317 314
309 309 310 311 312 311 309 308 306 307 311 311 313 314 315 317 315 319 311 314 318 312 307 309 311 311 312 312 310 310 312 311 311 311 314 313 312 312 309 311 311 310 313 313
308 309 310 311 312 313 308 309 306 306 310 309 310 311 310 307 306 309 309 307 306 305 309 316 321 318 319 313 309 309 309 311 313 315 313 313 317 312 313 315 317 314 314 314
308 309 310 311 312 313 309 310 309 303 308 310 309 308 308 309 307 307 306 305 304 308 314 315 320 325 323 316 314 309 309 310 313 312 318 319 315 314 311 313 319 313 313 313
308 309 309 311 312 313 312 311 311 306 307 307 307 308 309 305 306 306 305 306 308 308 314 317 317 318 313 317 316 313 312 311 314 316 317 315 312 312 311 317 315 312 310 310
308 309 309 311 312 314 313 312 311 310 306 308 310 308 306 306 307 309 305 310 310 310 316 316 314 314 312 314 312 311 312 312 313 313 316 318 310 312 315 310 308 308 307 307
308 308 308 310 311 314 313 312 311 311 306 308 310 310 309 308 308 304 304 310 309 310 311 310 308 312 308 312 318 309 315 311 312 312 313 309 308 311 307 307 307 307 307 306
307 307 308 309 311 314 314 313 312 311 307 308 308 311 311 311 310 309 311 307 306 309 305 306 308 313 306 313 312 311 310 308 312 312 311 310 308 307 306 307 307 306 305 305
306 307 307 309 311 314 314 313 313 311 307 313 312 310 308 310 311 309 309 307 307 306 306 309 310 313 305 309 310 310 308 308 310 310 309 308 307 307 306 305 304 304 303 303
306 306 307 309 311 313 313 313 312 312 312 316 313 309 308 310 309 309 309 307 307 307 310 310 312 308 308 304 306 310 306 309 311 312 307 307 306 305 304 304 303 300 302 302
306 307 307 309 312 312 312 313 312 311 311 310 313 307 307 309 310 308 307 307 306 306 308 308 307 307 307 305 309 306 304 304 305 308 304 303 302 301 302 300 298 297 296 296
306 307 308 310 311 311 308 309 309 311 310 310 310 309 307 306 309 308 310 308 309 308 307 308 307 308 306 306 309 306 303 304 303 302 303 304 303 302 297 296 296 297 297 297
306 308 310 311 310 308 307 309 310 310 307 306 307 308 309 306 310 311 308 310 310 309 309 308 310 308 309 310 305 304 303 302 301 299 298 300 296 295 296 295 294 295 295 295
307 308 309 307 306 306 308 309 309 308 307 306 306 309 309 306 308 308 307 308 312 308 311 310 309 311 309 308 304 303 302 303 301 295 293 292 294 295 291 291 291 295 294 295
307 307 303 304 303 308 307 307 305 301 300 302 305 303 309 306 308 307 307 305 308 310 310 307 309 308 306 303 302 302 301 300 296 297 297 291 288 287 292 293 293 293 294 294
306 301 302 301 303 302 299 303 302 304 303 306 302 303 307 304 307 307 304 304 301 301 303 309 303 303 299 297 297 296 295 296 296 296 292 292 293 293 293 293 293 293 293 291
304 302 302 301 299 298 300 305 298 304 302 301 306 304 302 302 302 304 302 303 298 305 302 307 300 297 294 295 295 294 295 295 294 294 293 293 293 292 291 292 292 293 293 293
303 301 300 303 300 302 305 306 304 297 296 302 302 304 303 301 301 301 298 302 302 299 304 304 298 291 291 291 292 291 291 292 292 293 293 292 292 292 293 292 293 293 291 290
300 301 302 304 302 302 300 294 295 294 300 303 303 301 300 302 303 303 304 301 301 303 302 297 291 292 294 292 291 291 292 292 292 291 290 290 289 289 290 291 292 290 287 287
299 300 304 300 290 289 284 284 296 297 302 300 299 298 300 300 301 299 297 302 302 302 295 293 288 289 291 292 291 290 290 289 289 289 288 289 288 287 287 288 288 287 286 285
297 296 295 293 290 293 293 295 298 296 298 296 296 296 299 300 299 302 299 298 299 294 288 287 286 290 291 292 291 290 288 288 288 288 288 289 288 287 287 287 286 285 284 283
298 297 292 287 283 290 295 296 298 295 300 296 295 298 300 298 299 300 293 294 291 286 285 284 288 292 290 290 291 290 290 289 288 288 288 288 289 288 286 284 286 284 283 282

GFSNW_925_thetae_015.txt.gz
Theta_e
312 312 313 313 313 314 308 306 316 313 312 316 314 316 316 316 321 318 319 319 319 316 314 318 321 322 321 321 320 316 312 313 320 316 314 313 313 316 315 321 318 313 315 320
312 311 312 313 313 314 306 309 316 313 312 320 317 317 317 316 323 321 324 323 320 316 316 323 323 322 319 320 322 318 316 317 321 322 319 316 315 311 312 312 312 314 319 320
311 311 312 312 313 314 308 307 320 316 314 316 319 324 324 324 323 324 324 321 319 320 322 322 323 325 322 320 319 320 317 316 319 325 321 317 319 314 311 315 317 316 315 316
311 311 311 312 312 313 309 305 310 315 318 318 318 322 324 323 326 323 324 323 321 321 324 324 324 323 319 319 321 317 317 320 317 314 317 317 317 317 312 315 316 320 318 315
311 310 311 311 312 312 308 308 307 306 311 311 319 320 324 324 323 323 325 324 320 322 321 322 323 320 320 322 316 316 313 318 313 313 314 316 319 316 315 314 313 314 314 315
311 310 310 310 312 312 306 305 305 306 311 311 317 317 320 322 320 320 314 319 319 324 315 312 317 315 314 316 315 314 315 311 315 318 312 312 317 313 315 315 312 315 317 317
310 310 309 310 311 312 308 306 305 308 313 312 314 314 317 318 317 322 312 314 317 314 307 310 312 312 312 315 309 310 315 312 312 312 312 315 314 310 313 315 311 311 311 309
310 309 309 310 311 312 312 308 306 306 310 310 311 312 310 308 309 310 311 308 307 306 309 322 324 322 317 313 310 309 308 312 313 315 313 313 315 312 311 314 315 309 313 312
310 309 309 310 311 312 312 308 309 303 308 309 308 309 308 310 307 310 308 305 305 310 315 317 324 325 323 318 314 309 309 312 315 313 317 316 314 313 310 313 318 313 313 312
310 309 308 310 310 312 312 310 309 305 307 306 306 308 309 306 305 309 307 307 310 310 317 318 318 319 315 318 315 314 313 311 312 316 316 315 312 312 310 318 316 312 311 311
310 308 309 309 310 312 312 311 310 308 307 307 309 307 305 306 306 309 306 312 310 312 319 320 316 317 313 314 311 311 314 314 314 313 316 317 310 312 315 311 308 308 307 307
309 308 309 309 311 312 312 311 310 311 306 308 309 309 308 306 307 304 304 310 308 310 312 310 309 312 308 312 317 309 314 311 313 312 313 309 308 310 307 306 307 307 306 305
309 308 308 308 310 311 312 312 310 309 306 309 307 310 310 310 310 308 311 307 306 308 305 306 308 313 307 314 313 311 309 308 311 311 310 309 307 306 306 306 306 305 304 304
308 307 308 308 309 312 313 312 312 311 306 311 312 309 308 310 309 308 308 306 306 305 306 308 309 312 304 308 309 310 308 308 309 309 308 308 308 307 304 303 302 302 301 302
308 307 307 308 309 312 312 312 312 312 310 315 313 308 308 308 309 308 308 307 307 307 310 310 314 308 308 303 306 309 305 308 311 312 307 308 307 304 303 303 302 301 301 300
307 307 307 308 310 312 312 313 311 311 311 312 314 307 307 308 308 307 306 306 305 304 307 307 306 305 306 306 310 307 304 304 305 307 303 302 301 300 301 299 298 297 296 297
306 306 307 308 311 311 309 310 309 311 310 310 310 311 307 306 309 307 308 306 308 309 307 307 306 307 304 305 310 306 303 304 303 301 302 303 302 302 297 297 298 298 296 296
306 307 308 310 310 309 308 309 309 309 306 306 307 308 310 307 311 312 307 311 310 308 309 307 308 307 305 309 305 303 301 300 300 300 299 301 296 295 295 294 293 294 294 294
306 308 309 308 307 307 308 308 308 308 307 307 306 310 313 307 308 308 307 308 313 308 311 311 310 309 306 308 303 302 300 302 299 294 293 294 296 295 293 291 291 294 294 293
308 308 304 305 304 308 309 307 306 303 303 302 305 303 310 307 308 307 308 306 309 311 310 307 310 310 305 303 302 302 301 299 296 298 295 292 289 291 291 292 293 293 293 293
306 302 302 302 304 302 300 303 300 303 303 305 304 303 307 303 308 307 304 304 302 307 307 310 306 304 302 298 299 296 296 298 298 298 296 295 293 291 292 292 292 292 292 293
304 303 302 301 300 299 301 300 299 304 303 303 306 302 302 301 300 304 300 299 295 300 302 308 304 299 295 295 296 296 296 296 293 292 292 291 291 291 291 291 291 292 293 292
304 302 301 303 300 303 301 306 303 295 295 302 302 303 301 298 298 296 296 296 296 298 304 303 299 293 291 291 292 293 294 293 292 291 291 291 291 292 292 291 292 292 292 291
301 302 304 304 303 301 299 297 296 295 299 303 302 301 301 299 296 300 298 298 300 300 298 299 293 290 294 291 290 292 292 292 291 290 289 289 289 289 291 291 291 290 289 288
299 302 306 302 292 289 284 286 296 298 302 300 299 296 299 299 301 298 299 302 302 301 297 292 287 287 290 291 290 290 290 289 289 288 288 288 288 287 287 288 288 288 287 286
297 296 296 292 290 293 294 293 300 297 300 296 295 294 294 299 297 302 295 298 297 295 291 288 286 292 291 291 289 288 288 287 287 288 288 288 288 288 288 287 286 285 284 284
299 295 291 288 285 292 294 296 299 297 301 293 294 298 298 296 298 301 293 294 292 287 285 285 289 292 291 289 289 288 288 288 288 288 287 288 288 288 286 285 285 284 283 282

GFSNW_925_thetae_018.txt.gz
Theta_e
314 312 312 313 314 314 310 310 317 312 311 312 311 313 314 314 315 314 314 315 312 313 314 315 320 317 320 316 318 322 321 320 325 327 316 320 325 327 328 330 326 323 323 325
313 312 312 312 314 314 307 313 316 313 312 317 316 313 315 314 315 316 315 319 313 313 313 314 319 318 316 320 321 321 319 322 325 324 322 317 323 326 327 325 320 324 327 326
313 312 311 311 313 313 307 314 319 315 313 315 318 317 317 318 317 319 319 321 318 313 313 316 317 322 320 322 321 321 318 321 322 326 324 322 324 324 323 326 327 325 323 324
313 311 311 311 312 313 308 311 317 316 317 315 316 317 319 321 324 322 323 323 319 316 314 321 322 324 323 322 322 322 321 323 322 321 321 321 322 323 321 324 325 326 326 323
313 311 311 311 312 312 308 312 314 311 317 316 319 317 320 322 321 322 322 325 321 319 318 322 324 325 324 325 323 323 320 324 319 319 318 321 321 321 322 324 325 324 322 323
312 311 311 310 311 312 309 307 307 310 314 314 320 321 321 325 321 321 317 323 322 322 320 321 321 322 321 322 323 324 323 323 322 325 316 319 323 322 320 319 320 321 323 322
312 311 310 310 311 312 310 307 309 312 315 314 317 316 320 322 322 322 315 321 321 316 312 316 319 319 317 314 313 320 322 320 319 322 317 329 323 314 319 321 320 319 319 318
312 311 310 310 310 311 311 308 310 312 316 313 312 314 315 314 313 312 314 309 310 308 312 323 323 322 321 317 313 312 318 318 323 321 321 320 316 314 316 320 321 317 318 315
312 310 309 309 309 311 312 311 308 309 312 313 309 311 313 317 315 314 311 307 308 313 318 325 327 327 324 319 321 311 313 321 324 321 322 324 317 315 313 316 320 315 316 316
310 310 309 309 309 311 312 310 308 308 312 309 308 313 313 310 313 314 310 310 315 312 321 321 325 326 319 323 323 319 317 321 327 325 326 318 314 314 313 319 321 315 315 315
311 310 309 308 309 310 312 311 309 311 311 311 311 309 308 308 312 319 311 314 313 317 323 323 319 321 321 318 319 323 321 323 323 322 322 323 313 313 318 317 315 315 315 314
308 310 309 308 309 310 312 311 309 309 310 312 308 309 308 307 307 308 308 316 313 317 320 317 316 316 314 317 319 311 321 320 318 318 319 313 311 313 311 314 313 312 311 310
306 309 309 309 309 310 312 312 308 308 313 313 312 312 310 309 309 307 314 311 310 311 311 314 316 320 315 319 319 315 312 311 316 314 312 312 310 309 310 311 310 309 309 309
305 309 308 308 309 310 311 311 310 310 312 316 314 309 309 309 308 308 308 309 308 309 311 315 317 318 309 317 315 317 314 312 314 313 311 311 310 310 309 308 307 307 306 307
305 309 308 308 308 309 311 312 312 311 314 318 314 309 308 308 308 308 308 310 312 313 317 318 319 311 313 310 312 316 311 314 317 319 314 315 313 309 308 308 308 307 306 304
307 308 307 308 308 310 311 312 311 312 311 314 317 310 310 309 309 310 310 310 310 312 316 315 312 309 313 321 321 314 311 309 310 314 311 309 310 308 306 307 305 304 305 303
308 307 307 307 308 311 310 312 310 311 310 310 311 314 309 308 310 311 312 311 311 314 312 314 314 313 311 314 320 313 310 310 307 307 307 307 307 308 304 303 302 300 300 300
308 307 307 308 310 310 308 309 310 310 307 308 309 310 312 308 313 314 309 314 314 312 313 311 313 311 311 316 313 307 308 307 306 306 303 308 304 302 301 300 299 299 299 299
306 306 308 308 308 307 308 307 308 307 308 309 308 312 315 309 309 309 309 309 315 310 314 314 313 315 317 316 312 308 306 308 305 300 300 302 302 300 298 297 297 298 298 297
306 308 306 307 305 308 309 306 309 305 304 304 308 308 312 309 309 308 310 308 312 315 311 308 312 315 312 309 308 308 306 304 301 301 300 298 297 297 298 299 298 298 297 297
307 303 303 302 305 303 303 306 310 307 308 307 306 307 310 305 310 309 306 308 306 314 311 313 313 311 308 304 304 304 303 301 304 305 303 302 301 299 297 296 296 296 296 296
304 304 303 301 301 303 306 307 303 306 309 306 307 306 306 304 303 307 304 306 304 311 305 310 310 308 299 302 301 302 302 302 300 301 300 297 296 296 296 296 295 295 295 294
305 303 302 305 303 305 307 308 306 303 302 303 303 305 304 302 303 302 303 306 307 302 307 308 307 300 296 298 300 299 299 296 295 295 295 295 294 294 294 294 294 293 293 292
301 302 307 306 306 307 304 305 304 301 303 304 304 302 304 302 305 303 304 301 302 304 304 305 302 298 297 296 297 300 296 295 295 294 294 293 294 293 292 292 292 292 292 290
301 303 308 306 296 293 291 293 299 300 303 302 302 302 302 301 304 301 302 303 304 303 303 302 298 295 294 295 298 298 295 294 292 292 292 292 291 291 290 289 289 289 288 287
297 298 298 294 297 296 295 296 301 299 303 299 302 301 303 301 303 302 303 303 303 304 301 297 293 295 294 295 296 295 293 293 292 291 290 290 290 290 289 287 286 285 285 285
299 297 294 292 293 296 296 299 301 300 302 303 302 306 305 300 302 303 299 302 301 298 294 293 296 295 293 292 291 291 290 290 290 289 289 289 288 287 287 289 284 283 282 282

GFSNW_925_thetae_021.txt.gz
Theta_e
312 314 314 312 312 315 314 310 314 312 311 313 312 313 311 313 314 313 314 316 315 313 313 314 316 316 315 314 316 321 321 324 323 325 319 325 328 328 329 330 330 326 326 326
306 314 313 312 313 314 309 313 316 312 311 315 313 312 312 312 315 317 315 317 316 313 313 315 317 317 315 318 318 320 322 324 329 325 322 322 328 328 329 328 326 329 328 327
306 313 313 312 313 314 309 313 318 315 312 313 316 315 316 316 314 315 316 316 316 314 313 314 317 320 318 319 317 321 321 322 324 328 328 326 328 329 328 329 330 329 327 325
305 311 312 311 312 314 311 311 317 315 316 315 316 317 317 319 320 317 317 320 318 316 314 314 317 318 320 319 321 320 323 324 323 322 323 325 327 328 328 330 330 329 327 325
304 309 312 311 312 313 309 312 313 316 318 315 316 316 318 319 318 322 321 322 319 317 313 314 320 320 322 323 322 322 323 324 323 323 322 322 323 324 326 326 327 326 325 326
305 309 312 311 312 312 310 309 309 313 316 319 319 320 318 318 318 319 321 320 322 319 314 315 321 321 321 323 324 323 323 324 324 326 321 322 325 323 323 323 323 324 326 325
303 306 311 311 311 312 310 308 310 314 315 313 316 320 319 320 322 322 320 320 322 320 317 320 320 319 321 322 323 322 324 324 325 328 322 330 324 318 321 322 322 323 324 323
302 305 312 311 311 311 311 308 309 314 315 314 316 316 318 315 315 315 317 315 316 311 320 322 323 323 322 319 314 321 323 325 326 326 325 324 323 317 319 322 323 321 321 321
302 305 311 311 310 311 311 311 311 311 314 314 313 315 316 320 318 315 313 310 312 314 322 324 325 327 324 325 321 312 323 323 326 324 325 328 320 317 315 320 323 321 321 320
301 303 306 311 310 310 310 311 311 311 314 312 311 315 318 315 316 315 314 314 319 315 324 327 328 327 321 327 325 319 323 325 327 329 329 327 317 316 316 320 324 316 318 318
300 302 309 310 309 309 310 311 311 311 314 314 312 311 310 310 317 321 313 318 317 321 324 326 323 325 322 325 324 321 322 326 327 328 330 330 316 315 319 319 316 316 317 317
300 302 304 310 309 309 310 311 310 309 314 315 311 311 310 308 309 313 310 315 317 321 322 322 320 319 318 322 325 318 326 323 324 325 326 316 314 315 314 316 317 316 315 314
300 302 306 309 308 309 310 311 308 309 312 315 313 314 311 309 310 308 316 312 313 312 312 318 320 322 319 324 323 320 316 313 319 316 315 315 313 312 313 315 314 313 312 311
300 302 306 309 308 309 310 311 310 312 315 318 317 310 312 310 309 308 310 311 310 310 313 318 320 322 313 320 318 319 315 314 317 316 314 313 312 313 312 312 311 310 310 310
300 302 305 309 309 309 310 311 311 311 316 319 315 312 310 310 310 309 309 310 313 315 317 320 323 315 315 314 315 318 313 316 317 319 316 317 315 312 310 310 310 309 308 308
300 302 307 309 309 309 310 312 311 312 311 315 317 312 312 311 312 312 312 312 313 316 320 320 315 312 317 324 323 319 314 314 313 316 314 314 312 311 310 310 309 308 308 307
300 303 308 308 308 309 311 313 310 312 312 314 315 314 311 310 313 313 314 314 315 317 316 319 318 316 315 319 324 318 314 313 311 311 311 312 311 310 309 307 306 305 304 304
302 305 308 308 308 310 310 310 309 310 308 309 311 313 313 309 316 318 313 317 317 315 317 314 318 314 315 321 319 314 313 311 310 310 308 311 310 308 306 304 303 303 302 302
304 308 308 308 309 309 309 309 309 307 309 309 310 313 315 310 311 312 313 314 321 313 318 318 316 320 322 321 317 311 312 311 310 306 307 307 307 304 302 302 302 301 300 300
308 307 307 307 306 308 308 306 308 306 306 306 312 312 313 310 310 310 312 310 314 315 313 311 315 319 318 315 313 312 310 309 304 304 303 300 300 301 302 301 300 300 299 299
307 305 307 303 307 304 305 308 312 311 311 309 309 311 312 307 312 311 308 312 311 317 314 315 318 316 313 307 309 310 309 305 306 308 305 304 303 303 301 299 298 298 298 298
305 305 304 302 303 306 310 311 307 308 312 308 309 310 310 305 305 308 306 310 309 314 308 313 312 311 303 305 306 307 305 305 306 305 305 304 302 299 298 298 298 297 297 296
304 304 303 307 305 310 311 309 307 307 307 306 305 307 306 305 306 305 307 310 312 305 308 311 311 303 301 303 304 305 303 301 302 299 298 297 297 297 297 297 296 296 296 295
302 306 307 309 308 308 309 310 310 307 305 304 305 305 308 306 307 307 310 305 304 308 309 309 306 302 301 302 302 300 299 297 296 297 296 296 295 295 295 295 295 295 294 292
301 305 310 306 301 297 296 299 302 303 305 304 306 306 305 305 305 305 304 304 307 307 308 307 302 299 299 301 301 297 296 296 296 296 295 295 294 294 293 292 292 292 290 289
298 300 301 298 301 298 297 300 303 303 304 304 308 305 307 303 306 304 306 306 308 309 307 302 298 298 299 301 297 296 294 294 294 294 293 293 292 292 290 289 288 288 288 287
300 299 297 298 300 301 300 301 303 303 304 309 308 309 308 303 304 306 305 306 306 302 299 299 298 298 299 299 294 293 292 293 293 292 292 291 290 290 290 289 286 284 284 283

GFSNW_925_thetae_024.txt.gz
Theta_e
306 305 305 311 314 313 315 310 316 312 312 315 313 314 313 311 313 313 314 314 316 316 313 313 314 317 315 314 314 316 313 317 321 322 321 323 327 328 328 327 332 328 324 322
305 304 304 311 313 313 310 312 315 313 312 315 314 313 313 311 314 315 314 315 316 315 316 314 313 315 315 316 315 319 318 322 326 325 326 327 329 328 327 327 326 328 326 322
303 304 304 307 313 313 312 313 317 314 312 313 314 314 314 313 312 313 315 316 315 316 317 313 316 316 318 317 313 319 322 322 322 332 330 327 330 328 327 327 329 327 325 320
301 303 304 305 313 313 310 311 316 314 315 313 315 315 315 316 315 313 314 317 316 318 315 313 314 317 319 320 316 319 321 327 325 326 326 327 327 328 328 329 328 328 326 320
301 301 303 310 312 313 309 311 313 314 317 313 314 315 317 317 317 318 320 317 318 318 315 313 314 318 319 319 320 317 318 325 323 323 326 327 328 327 327 327 327 327 326 324
300 302 304 312 312 312 310 309 309 312 315 317 317 318 317 317 316 316 317 317 318 321 319 312 318 315 316 320 320 321 322 324 325 324 322 322 324 322 326 327 325 326 327 324
300 301 303 305 310 312 311 309 310 313 315 315 317 318 319 318 317 319 318 319 319 320 316 319 319 318 319 320 321 319 321 323 326 329 321 325 322 317 320 321 321 322 321 321
300 301 302 307 311 312 311 308 310 314 317 316 315 316 317 317 316 320 318 320 316 311 317 322 324 323 322 320 315 319 320 324 326 326 323 323 321 317 319 320 321 319 319 320
300 300 301 303 311 311 311 310 309 311 315 315 313 314 317 318 318 316 314 311 311 315 320 322 322 326 325 323 321 315 322 324 324 319 324 327 319 316 314 317 321 316 318 317
301 300 301 304 309 311 311 310 311 311 314 314 312 314 315 316 317 316 314 314 318 316 323 325 323 324 322 324 325 322 325 325 327 326 326 324 317 315 315 321 321 314 315 316
301 300 301 303 306 311 311 310 311 311 314 314 313 312 312 312 317 319 314 318 318 320 325 325 324 325 322 325 321 322 324 325 326 325 328 326 315 314 318 318 316 315 314 314
301 300 301 304 310 310 311 310 311 311 311 314 311 311 311 309 310 313 311 316 318 321 321 321 321 321 319 322 326 319 325 323 325 325 326 316 313 314 314 315 314 314 312 310
300 300 301 303 308 310 310 310 309 309 312 313 314 314 311 309 309 309 315 313 314 314 312 318 319 320 319 320 320 319 319 314 317 318 314 314 313 312 313 314 312 311 309 309
300 300 301 302 306 309 309 310 310 311 313 317 315 311 311 311 309 308 310 313 311 311 314 319 320 323 313 321 318 317 314 312 316 314 313 312 312 312 311 310 309 309 308 307
299 300 300 302 307 309 309 310 311 311 314 318 316 312 310 310 310 309 309 312 313 315 317 319 321 316 315 314 314 316 312 314 316 317 314 313 312 310 309 309 308 307 307 306
299 299 301 303 308 309 311 312 311 312 311 315 317 312 312 311 311 310 311 311 313 315 319 320 316 312 316 317 319 318 312 312 313 314 311 311 310 308 308 307 306 305 304 304
299 299 301 304 309 310 311 312 310 311 312 313 314 314 311 311 313 313 313 312 314 316 316 318 317 314 313 318 323 318 312 310 310 310 310 310 309 308 306 306 305 305 302 302
299 300 303 307 309 310 310 309 309 311 310 310 311 312 313 309 316 316 311 316 315 314 315 313 316 312 313 318 317 313 310 309 309 308 308 308 306 305 303 301 300 300 300 299
299 302 305 309 308 309 309 309 309 309 309 310 309 312 315 310 312 312 313 313 320 312 317 316 314 318 316 318 317 311 309 309 307 303 304 304 304 302 300 299 299 299 298 297
302 304 308 307 306 309 309 307 308 305 305 307 311 311 313 310 311 310 313 310 313 314 314 309 315 315 316 314 312 309 308 304 303 303 302 301 300 300 300 299 297 297 297 296
305 306 305 305 307 306 306 308 309 309 309 308 309 311 311 307 312 311 308 310 308 315 313 314 315 314 312 304 307 307 304 303 303 303 301 301 301 300 298 297 296 296 296 295
306 304 303 303 304 305 308 308 305 308 310 308 310 310 309 306 305 308 306 309 306 314 307 311 312 308 301 303 307 305 302 303 303 303 302 301 299 297 296 296 295 295 296 295
305 303 303 307 304 309 308 309 309 307 307 305 305 307 305 304 305 304 304 305 306 304 308 310 306 300 300 302 303 302 301 303 302 301 299 297 295 296 296 295 295 295 295 295
303 305 307 309 308 305 306 305 305 303 305 304 304 304 306 304 305 305 301 303 302 305 305 305 302 299 300 300 298 297 296 297 297 296 295 295 294 294 295 295 295 294 292 293
299 303 310 306 301 297 298 300 300 302 304 303 304 302 302 303 305 302 302 304 303 304 304 302 296 294 297 298 296 296 296 295 295 295 294 293 292 292 291 292 292 291 290 289
297 300 302 299 301 298 298 300 302 302 304 301 302 303 298 302 301 301 298 300 301 302 299 294 292 296 298 294 294 294 294 294 294 293 292 291 290 289 288 288 288 288 288 287
299 299 298 299 300 299 299 300 302 303 304 305 302 302 300 302 302 300 299 300 299 295 293 291 291 294 294 292 292 293 292 292 292 291 290 289 289 288 287 284 284 285 284 283

GFSNW_925_thetae_027.txt.gz
Theta_e
301 302 305 304 304 308 314 312 316 312 310 313 312 314 312 312 313 313 314 313 315 316 315 315 312 315 315 313 313 314 314 317 318 318 320 319 321 322 321 320 328 326 321 320
301 302 303 303 305 306 312 314 315 312 310 315 314 313 313 312 313 313 313 315 314 314 315 318 312 312 314 314 314 315 314 316 324 324 323 322 322 322 321 323 328 330 323 320
301 301 302 304 304 305 313 313 316 314 313 313 314 314 315 314 311 312 313 314 314 317 316 315 316 312 314 313 314 316 314 318 320 330 329 322 323 326 328 328 330 329 323 321
302 302 301 303 304 308 311 313 315 313 315 314 314 314 315 315 313 311 313 313 317 317 318 316 315 316 316 316 316 318 320 321 323 323 321 324 326 328 328 329 329 329 321 321
301 301 301 302 306 312 311 312 314 312 313 312 314 315 317 317 315 315 315 315 316 315 317 315 311 316 318 320 317 317 318 322 323 328 326 325 327 327 327 327 327 327 326 326
301 301 301 303 302 311 311 309 309 314 316 314 315 315 315 315 315 314 315 315 317 318 315 314 313 315 315 317 318 316 319 322 328 324 325 326 327 326 326 326 324 325 328 323
301 302 301 303 303 308 311 310 310 313 317 316 317 316 315 316 316 316 316 315 317 316 315 316 316 317 317 321 320 318 319 321 325 326 319 324 321 316 322 326 324 322 323 321
300 302 301 302 303 311 311 309 311 313 315 315 315 315 315 316 315 316 315 317 315 311 314 319 320 322 322 319 314 320 317 322 325 322 322 321 320 315 317 319 320 318 322 318
300 302 301 301 303 307 311 309 311 311 315 315 313 312 315 315 316 315 316 311 312 314 318 321 322 325 324 324 321 318 320 322 323 314 321 325 318 315 313 315 320 315 314 315
300 302 301 301 303 308 311 310 310 311 313 313 313 313 314 316 317 316 314 314 316 316 321 323 320 321 321 321 323 324 324 325 326 322 324 320 317 314 313 320 318 314 313 314
300 301 301 301 303 307 311 311 311 311 313 313 312 312 312 312 316 318 315 317 318 319 323 322 319 322 321 322 317 319 323 326 326 322 326 322 314 313 316 314 314 313 310 310
299 300 301 301 302 305 311 309 311 311 311 313 312 311 311 310 311 315 311 315 316 319 321 321 318 320 320 323 325 316 322 320 325 323 322 316 313 314 313 313 313 311 309 307
299 300 301 300 302 305 311 310 309 310 311 312 312 313 311 310 309 312 315 313 314 314 312 315 317 319 315 321 320 318 318 316 319 319 316 314 312 311 312 312 310 308 307 306
299 300 300 300 302 305 311 310 310 310 312 315 314 311 310 310 309 309 310 313 312 311 315 319 319 320 312 319 316 317 315 313 316 314 312 312 311 311 309 308 307 307 306 306
299 299 300 300 302 306 310 311 310 311 313 317 314 310 310 310 309 309 309 313 314 316 318 319 321 317 317 313 312 314 310 313 316 318 312 312 311 309 308 308 308 306 306 304
298 299 299 300 302 306 310 311 310 310 311 313 316 311 311 311 310 309 308 311 313 315 318 319 316 312 314 315 316 313 310 310 311 314 310 309 308 306 306 306 305 304 304 304
298 299 299 300 303 307 310 311 310 310 310 313 312 313 311 310 311 311 311 310 313 315 315 316 315 312 312 316 321 317 310 310 309 308 309 309 308 307 305 304 303 302 301 301
298 298 299 302 305 309 309 310 310 310 311 310 310 312 311 309 314 314 310 312 312 312 314 312 315 311 312 317 315 310 308 307 306 307 307 307 304 303 302 301 300 300 300 299
298 298 300 304 308 309 309 310 310 310 310 311 309 312 315 309 311 312 312 311 317 309 315 315 313 315 315 315 315 309 308 309 306 302 303 303 303 301 299 299 299 299 298 296
298 301 305 308 308 309 309 309 309 305 306 307 311 311 313 310 310 310 312 310 312 313 312 308 313 315 313 310 309 308 306 304 303 304 302 301 301 300 299 298 297 297 297 296
303 305 306 305 308 307 307 308 309 309 308 309 310 310 311 307 312 311 306 307 307 314 311 313 313 315 311 303 306 304 302 302 303 302 301 302 301 300 297 296 296 296 296 295
302 304 304 305 304 305 308 309 306 309 312 308 311 310 309 306 306 309 307 309 305 313 305 310 312 307 301 302 305 302 300 301 300 300 300 299 296 295 295 295 294 295 294 293
301 303 302 306 303 308 309 311 309 308 307 305 305 307 305 304 304 304 303 302 306 301 306 308 305 299 299 300 301 300 300 300 301 301 299 297 295 295 295 294 294 293 293 293
301 300 305 307 306 307 306 307 303 300 300 303 304 304 306 304 305 303 299 302 301 302 304 302 297 296 299 298 296 297 297 298 297 297 296 295 295 294 294 293 293 292 291 292
299 299 308 306 298 297 297 297 302 299 303 303 303 301 299 304 305 302 301 303 302 302 302 299 292 292 293 295 294 295 296 296 295 295 295 294 293 292 290 291 292 291 289 289
297 299 301 299 299 297 298 300 301 300 302 298 299 301 295 301 299 300 295 297 299 301 297 290 289 295 294 293 293 294 295 294 294 293 292 291 290 289 287 288 288 287 286 285
299 297 296 297 296 294 298 300 302 302 301 302 297 298 298 294 293 295 294 296 297 299 288 287 288 291 291 291 292 293 293 292 292 291 289 287 286 285 285 283 282 283 283 283

GFSNW_925_thetae_030.txt.gz
Theta_e
299 301 303 302 304 305 306 311 311 310 309 313 311 313 312 311 311 313 313 313 315 317 317 317 311 312 311 310 311 312 312 316 316 314 314 312 312 313 313 315 313 317 321 320
299 301 303 302 304 305 306 313 313 310 310 311 312 312 312 312 313 313 313 314 313 314 315 318 312 312 311 312 312 315 314 316 317 321 316 317 314 316 314 315 319 317 321 319
299 301 303 302 303 303 304 312 314 313 312 312 313 313 313 314 312 313 312 313 313 315 316 314 316 313 312 313 314 315 313 316 317 323 324 322 322 317 318 316 319 316 321 322
300 301 302 302 304 303 307 312 314 312 313 313 313 313 315 315 316 312 312 312 313 315 317 315 315 314 314 315 316 316 314 319 315 315 316 319 322 323 322 320 318 319 317 320
299 300 302 301 303 305 309 313 314 311 312 313 314 314 315 316 315 313 313 313 314 315 317 315 312 313 315 318 315 317 317 318 316 321 326 322 325 323 322 322 320 317 325 326
298 300 301 301 303 304 310 309 309 312 313 314 314 316 314 315 315 314 313 313 314 316 315 313 313 312 313 317 319 317 318 319 320 328 324 325 328 320 327 320 325 328 330 322
298 300 301 301 302 304 308 309 309 314 316 314 315 315 314 315 314 316 314 314 316 315 314 312 311 312 314 315 318 316 317 318 324 327 319 324 320 315 323 325 324 323 322 318
297 299 301 302 302 304 309 309 310 313 316 316 315 315 315 314 314 315 315 314 314 313 314 317 320 317 318 317 315 320 320 318 327 325 321 320 318 315 319 325 324 319 322 315
297 299 301 301 302 303 308 310 312 311 316 315 314 315 314 315 315 313 314 312 311 313 317 320 318 321 323 322 321 318 318 318 325 316 319 325 319 315 312 314 320 315 315 314
297 299 300 302 301 302 306 310 311 310 314 313 313 314 315 313 315 314 315 314 315 315 320 322 319 323 320 324 323 323 323 321 324 320 322 319 317 314 312 320 316 314 313 312
297 298 300 302 301 302 306 310 310 311 312 313 312 312 311 313 314 314 314 317 318 318 320 323 318 317 322 318 316 322 322 322 324 323 322 320 313 312 316 312 312 311 310 309
296 298 300 301 301 302 305 309 311 311 311 312 312 312 311 311 311 313 312 315 317 318 320 318 318 321 319 322 320 314 323 319 323 319 320 314 312 313 313 311 312 310 307 307
296 298 300 301 300 302 305 310 310 310 311 312 311 311 311 311 310 311 315 313 313 315 311 314 315 318 313 320 319 316 316 315 319 320 317 315 312 311 312 310 308 306 305 305
296 298 299 300 300 302 304 310 310 310 311 314 313 310 310 310 309 310 312 313 312 312 314 317 317 318 311 316 314 317 315 315 315 315 312 312 311 310 309 306 306 305 303 304
296 298 299 300 300 301 305 310 310 310 312 316 315 310 310 310 309 308 309 312 314 316 317 319 320 316 315 313 311 313 310 315 319 320 313 313 311 308 307 307 306 305 303 302
298 298 299 299 299 302 305 311 310 310 310 312 316 311 311 310 309 308 309 311 313 314 318 319 316 312 316 317 319 314 311 310 313 315 309 308 308 306 306 306 304 304 303 302
298 298 298 299 300 302 309 311 309 310 310 313 311 313 310 310 309 309 309 309 312 314 315 317 316 314 314 315 319 316 310 309 308 308 309 309 308 307 304 304 303 302 301 300
298 298 298 299 301 304 307 310 310 309 311 310 310 312 312 309 314 313 310 312 311 312 314 312 315 311 312 316 314 311 308 307 307 306 306 307 304 303 302 301 301 301 300 298
298 298 298 301 304 308 308 310 310 310 310 311 309 312 314 309 311 311 311 311 315 309 313 314 312 315 315 315 313 309 307 309 305 302 303 304 303 301 300 299 299 300 298 297
298 299 303 306 307 309 310 309 309 306 306 307 311 310 313 310 310 310 312 309 313 313 312 308 313 313 313 312 309 307 305 303 303 304 301 300 300 300 299 299 299 298 297 295
302 303 305 306 308 308 307 309 309 309 309 309 310 310 311 307 312 311 307 308 307 314 312 313 312 312 309 301 304 304 302 302 304 304 303 302 301 299 297 296 295 295 296 295
296 297 298 305 304 304 309 309 306 309 311 308 311 310 309 307 306 310 307 309 308 314 305 311 313 305 300 300 304 302 300 300 300 300 300 298 296 296 295 295 294 295 293 292
299 302 302 305 303 310 310 311 308 309 306 306 305 307 305 305 305 305 305 311 311 301 307 308 305 298 298 299 299 299 298 298 298 298 296 296 295 296 295 294 294 293 292 290
300 300 305 306 308 308 307 306 306 301 301 305 305 304 306 304 305 304 297 303 301 299 304 305 297 297 299 297 297 298 298 298 296 296 296 296 295 294 294 294 293 292 290 289
299 299 306 306 300 297 297 295 300 299 303 303 303 302 303 304 304 302 302 303 301 302 305 298 289 292 290 294 294 294 295 296 296 296 295 294 293 292 290 291 291 291 290 289
297 298 300 299 300 299 298 300 301 299 302 299 301 301 304 305 303 298 298 298 300 302 297 289 288 293 292 292 293 293 295 295 295 294 293 292 292 290 287 287 288 288 287 285
298 297 295 296 298 294 298 299 302 301 301 305 295 301 299 293 292 295 293 297 297 290 289 285 287 291 291 291 292 292 292 292 292 291 289 287 286 286 285 283 282 284 284 284

GFSNW_925_thetae_033.txt.gz
Theta_e
297 300 302 302 303 305 305 307 308 310 310 306 310 312 311 310 312 312 312 313 313 315 314 315 310 310 309 308 309 311 310 314 314 312 312 312 312 313 313 313 310 311 317 316
298 300 301 302 302 304 304 305 311 310 308 309 309 312 312 312 312 312 312 313 313 314 316 319 312 310 309 309 309 311 312 314 315 316 315 313 315 314 313 312 311 311 311 310
297 299 301 303 301 305 303 305 308 311 308 310 311 313 313 313 312 313 312 313 313 314 316 314 315 314 312 310 310 313 313 315 316 318 318 316 318 316 313 312 314 314 313 312
297 299 301 302 302 303 306 306 308 308 309 310 311 311 311 313 315 312 313 314 314 315 317 315 315 313 313 312 314 315 314 316 316 315 315 317 318 315 314 314 312 314 313 314
298 298 300 301 302 303 307 309 313 311 311 312 312 311 313 314 314 313 314 315 312 313 316 314 313 313 313 313 316 316 315 317 315 317 317 317 320 318 314 316 312 315 318 317
297 297 300 301 302 303 307 309 308 311 313 313 314 314 314 314 314 313 312 312 314 315 314 313 312 311 312 313 315 317 316 316 319 323 320 322 324 322 316 317 315 314 320 317
297 297 300 301 303 302 305 306 308 313 315 314 314 315 313 314 315 316 314 313 314 313 313 313 313 313 313 313 313 316 317 319 318 324 321 327 321 320 318 319 319 318 318 318
296 297 299 300 302 302 304 307 309 309 316 313 313 314 314 313 313 315 314 314 312 312 314 317 317 314 315 315 315 317 316 320 324 327 320 320 316 319 319 319 319 318 319 318
296 297 299 300 302 301 303 307 310 309 311 315 314 314 315 316 315 314 315 313 311 313 316 318 317 317 315 321 320 314 317 319 322 321 320 324 318 314 311 313 324 317 318 316
297 296 298 300 302 301 304 309 310 310 312 312 312 313 315 313 313 313 313 314 315 313 316 320 318 318 319 321 319 322 322 321 323 319 322 318 315 313 311 319 315 313 313 312
297 296 298 301 301 301 303 307 311 311 311 312 312 312 312 313 313 313 312 315 317 317 318 320 314 315 318 317 317 320 322 319 321 322 322 318 311 311 316 312 312 311 310 310
297 296 298 300 301 301 303 309 310 311 310 312 312 312 311 311 311 313 312 314 316 317 317 317 316 317 315 317 319 313 320 317 319 319 318 313 311 313 312 310 311 309 308 306
296 296 297 300 300 300 302 305 311 311 311 311 311 312 311 312 311 311 312 313 313 315 311 314 316 318 313 318 318 315 314 313 318 319 315 314 312 311 310 308 307 305 305 305
297 298 299 299 300 300 302 304 311 310 310 313 312 310 309 310 310 310 311 312 312 312 313 317 315 317 310 314 314 315 314 314 315 315 313 311 310 310 307 305 304 304 302 303
297 298 298 298 299 299 302 307 310 310 312 315 314 310 309 310 309 309 310 310 312 316 317 317 318 315 313 311 310 312 310 315 318 320 314 313 311 308 306 306 305 303 302 301
297 298 298 299 299 299 303 311 310 310 310 312 314 311 310 308 308 308 308 309 312 314 318 318 316 312 316 318 320 316 310 309 314 316 309 308 306 306 306 305 304 302 301 300
296 297 298 298 299 300 304 309 307 310 310 312 312 313 310 309 308 308 308 309 311 314 315 317 316 314 314 316 318 315 309 309 309 307 307 308 308 307 304 303 302 301 298 298
296 297 298 299 299 301 305 308 309 310 310 310 310 311 311 309 313 314 309 312 312 312 315 312 315 311 312 316 313 312 308 306 306 305 305 307 304 303 302 301 300 299 298 297
297 298 298 300 302 305 309 309 309 310 310 311 309 311 312 309 311 311 311 310 314 308 313 314 312 315 315 314 312 309 307 309 305 301 302 303 303 302 300 300 299 299 297 296
299 300 302 305 306 309 310 309 309 305 306 308 311 309 313 309 310 310 312 308 313 313 312 307 312 313 311 311 310 307 306 303 302 304 301 300 300 300 299 300 299 298 297 294
297 302 303 301 307 307 307 308 309 308 309 309 308 310 311 306 311 311 306 308 307 311 308 313 310 312 307 301 303 303 302 302 303 304 302 303 302 300 297 296 295 295 296 294
296 297 296 299 304 305 308 309 306 309 309 308 311 309 307 306 306 311 308 308 307 312 304 310 312 305 300 300 303 302 300 301 302 301 300 299 298 297 296 295 294 294 293 290
298 299 297 301 303 308 311 311 309 310 303 305 305 307 306 306 305 305 307 311 312 301 306 307 303 298 298 298 299 298 298 298 297 296 296 296 294 295 295 293 293 292 290 289
298 299 303 304 307 307 306 306 306 301 301 304 305 304 306 304 306 304 307 304 300 301 302 302 296 297 298 297 296 297 297 296 295 295 295 295 295 293 293 292 292 290 289 288
299 298 304 306 300 297 297 297 298 299 300 303 303 302 304 303 304 301 301 304 302 303 304 296 290 290 290 295 295 295 295 295 294 294 294 293 293 291 290 290 290 289 288 287
296 298 300 299 300 300 298 299 301 299 300 299 302 303 305 306 304 298 299 300 303 304 294 288 284 293 292 292 293 293 293 294 294 294 293 292 292 290 288 287 287 287 286 284
298 295 293 295 297 298 298 299 302 301 302 306 302 306 308 294 297 294 293 299 299 288 291 284 285 288 291 290 291 291 292 292 293 291 289 289 288 288 287 284 282 284 284 284

GFSNW_925_thetae_036.txt.gz
Theta_e
298 298 299 301 303 303 304 306 308 309 309 308 306 312 311 311 312 311 311 311 312 312 312 313 312 310 309 307 308 311 309 312 312 310 310 311 311 313 313 315 311 310 308 310
298 298 299 301 303 302 303 306 308 309 308 307 308 311 311 311 312 312 311 311 312 312 314 316 314 312 309 307 308 309 310 313 311 309 315 312 314 313 313 313 314 312 309 309
298 298 299 300 302 303 302 305 309 309 307 308 311 312 312 312 311 311 311 312 312 313 316 314 314 314 312 308 308 310 311 314 313 315 315 315 315 315 313 313 315 312 311 309
298 297 298 300 302 303 304 304 306 306 308 307 311 312 311 312 313 312 311 313 312 312 317 314 315 314 312 311 311 312 313 316 315 315 315 315 316 317 314 314 313 312 311 310
298 297 298 300 302 302 306 308 309 309 307 310 311 312 310 311 313 311 313 313 311 311 315 315 314 312 313 313 313 313 314 317 316 317 317 317 317 317 317 315 315 312 311 311
298 297 298 300 301 302 304 307 306 306 308 311 312 312 312 312 312 312 310 312 313 313 313 313 312 311 312 312 314 317 316 316 318 320 319 320 325 318 318 316 313 313 313 312
298 297 297 299 301 302 303 305 305 308 314 311 312 312 311 313 313 313 313 312 313 313 312 313 312 313 313 313 314 314 316 317 317 320 322 327 321 319 317 316 315 313 312 312
298 297 297 299 301 302 302 304 307 311 314 312 312 313 312 313 313 315 314 314 313 312 314 317 318 315 313 314 313 313 313 318 323 325 324 320 317 319 318 316 318 315 316 314
298 298 297 298 301 302 302 304 306 310 312 313 312 312 314 315 315 314 314 313 312 313 314 316 318 314 313 318 318 313 314 316 322 322 325 325 318 312 315 316 325 318 316 316
298 298 296 298 301 301 302 304 309 309 310 311 312 314 315 313 313 313 312 313 314 313 315 319 318 315 316 320 318 323 321 322 323 323 323 319 315 313 313 319 315 314 316 316
298 297 296 297 300 301 302 303 308 310 309 310 312 311 312 312 312 313 311 313 314 314 317 319 316 312 315 316 315 319 320 321 320 319 321 318 312 311 315 311 311 312 311 310
297 296 298 298 300 301 301 305 309 311 310 311 311 311 311 311 310 312 311 313 314 316 316 315 316 313 312 314 317 312 318 316 318 317 317 313 311 312 312 310 310 309 308 305
295 297 298 299 299 300 301 303 306 310 310 310 310 310 311 311 311 311 313 312 312 314 312 315 315 318 310 315 315 315 314 312 317 317 315 313 311 310 307 307 306 304 303 302
295 297 298 299 299 300 301 301 305 310 308 311 310 310 310 310 311 311 311 311 311 311 313 316 317 315 309 313 313 314 313 313 315 315 313 311 311 309 305 304 303 303 301 300
295 296 297 298 299 299 300 303 307 310 311 315 313 310 309 310 310 310 311 310 310 313 317 318 318 315 312 309 309 311 309 315 316 317 315 313 310 306 304 304 303 301 301 299
295 295 296 297 298 299 300 310 310 310 310 312 313 311 310 308 308 308 309 310 311 313 317 318 316 311 315 316 319 315 309 308 311 315 309 307 306 305 305 303 302 301 299 298
295 296 297 297 298 299 301 307 306 308 310 312 311 313 310 308 308 308 309 309 311 313 316 317 316 314 314 317 316 314 310 307 308 307 307 308 308 307 303 302 301 299 297 296
295 297 297 298 299 300 302 307 308 308 309 310 310 311 311 309 313 313 309 312 312 313 315 313 315 312 312 317 314 312 308 305 305 305 305 307 304 302 301 300 300 298 297 295
297 298 299 299 301 303 308 309 309 309 309 311 309 311 313 308 312 311 311 311 315 309 313 314 313 315 316 315 312 310 307 308 305 302 302 303 303 302 300 299 299 298 296 294
298 300 302 304 305 306 309 309 309 306 306 308 312 308 313 309 311 310 312 308 313 313 313 308 312 315 309 309 309 307 305 303 302 304 302 301 301 301 300 300 298 297 295 293
297 297 300 298 304 307 307 308 308 309 309 308 306 308 311 306 312 312 307 308 307 313 307 313 312 311 305 301 303 303 302 301 303 304 302 303 303 300 298 297 296 295 294 293
297 297 296 298 303 305 308 308 306 309 311 308 311 309 307 306 306 311 308 310 307 310 302 310 310 305 300 300 302 301 300 301 302 301 300 299 299 298 297 296 294 292 291 290
297 297 296 300 302 307 310 310 310 310 304 304 305 307 306 306 305 305 307 311 312 301 306 308 303 299 298 297 298 298 298 298 297 296 297 296 296 296 296 293 292 291 290 288
298 299 303 303 306 307 306 305 304 299 300 303 305 304 306 305 307 305 311 305 302 302 305 302 296 296 297 296 296 298 297 295 295 295 295 294 294 292 292 292 291 290 287 286
299 298 303 305 300 298 297 297 299 299 301 301 303 303 304 304 305 302 302 304 305 304 304 298 290 288 289 295 295 294 294 293 293 293 293 292 292 291 290 289 289 287 286 285
296 298 300 298 299 300 299 299 300 298 301 299 301 304 305 307 301 301 299 300 303 305 295 288 282 292 292 292 292 292 292 292 293 293 293 292 291 290 287 287 287 286 285 284
297 296 293 295 295 297 297 298 301 300 301 306 303 306 309 295 294 296 296 300 301 290 289 286 284 286 291 290 291 291 292 292 292 292 291 289 288 287 287 284 282 283 283 283

GFSNW_925_thetae_039.txt.gz
Theta_e
299 299 299 299 301 303 302 304 306 305 308 305 302 310 309 312 311 310 310 310 310 311 311 312 312 312 308 306 307 311 309 311 309 308 308 309 310 312 312 315 316 314 314 312
299 298 298 299 300 303 302 303 304 308 306 307 308 310 311 312 312 311 310 311 311 312 312 314 312 312 309 307 308 309 309 313 312 307 311 310 313 312 312 313 313 315 314 311
299 298 298 299 301 303 304 304 306 305 305 305 308 311 311 313 311 311 310 311 311 312 314 313 313 313 312 308 308 310 309 312 309 312 311 313 315 315 312 313 315 313 314 311
299 298 297 298 300 302 304 304 305 306 308 308 310 311 311 313 312 310 310 311 311 312 314 313 314 312 311 310 310 311 311 315 313 312 313 314 315 315 315 314 313 315 312 312
298 299 297 298 300 301 303 306 305 307 307 308 311 312 311 312 311 311 312 311 312 312 313 312 314 312 312 312 312 311 312 316 316 316 316 316 318 318 316 317 314 314 313 313
298 298 298 298 300 302 302 303 305 306 309 309 312 312 310 311 311 310 309 311 311 312 312 311 311 312 311 312 315 314 315 316 318 318 317 319 325 321 318 317 314 314 315 313
298 298 298 298 299 302 302 303 305 306 311 311 311 311 311 311 310 313 312 310 312 312 311 312 313 312 312 313 312 313 315 315 317 319 320 324 320 318 319 318 316 314 313 311
298 298 298 297 299 301 302 302 305 308 313 310 311 311 310 311 311 312 312 312 311 312 313 315 316 315 315 314 313 313 313 315 321 323 324 320 318 314 319 319 319 315 314 312
298 298 298 296 298 301 302 302 304 307 312 312 310 310 310 311 313 313 313 312 311 312 314 316 319 310 313 314 316 311 313 313 318 320 324 325 317 313 314 314 324 315 313 314
298 298 297 298 298 300 301 301 305 308 312 309 310 310 311 312 313 314 313 313 314 313 315 318 317 313 314 317 317 322 318 316 317 320 323 317 315 311 314 319 321 311 314 315
298 296 298 299 300 300 300 301 307 307 309 309 311 310 310 311 312 314 311 312 312 314 315 317 316 313 312 315 313 318 320 322 321 320 321 319 312 310 314 311 310 311 311 313
296 296 297 299 299 300 300 302 302 306 309 309 311 311 310 310 310 311 310 312 312 313 315 312 313 311 310 312 316 311 317 315 315 315 316 312 311 312 310 309 309 309 308 307
295 295 296 297 298 300 300 301 301 308 310 309 309 310 311 311 311 311 313 311 311 313 312 314 316 318 308 313 313 313 312 310 316 316 315 312 312 309 307 305 306 303 303 302
295 297 296 296 297 298 300 300 300 302 308 309 309 310 310 310 311 311 311 311 311 311 312 316 317 315 310 312 311 313 311 311 314 315 313 312 310 308 306 304 303 301 299 298
295 295 295 296 297 297 299 300 304 305 310 314 313 310 309 309 310 311 311 311 311 312 315 317 317 315 311 307 308 310 309 313 316 317 314 312 310 307 304 304 302 300 299 297
295 296 296 296 297 298 299 306 308 308 309 310 313 311 310 308 309 309 310 310 310 312 316 318 315 310 313 318 315 313 308 308 310 314 308 306 305 305 303 302 300 299 297 295
295 296 297 296 297 298 300 305 304 306 305 311 311 311 310 308 308 309 309 309 311 312 315 316 316 314 313 315 316 314 311 309 307 307 306 308 306 307 302 301 299 297 295 294
296 297 298 298 298 299 300 304 306 304 308 309 310 311 311 308 312 313 308 311 311 313 314 313 315 312 313 318 314 312 308 306 306 305 305 307 304 302 300 299 298 297 295 294
296 299 299 299 299 302 305 308 309 309 308 311 309 311 313 307 311 311 311 311 315 310 314 314 312 315 317 315 312 312 308 307 305 302 303 303 303 301 300 299 299 297 295 293
297 300 302 304 303 303 307 308 309 306 306 307 311 309 312 308 311 311 311 308 312 313 312 307 312 315 311 308 308 306 305 303 302 303 303 301 301 301 300 300 299 297 294 292
297 297 299 298 302 306 307 307 308 308 308 308 307 306 309 306 312 312 306 308 307 313 309 311 312 311 306 300 302 302 302 301 302 303 304 303 303 301 298 296 295 294 293 291
296 297 297 297 302 305 307 307 305 308 310 307 309 309 307 306 305 308 307 310 307 311 301 309 310 306 300 299 300 299 300 301 301 301 300 300 299 298 296 295 294 292 290 289
296 297 296 300 301 306 310 310 310 309 305 303 305 307 307 306 305 306 308 311 310 300 307 308 305 300 298 298 298 298 298 298 297 296 296 296 296 296 294 292 291 290 289 287
298 299 301 303 306 305 306 301 297 297 300 303 304 304 305 305 306 305 311 305 303 306 306 302 296 295 297 296 296 297 297 296 295 295 295 294 294 292 292 291 290 289 287 286
299 298 301 302 299 299 297 296 298 298 300 301 303 302 304 304 306 302 304 306 307 303 303 297 289 287 287 295 295 294 294 293 293 293 293 292 292 291 290 290 289 288 286 285
297 298 297 298 299 300 299 299 300 297 301 299 301 304 305 307 304 304 304 300 303 302 294 288 281 292 292 293 293 292 292 291 292 292 291 291 291 289 287 287 286 285 285 284
297 297 293 295 293 296 297 297 299 300 301 305 303 307 306 297 300 300 296 300 301 294 287 289 286 286 291 290 290 291 290 291 291 292 291 289 287 286 286 284 283 283 283 282

GFSNW_925_thetae_042.txt.gz
Theta_e
300 299 299 298 300 301 303 303 305 304 305 306 304 312 309 311 310 311 312 311 312 312 312 313 313 314 312 309 311 314 311 311 312 312 310 310 310 312 312 316 317 315 316 317
299 299 299 298 300 301 303 304 302 306 306 310 310 310 312 312 312 312 312 313 313 312 312 315 313 312 310 309 310 312 311 312 315 316 314 310 312 312 312 314 314 317 318 317
299 299 299 298 299 301 304 304 306 305 306 307 311 312 313 314 312 311 312 312 312 313 313 313 314 314 312 310 310 310 310 313 315 318 314 314 316 315 314 313 317 316 318 315
299 299 299 298 299 300 303 301 304 306 310 309 310 312 312 313 313 312 311 312 313 313 315 314 314 313 312 311 309 311 311 316 313 313 313 314 316 316 316 316 314 316 316 315
299 299 299 298 299 301 302 302 303 305 308 309 310 312 313 313 312 312 313 313 312 312 313 313 314 312 312 314 312 312 312 315 315 316 314 316 318 319 320 320 320 317 316 316
299 298 299 298 299 301 302 302 303 305 308 309 312 312 312 312 312 311 312 312 312 313 312 312 311 312 312 313 314 313 314 313 316 318 316 318 325 322 321 320 316 316 319 315
299 299 299 297 298 300 302 302 303 306 311 310 311 311 311 312 312 314 312 311 312 312 312 312 312 311 312 312 313 313 315 315 318 320 319 325 320 319 319 320 319 315 315 315
298 299 298 298 299 300 301 301 303 307 311 310 311 311 312 312 311 312 313 312 311 312 313 315 316 316 315 314 314 313 313 315 319 321 321 319 319 318 318 321 321 319 318 316
298 298 297 299 300 301 300 300 302 305 308 311 309 311 311 313 314 314 313 313 313 313 314 316 320 318 316 315 318 312 313 313 317 318 320 323 321 316 315 317 327 315 316 317
298 296 297 299 300 301 301 300 303 305 310 310 310 312 313 312 314 315 314 314 315 313 315 317 317 316 313 317 318 319 317 317 317 316 320 320 318 313 316 323 324 313 314 317
296 296 296 297 298 299 300 300 303 303 310 312 312 312 313 313 314 315 313 313 312 314 315 317 318 317 315 317 317 319 319 320 318 318 323 323 315 316 320 315 314 313 313 314
294 295 296 297 297 298 300 300 300 301 305 312 310 311 310 310 311 313 311 313 312 313 314 314 317 316 315 317 318 314 319 319 320 319 320 317 314 316 314 312 313 312 310 310
295 296 297 296 296 297 298 300 300 303 310 313 312 312 310 311 311 310 313 311 312 312 313 315 316 317 315 320 319 318 317 315 319 320 319 318 316 312 310 308 309 306 305 307
295 295 296 296 296 297 298 299 299 300 305 313 311 310 310 310 311 311 311 312 311 311 312 314 317 318 313 318 316 317 317 315 319 319 319 318 314 311 309 306 304 302 301 302
295 296 297 297 296 297 297 299 301 301 307 313 313 310 309 309 310 311 311 311 312 313 313 314 317 317 313 313 313 317 315 319 320 321 317 316 313 308 306 306 303 301 300 299
295 295 296 296 296 297 298 307 305 304 304 311 313 311 311 309 309 310 311 310 311 312 314 316 316 314 317 320 320 318 314 313 315 318 311 310 308 307 305 304 301 299 298 297
294 296 297 296 296 297 299 305 304 304 302 311 313 312 310 309 309 309 309 309 311 312 314 316 317 316 315 318 318 317 315 314 312 310 310 311 309 309 304 302 299 297 296 295
295 297 298 298 298 298 299 303 307 303 304 310 312 313 311 308 312 313 309 311 311 311 314 314 316 313 314 318 318 316 313 311 309 309 308 308 305 302 300 299 298 297 296 294
295 298 299 299 299 301 304 306 308 307 308 312 311 314 315 308 311 311 311 311 315 311 314 315 312 316 318 319 317 315 313 312 310 306 306 305 304 301 300 299 299 298 296 294
296 299 302 305 303 301 305 307 309 307 307 309 312 310 313 311 312 313 312 310 313 314 314 309 313 316 316 311 309 310 309 307 305 307 305 303 303 302 300 300 298 297 295 293
296 298 299 298 302 305 307 308 309 308 309 310 309 309 312 308 313 313 309 310 308 316 311 312 315 315 311 304 304 304 305 305 305 306 305 305 305 303 302 299 297 295 294 292
295 297 297 297 301 305 308 308 306 308 311 309 310 310 309 309 306 311 309 311 309 313 304 310 312 311 304 302 303 303 303 304 304 303 304 305 303 301 300 298 296 294 291 289
296 297 297 302 302 307 309 311 310 310 308 305 306 310 308 308 307 308 310 312 312 303 310 310 311 306 301 300 301 301 301 302 301 301 301 301 300 298 297 295 293 291 290 289
298 300 301 303 307 307 305 304 302 301 301 303 306 306 308 306 308 307 312 307 305 311 310 312 307 299 298 298 298 300 300 300 300 299 299 298 297 296 294 293 292 290 289 287
299 299 301 302 301 300 300 298 299 300 301 302 304 304 305 307 308 305 306 309 311 308 311 309 301 294 293 297 298 299 298 298 298 297 297 296 294 294 293 292 291 289 288 287
297 298 300 298 300 301 300 300 301 300 302 299 301 306 309 311 308 308 311 308 309 311 305 300 293 295 296 297 296 296 295 296 295 295 295 294 293 292 290 289 288 287 286 285
298 298 295 296 295 297 298 298 299 298 301 305 304 308 312 302 308 308 304 306 309 302 298 293 292 293 294 294 294 294 294 294 294 293 293 291 289 288 288 287 286 285 285 284

GFSNW_925_thetae_045.txt.gz
Theta_e
300 300 300 300 300 301 302 303 306 306 305 307 307 311 311 311 311 312 312 312 312 312 312 313 314 314 314 312 313 314 312 313 315 314 311 311 312 313 313 316 316 316 317 318
300 300 299 300 299 302 303 305 302 306 306 312 312 311 312 312 312 312 313 313 313 312 313 314 314 314 312 311 313 314 312 314 316 318 314 312 312 312 312 314 315 318 319 318
299 299 299 299 299 302 303 302 308 306 306 309 310 312 313 315 312 312 313 314 313 314 315 314 315 315 312 311 311 311 312 313 316 320 317 315 316 315 315 314 317 317 318 316
299 299 299 299 299 301 302 300 305 305 311 311 312 312 313 314 313 313 313 313 314 315 315 315 315 314 314 312 311 311 312 316 314 314 313 313 315 317 317 318 316 317 316 316
299 299 300 298 299 300 302 304 304 304 310 310 311 311 315 314 313 313 313 314 313 313 314 313 315 315 313 314 312 312 312 315 314 315 314 315 319 318 318 320 321 320 320 319
299 299 299 298 300 300 302 302 302 305 309 310 312 311 312 312 313 312 312 313 313 313 313 312 312 312 313 314 314 314 314 314 316 317 316 317 324 323 322 321 320 320 320 318
299 299 298 299 300 301 302 302 302 306 311 311 311 310 312 312 313 313 312 312 313 313 312 312 312 312 313 313 313 313 315 315 315 317 318 325 319 319 319 320 320 320 319 318
299 298 297 299 300 301 302 302 302 306 310 310 310 311 311 312 312 314 313 312 313 313 314 315 316 316 316 315 314 314 314 316 318 318 318 317 317 319 318 321 322 317 319 320
298 297 297 298 299 299 301 302 302 305 307 311 310 310 312 313 313 314 314 313 313 313 314 315 318 319 316 317 316 314 313 314 317 317 319 319 320 318 315 318 327 318 316 319
295 296 296 297 297 298 299 301 302 304 307 311 311 312 312 312 313 315 314 314 315 313 315 317 318 317 314 317 318 317 315 316 316 314 318 316 316 316 317 323 324 316 314 315
295 295 296 298 297 297 298 300 302 302 306 310 311 311 313 312 314 315 314 314 313 314 316 317 317 317 316 315 316 318 318 317 317 319 320 320 317 319 322 319 316 315 314 313
295 295 296 297 297 297 298 301 300 300 303 309 311 312 312 312 312 315 313 315 313 314 315 314 316 316 316 315 317 316 319 318 322 317 318 317 317 317 317 315 315 314 312 312
296 296 296 296 297 297 298 299 298 302 309 314 313 314 312 312 312 312 314 313 312 312 312 315 315 319 316 318 318 317 317 316 319 319 320 319 319 318 313 311 311 309 307 310
295 296 295 297 297 297 297 299 299 299 303 313 314 311 312 311 312 312 312 312 311 312 312 314 315 316 316 317 317 319 318 317 319 319 319 320 315 313 311 308 306 305 304 306
295 295 295 296 297 297 297 298 299 300 304 312 314 312 311 310 310 311 311 311 312 312 313 313 315 316 315 316 316 318 317 318 321 320 318 318 316 311 309 308 304 303 303 304
295 295 296 297 297 296 298 306 303 302 303 309 314 312 312 310 310 311 311 312 312 312 313 313 315 316 317 320 319 317 317 317 317 318 314 313 311 309 307 305 302 301 301 301
294 295 297 297 296 296 298 304 301 303 301 310 313 314 311 309 309 310 310 310 311 312 313 314 315 317 316 317 318 316 317 316 316 314 313 313 310 311 305 301 299 298 298 298
295 296 299 298 297 297 299 301 303 303 304 309 313 314 312 309 312 313 309 311 310 311 313 315 317 315 316 318 317 316 316 316 315 312 311 311 309 305 303 300 299 298 297 296
295 297 298 299 299 300 302 304 306 305 307 312 312 314 316 309 312 312 310 311 313 311 313 315 313 317 317 317 318 318 316 314 314 309 309 307 306 302 300 299 299 298 297 295
296 299 302 305 303 301 303 305 308 308 308 310 313 312 314 312 313 314 313 310 314 314 313 309 313 316 315 316 314 313 312 311 309 308 306 305 303 302 300 300 299 298 296 295
298 299 300 298 301 304 307 309 309 310 310 310 311 309 313 310 314 314 310 311 309 315 312 312 317 317 314 307 307 307 308 308 308 309 309 306 305 303 301 299 298 297 295 293
295 296 297 297 302 305 308 309 308 309 311 310 311 310 310 310 309 310 310 312 311 314 307 311 313 313 306 304 304 305 305 306 307 305 306 306 306 304 302 298 297 296 293 291
296 298 298 302 303 308 310 311 310 311 308 306 306 311 309 309 308 308 311 311 313 306 310 312 313 309 303 302 302 304 303 304 304 304 305 306 305 303 301 298 295 292 291 291
300 301 303 304 308 307 306 306 305 303 302 304 306 307 308 308 311 311 313 310 307 313 312 313 311 302 299 301 301 302 303 302 302 302 302 302 301 300 298 296 293 292 291 288
300 300 303 303 302 301 299 300 301 302 302 303 306 306 306 310 310 308 309 311 313 311 314 314 305 298 297 300 300 302 302 301 301 300 300 299 297 296 294 293 292 290 289 289
298 298 301 300 301 303 302 301 303 302 302 301 302 306 310 312 311 310 313 310 312 315 310 303 299 298 299 298 298 298 298 299 299 299 298 297 296 295 293 292 290 289 288 287
299 300 296 298 299 300 300 299 300 298 301 306 304 308 312 305 311 311 309 309 307 301 299 298 296 294 294 294 296 296 296 297 297 296 296 295 293 291 290 290 289 287 287 286

GFSNW_925_thetae_048.txt.gz
Theta_e
300 300 300 300 299 302 303 301 305 305 304 305 305 311 309 310 312 313 312 312 312 312 312 313 312 313 314 312 312 313 312 314 316 313 311 311 313 313 312 309 309 311 311 314
300 300 299 300 299 302 303 304 304 304 305 306 307 310 312 310 313 313 313 313 312 311 312 314 314 313 311 312 313 314 312 314 313 315 313 311 311 312 312 312 312 312 315 313
300 300 300 299 300 302 302 304 307 306 305 307 309 311 311 314 312 314 313 313 312 312 314 313 315 313 312 311 313 313 312 314 312 314 316 315 312 313 312 313 316 314 315 313
300 299 299 299 300 301 302 302 305 305 310 310 311 312 312 313 314 313 313 314 314 313 314 314 314 314 313 312 312 310 312 313 313 313 313 312 313 314 314 315 314 315 314 315
299 299 298 299 300 301 303 304 303 303 308 310 311 312 313 314 313 314 313 315 314 314 315 315 314 313 313 313 311 312 312 313 313 311 312 313 314 314 314 316 317 319 320 321
299 299 298 300 301 301 302 301 302 305 309 311 312 313 313 313 312 313 313 313 313 314 314 312 312 312 312 313 312 313 314 313 315 316 314 315 319 318 318 321 321 321 323 320
299 298 297 298 299 300 301 302 302 306 309 311 311 310 312 314 314 313 312 312 314 313 312 311 311 312 313 313 313 312 314 314 315 314 314 322 316 319 319 319 320 320 319 319
296 297 297 297 298 299 299 302 302 305 308 310 311 311 311 313 314 313 313 313 313 312 313 315 315 316 315 314 313 313 313 316 319 317 315 315 318 319 318 319 322 318 317 319
296 295 296 297 298 298 298 301 302 303 307 310 310 311 311 314 314 314 315 313 312 313 314 315 316 316 315 318 315 313 313 314 317 316 317 318 317 316 315 317 324 318 317 317
296 296 296 297 298 298 298 299 301 303 307 307 310 311 312 312 313 315 315 314 314 312 315 317 316 315 313 315 319 318 316 316 318 316 317 314 312 316 316 326 322 317 315 315
296 296 296 296 297 297 297 298 301 301 305 306 310 311 313 311 313 315 314 313 313 313 316 316 316 315 314 315 315 314 314 315 315 315 317 316 315 316 321 318 316 316 314 313
296 296 296 296 297 297 297 299 299 298 302 306 308 311 312 312 312 314 313 314 313 314 314 315 316 315 314 315 316 314 318 314 315 315 314 312 315 315 315 313 313 313 312 312
296 296 296 296 297 298 298 297 298 300 305 310 312 313 312 312 312 312 314 312 312 312 312 314 314 315 315 317 316 317 315 313 316 317 317 315 315 313 311 309 308 307 307 310
296 295 296 295 296 297 298 298 298 299 302 311 314 311 312 312 312 312 312 312 311 311 312 313 315 315 314 315 315 317 316 316 316 316 315 315 313 311 309 307 305 304 304 307
296 295 295 295 296 296 297 297 298 299 302 311 312 311 311 311 311 312 311 311 311 312 313 313 313 314 314 315 314 315 314 316 317 319 315 316 312 309 308 306 303 303 304 305
295 295 295 296 297 296 297 302 302 301 300 307 313 312 311 310 310 310 311 311 311 312 313 312 313 313 316 318 317 314 313 313 314 316 313 310 308 306 304 303 301 301 301 301
295 295 296 297 297 296 297 302 300 301 300 307 311 313 311 310 309 310 310 310 310 312 312 312 314 315 315 316 316 314 312 315 315 312 311 312 308 306 300 299 298 298 298 298
295 295 297 298 297 296 297 299 300 300 301 307 311 311 311 309 312 312 309 310 310 310 312 312 315 314 315 317 314 313 313 314 313 312 310 309 304 301 299 297 297 296 295 295
295 296 298 297 298 299 302 302 304 304 305 311 310 311 313 308 311 311 310 309 310 309 312 313 313 315 316 315 314 314 314 314 311 307 306 304 303 300 298 298 298 296 295 294
298 300 301 304 302 301 302 303 306 306 308 309 311 311 313 311 312 313 313 311 312 311 312 309 313 315 313 312 309 309 309 309 307 307 306 304 300 300 299 299 298 296 295 294
297 298 300 299 301 303 306 309 309 309 309 310 310 309 311 309 312 313 309 310 307 312 310 311 314 315 310 303 303 304 304 305 307 307 307 303 302 301 300 298 297 295 294 291
295 295 296 298 301 304 307 308 307 308 310 309 310 309 309 310 308 310 309 309 308 313 307 310 312 310 304 301 301 302 301 303 306 304 306 305 303 301 300 298 296 294 291 289
297 298 298 302 303 307 309 311 309 309 306 303 304 308 308 308 307 308 309 311 311 305 310 312 309 304 300 299 300 300 301 302 303 303 305 306 303 301 298 297 294 291 290 290
299 300 304 303 307 306 305 306 305 303 302 303 305 306 307 307 309 309 311 309 305 311 312 312 305 298 296 297 299 301 302 301 301 302 302 302 301 299 297 294 292 291 290 288
299 299 303 303 301 301 299 299 300 301 301 302 305 303 304 307 308 307 306 310 312 311 310 307 298 295 295 297 297 298 299 299 299 300 299 298 297 296 294 292 291 289 288 288
297 298 300 300 300 301 300 299 300 300 301 300 301 305 308 308 309 309 310 310 311 309 300 297 295 294 294 294 294 295 295 296 297 297 297 296 294 293 292 291 289 289 288 287
298 297 296 296 298 300 300 299 299 298 300 304 303 308 309 303 308 309 307 309 302 293 295 292 292 292 292 291 292 294 294 295 295 296 295 294 293 291 290 289 288 288 287 286

GFSNW_925_thetae_051.txt.gz
Theta_e
301 300 300 299 301 302 303 300 304 303 304 302 304 309 309 305 309 312 313 311 310 311 313 313 313 313 312 310 310 312 312 313 312 310 309 310 311 312 310 302 303 303 309 312
300 300 300 299 301 303 302 304 305 304 303 303 304 308 308 307 313 314 314 312 311 311 312 313 312 312 311 311 311 312 311 313 312 315 312 312 311 313 310 308 307 303 309 310
300 300 299 300 301 303 301 303 304 304 304 305 309 310 309 311 312 314 313 312 311 312 313 313 314 312 312 311 313 314 311 312 306 310 312 311 309 311 309 312 310 311 309 311
300 299 298 300 300 301 302 302 305 303 309 308 310 310 311 313 315 313 312 311 313 314 315 315 314 313 312 311 312 311 311 308 311 311 311 312 312 311 311 307 311 313 312 312
299 299 298 299 299 300 302 304 303 304 305 309 311 311 312 314 313 313 313 313 314 312 314 313 314 313 312 312 310 310 310 308 311 308 311 312 312 312 312 312 312 313 313 314
297 297 298 297 299 299 301 302 302 304 307 310 311 310 311 314 312 312 311 311 313 314 313 310 310 309 310 310 310 311 312 310 310 310 312 313 313 314 313 313 314 316 320 319
296 296 296 297 299 298 299 301 302 305 306 310 310 311 312 313 314 312 311 312 313 312 310 310 309 310 310 310 309 310 313 312 310 309 312 319 315 315 316 316 317 319 320 320
297 296 296 297 299 298 298 299 302 304 307 308 309 310 313 313 311 312 313 312 311 310 312 314 315 315 314 313 312 313 312 312 317 315 316 312 316 319 317 317 320 319 319 317
296 297 296 296 297 298 297 299 301 303 307 305 306 310 310 312 312 312 313 311 310 311 312 313 314 314 314 316 315 312 313 313 314 313 313 315 318 316 315 316 324 318 317 317
296 296 296 297 297 297 297 298 299 302 306 305 307 308 309 312 311 312 313 313 312 310 313 315 310 313 312 316 315 317 316 315 317 312 314 313 310 314 315 321 318 315 315 317
296 296 296 296 296 297 298 296 300 299 303 303 306 310 312 310 310 312 312 310 311 312 312 314 315 313 312 313 312 313 313 313 314 314 316 312 311 315 319 315 314 316 314 313
296 296 296 296 296 297 298 297 297 298 300 303 304 307 310 311 311 311 312 313 311 313 314 313 315 312 311 313 314 310 315 310 313 311 311 308 311 314 311 311 311 311 312 310
296 296 296 296 296 296 297 297 296 299 303 307 308 310 312 312 312 312 313 312 310 310 311 312 312 315 312 315 313 313 312 309 314 314 315 312 311 310 309 307 307 306 306 308
296 296 295 295 295 296 297 298 297 298 299 307 312 311 311 311 312 312 312 310 310 309 310 312 314 315 311 314 312 313 313 312 313 314 314 313 311 310 308 306 303 303 303 306
296 295 295 295 295 297 296 296 296 297 300 308 308 307 310 311 311 311 311 309 308 308 312 314 314 313 313 310 311 311 311 313 316 317 315 314 312 308 306 305 303 303 304 303
296 295 295 296 297 296 296 299 302 299 299 306 311 310 310 310 310 310 310 309 310 311 312 313 312 311 314 316 317 312 310 310 311 314 311 309 307 304 303 301 300 301 301 301
295 295 295 297 297 297 297 301 300 301 300 306 310 311 309 309 309 309 310 310 310 312 312 312 313 312 314 314 315 311 311 310 311 311 309 310 305 305 299 299 299 298 297 297
295 296 297 298 298 297 296 297 299 298 300 305 310 309 307 308 312 311 309 310 310 310 311 311 313 311 312 314 311 310 310 311 310 310 308 308 302 298 297 296 296 295 295 294
295 297 297 297 297 298 300 301 303 303 302 309 308 308 309 308 311 311 310 308 310 308 311 312 313 313 315 314 312 313 311 311 310 305 303 302 301 298 296 296 295 294 294 293
298 300 300 302 301 300 301 302 305 304 306 307 311 309 309 309 311 311 312 310 311 310 311 309 313 314 312 304 303 303 304 305 307 309 307 303 298 297 297 297 296 295 294 292
296 297 298 298 299 302 303 307 308 308 308 309 309 309 310 308 311 312 309 309 306 312 310 311 311 314 307 300 300 300 300 300 301 304 306 303 301 299 298 297 296 295 293 291
294 295 296 297 301 304 307 308 305 307 310 308 309 309 308 308 307 310 309 308 306 312 307 310 311 307 299 297 298 299 300 299 302 304 305 303 301 299 298 297 295 293 290 289
297 298 297 302 302 306 309 310 308 308 306 303 303 307 307 307 306 308 308 310 311 305 309 311 307 300 298 296 297 298 299 299 301 302 305 303 301 300 298 296 293 290 289 288
298 299 299 302 305 305 305 305 304 301 301 302 304 305 307 306 308 308 311 309 305 309 311 311 302 297 296 296 296 297 299 300 300 300 302 303 300 298 296 294 291 290 289 288
296 298 301 302 300 299 299 297 299 299 300 302 304 302 302 304 307 306 305 308 310 310 309 303 297 294 293 294 293 295 296 297 298 298 298 298 296 294 292 291 291 290 288 287
295 297 299 298 298 300 299 298 299 298 299 299 300 304 306 305 307 308 309 308 310 306 298 295 293 293 293 292 292 293 294 295 295 296 296 295 294 293 291 290 289 288 287 286
297 295 296 296 297 299 299 299 299 297 299 303 302 307 308 303 307 308 305 307 299 294 293 288 290 290 290 290 291 292 292 293 293 294 294 294 292 290 289 288 289 288 287 286

GFSNW_925_thetae_054.txt.gz
Theta_e
301 300 299 300 302 303 302 301 304 303 304 301 302 307 309 304 307 311 314 310 311 312 311 312 311 311 311 308 309 311 311 310 313 315 310 309 310 311 307 302 301 299 309 309
300 300 299 300 301 303 301 304 302 303 303 306 306 306 307 306 311 314 314 311 310 310 311 313 311 310 310 309 309 311 310 311 309 311 310 311 311 310 309 305 303 301 305 308
300 299 299 299 300 302 301 298 301 301 302 304 308 308 308 312 311 313 312 310 310 310 313 311 312 313 313 310 311 314 311 309 305 308 309 308 306 310 309 310 305 307 306 308
297 298 298 298 300 301 302 302 304 303 306 308 309 310 312 314 315 311 311 311 312 313 315 313 313 312 312 311 313 311 309 308 307 309 310 311 311 309 309 309 310 308 310 309
297 296 297 298 299 300 302 304 304 303 306 309 310 311 313 314 313 313 313 314 313 312 314 313 313 311 311 312 310 311 309 306 310 307 309 311 311 311 310 310 309 310 310 310
297 297 297 298 299 298 300 302 302 303 306 308 311 311 312 313 312 312 312 313 313 313 312 310 309 308 308 309 309 310 310 308 309 309 310 311 311 312 311 311 310 312 314 313
296 297 297 297 299 298 298 299 302 305 304 307 309 310 311 312 312 312 313 312 312 312 309 309 309 309 308 308 308 308 310 310 310 308 310 316 312 312 311 311 312 312 315 318
296 296 297 297 297 298 297 300 302 304 304 304 307 309 312 311 311 312 313 312 310 309 310 312 313 313 313 313 310 311 309 309 315 315 313 310 315 318 317 317 317 316 319 319
297 296 296 296 297 297 297 301 300 303 305 303 305 307 309 312 310 311 313 311 309 309 311 312 312 313 313 315 315 312 313 313 312 314 310 313 315 315 314 316 319 316 317 317
296 296 296 296 297 297 298 298 299 300 305 305 306 307 310 311 310 309 311 312 311 308 310 312 309 312 312 315 314 316 316 316 317 313 314 310 308 309 314 319 315 315 315 315
296 296 296 296 296 296 298 297 299 299 302 302 303 307 310 310 309 310 309 308 309 309 310 313 313 311 311 312 312 314 313 314 315 313 314 311 308 314 319 314 312 315 313 312
296 296 296 296 296 296 297 296 297 296 299 301 302 304 307 309 310 309 309 311 310 312 313 312 314 312 310 311 312 309 314 308 309 310 310 307 308 312 311 309 310 310 311 309
296 296 296 296 295 295 296 297 297 299 301 304 305 308 310 311 310 311 310 310 310 310 310 311 311 312 310 315 311 311 309 308 312 312 314 310 309 308 309 307 307 305 306 306
296 296 296 295 295 295 296 297 297 297 298 305 309 310 310 311 312 311 311 309 308 307 308 311 312 314 308 311 310 311 311 310 312 312 312 312 311 310 308 306 303 303 303 305
295 296 295 295 294 295 296 297 296 296 300 306 308 306 308 311 310 311 310 308 306 307 311 312 313 312 312 308 309 309 308 311 313 315 314 315 313 308 306 305 303 302 304 305
296 296 295 295 295 296 296 297 300 297 297 303 309 308 309 309 309 310 309 307 307 310 312 313 312 311 312 314 315 310 309 308 310 311 310 309 308 305 303 302 301 301 302 302
296 295 295 296 297 297 296 300 300 298 299 304 309 310 309 308 309 309 309 310 310 311 312 312 312 311 313 314 312 310 310 309 308 309 309 310 306 307 300 299 299 299 298 300
295 296 297 298 297 298 297 296 297 297 299 303 309 309 306 308 311 311 309 310 309 310 311 311 312 311 312 314 309 308 308 310 309 306 306 305 300 298 297 296 296 296 295 294
295 298 297 296 296 295 298 300 301 299 301 307 309 308 304 308 311 310 310 309 310 307 310 311 312 313 314 309 306 306 305 306 307 306 303 301 302 298 296 295 295 295 293 292
297 299 299 299 299 300 300 302 304 303 304 304 310 308 308 308 310 311 312 309 309 309 310 309 312 311 305 300 300 301 299 300 301 305 307 304 300 298 296 295 294 294 293 291
295 295 298 297 299 300 303 306 307 307 307 308 308 308 310 307 310 311 309 308 306 311 309 310 310 312 302 298 296 296 297 297 298 299 301 304 303 299 297 296 295 294 292 290
294 294 296 297 300 303 305 306 305 307 309 308 309 308 307 307 307 309 309 307 305 311 306 308 311 306 298 296 296 296 298 300 299 300 301 303 303 300 298 297 295 293 290 289
297 298 297 301 302 305 306 307 308 308 306 303 303 307 307 307 306 308 307 309 311 305 309 311 307 299 296 295 295 295 297 298 299 299 303 302 300 299 297 295 292 290 289 289
298 298 300 301 304 304 305 305 304 301 301 302 304 304 306 306 307 308 310 309 305 309 310 309 300 296 294 294 293 294 296 297 298 299 300 302 300 298 296 294 291 290 289 288
296 298 300 301 299 299 298 297 299 299 299 302 304 302 303 304 306 306 306 308 309 309 309 300 295 293 293 293 292 293 294 295 296 297 297 299 297 296 294 293 291 290 288 287
295 296 298 298 298 300 299 298 299 297 299 299 300 304 306 306 306 307 308 308 309 305 298 293 292 292 291 291 291 292 292 292 294 294 295 295 294 293 291 291 290 289 288 287
294 292 295 296 296 299 298 298 299 296 299 303 302 307 308 303 307 307 304 305 300 295 290 287 288 289 289 289 290 290 290 291 291 291 291 293 292 291 289 288 289 288 288 287

GFSNW_925_thetae_057.txt.gz
Theta_e
300 300 300 299 301 302 301 299 297 302 304 300 301 305 307 305 308 311 313 310 311 310 311 312 312 311 311 307 308 311 310 309 316 315 310 308 309 310 306 303 302 299 306 306
298 298 298 298 301 302 301 300 299 302 302 303 305 307 309 307 311 313 313 310 310 310 310 312 310 310 309 308 309 310 309 307 304 313 311 311 311 310 305 303 300 298 303 306
298 297 297 298 300 301 301 297 300 300 299 303 307 308 311 313 309 310 310 309 309 310 312 310 311 312 312 308 309 312 309 307 304 307 308 308 305 310 307 309 306 305 305 306
297 298 297 298 300 300 301 300 302 304 307 305 309 311 313 312 312 310 310 311 311 313 313 312 312 312 311 310 314 309 308 307 307 308 309 310 309 309 309 308 308 305 308 308
297 297 297 297 299 298 302 304 303 304 306 308 309 310 312 314 312 312 313 312 312 311 313 312 312 311 310 312 309 310 307 306 308 306 308 309 311 310 309 309 310 310 310 310
297 296 297 297 298 298 299 301 302 303 303 304 309 310 311 312 312 313 313 312 312 312 311 309 308 307 307 308 309 309 310 307 308 306 308 310 310 310 310 310 308 310 312 311
297 296 296 297 297 298 298 299 301 302 303 303 305 307 310 312 311 313 312 311 312 311 309 308 308 308 307 307 307 307 308 308 310 310 309 317 310 308 310 310 310 309 311 311
297 296 296 296 297 297 297 298 302 304 304 302 305 307 311 309 310 312 312 311 310 308 309 311 312 313 312 313 310 309 307 309 313 315 312 309 314 315 311 312 316 311 311 313
297 296 296 296 296 297 297 298 299 302 305 302 304 307 307 310 309 310 312 310 308 308 309 310 312 314 313 315 314 312 310 312 311 313 312 312 311 314 313 314 319 314 315 317
296 296 296 296 296 296 297 298 298 300 305 304 305 307 307 309 307 308 309 310 310 307 308 311 308 313 312 315 315 316 316 316 316 312 313 308 306 307 314 317 315 314 314 314
297 296 297 296 296 296 296 297 298 299 302 301 302 304 309 308 309 310 307 306 307 307 309 310 311 310 310 311 311 313 313 314 315 314 314 310 307 314 318 313 312 313 313 313
296 296 297 296 296 295 296 296 297 297 298 300 301 302 304 307 309 309 307 309 309 311 312 310 313 313 310 309 312 308 313 309 309 309 308 305 307 311 310 310 310 309 309 309
296 296 296 296 295 295 295 295 296 296 300 303 303 304 308 308 307 307 308 307 309 310 309 311 311 310 308 313 313 309 308 307 309 310 311 308 308 307 306 308 307 305 304 307
296 296 296 296 295 295 295 295 296 297 297 303 308 308 309 310 310 310 310 308 307 305 308 310 312 313 306 308 308 309 309 308 311 311 309 310 310 309 309 306 304 303 302 305
295 295 296 296 295 295 294 295 296 296 297 304 306 305 306 309 310 310 310 307 306 306 310 312 313 311 311 309 308 307 306 309 310 311 310 312 311 310 307 305 304 302 303 305
295 295 296 295 295 295 297 295 297 296 296 300 309 307 308 309 309 309 308 305 305 308 312 312 311 310 311 314 314 310 307 306 306 309 309 308 307 306 303 303 301 301 302 304
296 296 295 296 296 296 296 298 299 298 296 301 307 308 308 308 308 307 308 308 309 310 311 312 312 311 312 314 312 308 307 307 309 308 308 309 306 307 301 300 299 300 301 301
296 295 296 297 297 297 297 296 296 298 299 302 307 309 305 307 310 311 308 310 310 310 311 311 312 311 312 314 310 306 304 304 308 305 304 303 301 298 298 296 296 297 297 297
295 296 298 297 296 295 297 298 299 298 299 306 308 309 303 307 310 310 310 309 311 307 310 311 311 313 312 305 301 301 302 302 302 302 303 303 302 300 297 296 295 296 294 294
294 298 298 299 297 298 299 301 302 301 303 303 308 306 308 308 309 309 311 309 309 309 310 309 312 311 303 300 298 298 298 298 298 301 302 306 303 301 299 295 295 294 293 291
295 294 295 297 299 300 301 305 305 305 307 307 307 306 309 306 310 311 308 308 305 310 309 310 310 312 302 297 296 295 294 296 297 297 298 299 300 302 301 297 295 294 292 292
293 293 295 297 300 302 304 306 304 306 307 307 309 308 307 307 307 310 309 308 304 310 304 308 309 304 297 295 294 293 293 297 298 299 299 299 300 301 301 298 295 294 292 289
296 297 297 300 302 304 306 307 306 306 305 303 303 306 306 307 306 308 307 308 310 305 308 310 306 297 295 293 292 293 294 296 297 298 298 301 299 299 297 295 293 291 289 289
298 298 299 301 303 304 304 304 303 301 301 302 304 304 306 306 307 308 310 309 306 308 309 308 299 295 293 292 292 293 294 295 296 296 297 300 299 297 294 292 291 290 290 289
295 297 296 296 297 299 298 297 299 299 299 301 303 302 303 304 306 305 306 308 309 308 307 298 295 292 291 292 292 292 293 293 293 294 295 296 296 296 294 292 292 291 290 288
293 296 297 296 297 297 298 298 299 298 299 299 300 304 306 306 305 307 308 307 308 303 298 292 288 291 291 290 290 291 291 291 291 291 292 294 295 294 293 292 291 289 288 287
294 294 292 295 295 297 298 298 299 296 299 303 302 306 303 302 307 307 304 305 298 291 292 286 287 289 288 286 289 290 289 290 290 289 289 289 290 291 290 290 289 289 288 287

GFSNW_925_thetae_060.txt.gz
Theta_e
298 299 298 298 301 302 301 297 295 301 302 302 301 307 308 306 309 309 310 309 310 310 310 310 311 310 310 308 308 311 309 311 316 314 309 308 309 309 305 304 304 302 304 306
298 298 298 298 300 301 301 297 298 301 302 308 308 308 310 309 311 311 310 310 310 309 309 310 309 309 308 308 309 310 309 307 310 314 311 310 311 309 304 302 300 306 304 304
298 297 298 298 299 300 301 297 301 301 302 304 309 310 311 311 309 310 308 308 308 310 310 309 311 311 310 308 309 312 308 305 305 308 308 307 305 309 305 304 302 304 303 305
298 297 297 297 298 299 301 297 301 303 308 309 309 311 312 312 312 309 309 311 311 312 312 311 312 311 310 310 313 308 308 308 306 307 309 309 308 309 307 305 305 305 306 305
298 297 296 297 298 299 302 303 303 303 305 305 308 310 311 312 312 311 312 311 311 310 312 311 311 310 310 311 308 309 306 306 306 305 308 309 310 309 308 308 309 307 308 310
297 297 296 297 297 298 298 300 302 303 302 302 306 307 310 311 311 312 312 312 311 311 310 308 307 306 305 307 308 308 308 306 305 305 307 309 310 309 309 308 307 309 310 310
297 297 296 296 297 298 297 298 300 303 302 302 305 306 309 312 312 313 312 311 311 311 307 307 308 307 306 306 306 306 307 308 308 310 308 315 309 307 309 309 309 307 309 310
297 297 296 296 296 297 297 298 300 303 304 301 306 306 308 308 308 311 312 311 309 307 309 311 312 312 311 312 309 308 308 310 313 313 312 309 313 313 309 312 316 308 309 310
297 296 296 296 296 296 296 298 298 301 304 301 303 304 305 308 307 308 311 309 307 307 308 309 311 313 312 314 313 310 311 310 308 312 311 312 309 313 310 313 323 314 311 311
297 297 296 297 296 295 296 297 297 300 305 303 304 305 307 307 306 308 307 309 309 306 307 310 309 314 312 314 315 312 314 314 313 311 313 307 305 307 311 320 316 313 314 312
297 296 297 297 296 295 295 295 298 297 301 301 301 302 307 308 307 309 306 305 306 306 308 308 308 308 310 310 310 313 314 313 315 313 313 309 305 314 318 314 311 312 311 312
299 296 297 296 297 295 295 294 295 296 297 299 300 301 302 304 308 309 306 306 309 308 311 308 311 312 309 307 310 307 312 308 310 309 308 304 306 310 310 309 310 309 308 309
298 296 296 296 297 296 295 295 294 296 299 301 302 302 305 305 304 304 307 305 309 309 308 310 311 309 306 310 309 309 307 305 309 309 310 306 307 306 305 307 307 306 304 306
297 297 296 296 295 295 295 295 294 296 297 302 305 306 307 309 309 306 306 307 306 304 308 310 311 312 305 306 306 308 307 306 309 309 308 309 310 310 309 307 304 303 302 305
296 296 295 296 296 295 295 294 294 294 297 302 303 302 305 307 310 309 309 306 305 305 310 311 312 310 310 308 305 306 305 308 309 309 308 309 309 309 308 306 305 302 302 304
296 296 296 296 296 296 296 295 295 295 296 298 306 306 307 308 309 308 307 304 304 308 311 312 311 309 310 308 311 308 304 306 306 308 306 306 306 304 304 304 302 301 300 302
295 296 296 296 296 296 296 295 297 296 296 298 304 307 307 308 308 306 307 307 309 310 311 311 311 311 311 312 312 307 305 304 303 305 306 309 307 306 301 301 300 301 301 301
296 296 295 296 297 297 296 295 295 296 295 299 305 308 306 308 311 311 308 310 310 310 310 310 312 310 311 312 310 303 302 300 303 301 302 303 300 299 299 297 296 299 299 298
296 292 298 297 297 296 296 297 296 296 297 302 307 309 307 307 310 309 309 309 311 307 310 311 311 312 312 307 302 301 300 300 299 300 300 302 302 302 300 297 296 297 296 295
292 297 298 298 296 296 298 300 299 298 299 300 306 306 307 309 310 311 311 309 309 309 309 308 311 310 301 299 298 298 297 296 295 300 302 302 301 302 302 298 297 296 295 293
295 293 294 296 298 299 300 302 303 303 306 305 306 307 309 305 309 310 309 308 305 310 309 311 310 311 303 297 296 294 293 293 296 297 298 297 297 298 299 301 298 296 294 293
293 293 295 296 299 301 303 305 304 305 306 306 309 308 307 306 306 308 308 307 304 310 304 307 310 303 297 295 294 292 292 295 297 297 298 298 299 298 298 299 299 295 294 292
296 296 297 299 301 303 305 304 306 307 304 303 303 307 306 306 306 308 307 309 309 305 308 309 305 298 295 293 292 291 294 295 296 296 296 297 300 297 297 297 295 293 291 290
298 298 299 300 300 303 304 304 297 301 301 302 304 304 306 306 307 308 309 309 306 307 302 303 299 295 293 292 291 291 294 294 295 295 295 296 297 296 293 293 291 291 290 289
297 297 298 297 296 298 298 297 299 299 299 301 303 302 303 304 306 305 306 308 309 306 305 297 294 291 291 291 291 291 292 292 292 293 292 293 295 295 294 292 291 291 290 289
294 295 297 296 298 297 298 298 299 298 299 299 300 304 305 304 304 307 308 307 305 300 297 290 288 291 290 289 289 290 290 290 290 290 290 290 291 293 292 292 291 291 290 289
294 294 292 294 295 296 297 298 299 296 299 302 301 305 304 303 306 307 304 304 295 289 292 290 288 289 288 286 288 290 289 289 289 288 288 288 288 289 291 291 290 289 287 287

GFSNW_925_thetae_063.txt.gz
Theta_e
300 298 298 299 300 301 300 296 298 301 302 306 304 309 309 308 309 308 309 309 309 310 309 309 309 310 310 308 308 310 308 310 315 314 308 308 308 309 304 306 307 304 306 307
299 298 297 299 300 301 301 296 296 301 302 309 309 309 311 309 310 309 309 309 309 307 308 310 309 309 308 307 309 310 308 307 313 314 311 309 311 308 304 303 303 306 307 307
299 298 297 298 299 300 300 296 301 301 300 303 309 311 306 309 308 309 308 308 308 309 309 308 310 312 309 308 311 311 307 305 307 310 309 309 307 309 305 305 308 307 305 305
299 298 296 297 299 300 300 297 301 303 306 304 306 308 309 311 311 308 308 310 310 310 311 311 311 309 309 309 310 307 307 308 306 307 309 308 308 310 306 304 305 309 307 305
299 297 296 297 298 299 301 300 303 303 303 301 304 307 309 311 311 310 311 310 309 309 311 310 311 308 308 310 308 308 305 308 306 307 308 308 310 309 308 307 308 306 306 308
298 297 297 296 297 297 298 300 301 303 301 300 305 308 308 310 310 311 311 311 310 309 308 307 306 305 305 307 308 307 307 306 306 307 307 309 310 309 309 308 307 309 311 310
298 297 297 296 296 297 297 298 300 303 304 305 306 306 307 309 311 312 311 310 310 310 306 306 307 305 305 306 305 305 306 308 307 309 308 315 308 306 308 309 308 307 308 309
299 296 296 296 296 296 296 298 299 303 303 301 306 306 306 306 306 311 311 310 309 306 308 310 312 311 311 311 309 307 308 311 312 311 311 308 314 310 308 311 315 307 308 309
299 297 296 296 296 296 295 297 297 301 303 300 302 305 304 306 305 306 310 308 306 306 307 308 310 311 310 314 313 310 310 308 308 307 308 311 308 312 309 311 322 314 309 312
299 297 297 297 296 296 295 296 297 299 304 303 304 305 306 307 305 306 306 308 308 305 307 310 309 313 311 313 314 314 313 313 311 310 308 308 304 307 307 319 319 312 313 313
298 298 295 297 296 296 294 294 296 297 299 299 299 301 305 308 306 307 305 304 305 305 307 307 308 308 311 311 310 312 311 312 313 312 309 309 304 311 317 315 310 311 310 310
297 298 297 296 296 296 295 294 294 294 297 297 299 300 301 302 303 309 306 305 307 306 307 305 308 311 308 307 312 307 312 306 310 307 308 305 305 309 309 307 307 307 308 307
297 298 297 296 296 297 296 295 294 293 297 298 300 300 303 302 301 303 305 305 308 309 308 309 310 308 306 308 311 308 307 304 308 309 309 305 306 306 305 306 308 306 304 304
297 297 297 296 296 296 296 295 295 294 296 300 301 304 303 308 306 303 303 306 306 305 308 310 310 309 304 305 305 306 306 305 308 307 307 308 310 308 309 309 306 304 302 303
297 296 296 296 297 297 296 295 295 294 295 300 300 298 302 306 308 305 304 306 304 306 310 311 311 310 308 304 304 307 303 306 308 309 307 308 308 307 308 308 307 304 302 303
297 296 296 296 296 296 296 294 295 295 294 297 301 304 305 307 308 308 306 304 305 308 311 311 310 309 308 306 307 305 303 304 305 308 306 304 304 304 303 304 303 302 300 300
296 296 296 297 296 296 295 294 296 295 294 297 301 306 305 308 307 307 307 306 308 309 311 311 311 310 310 310 309 306 304 303 302 302 303 308 306 306 301 299 300 300 301 301
296 297 296 295 296 297 297 296 296 295 295 296 302 307 306 307 310 311 308 310 309 310 310 310 311 310 311 312 310 304 301 300 301 300 300 300 300 300 299 297 296 299 299 298
296 295 293 298 297 295 295 296 296 295 296 299 303 307 308 307 310 309 309 309 311 307 311 311 310 311 312 310 304 302 299 299 299 297 298 300 302 302 302 299 298 297 298 296
293 296 297 296 295 295 296 298 298 297 298 297 303 306 307 308 310 309 310 309 310 310 309 308 311 312 301 299 298 298 297 296 295 298 300 300 299 300 300 301 299 298 297 296
295 293 293 296 297 298 299 301 300 300 302 303 304 306 309 305 310 311 308 308 306 310 308 311 310 312 303 296 296 294 293 292 293 296 297 298 298 298 297 297 299 300 297 296
293 293 295 296 298 301 302 303 303 303 304 305 308 307 306 306 305 306 308 307 304 308 305 307 309 304 296 295 294 293 292 295 296 297 297 297 297 298 299 298 297 298 298 296
295 296 297 298 299 302 304 304 306 306 304 303 303 306 306 305 307 307 306 308 309 304 308 307 303 298 295 292 292 291 294 294 295 295 295 295 297 297 294 294 297 297 294 293
297 298 298 300 300 303 302 303 298 301 301 302 304 305 306 306 307 306 309 308 305 309 306 306 298 295 293 292 291 292 293 293 293 293 293 294 295 296 294 292 291 291 290 290
297 297 297 297 297 297 298 297 298 299 299 301 303 302 303 304 306 305 307 308 308 308 304 297 291 290 291 291 291 292 291 291 291 291 291 291 291 292 294 293 291 291 290 290
293 295 297 294 297 297 297 298 299 298 300 299 300 303 304 305 305 307 305 306 305 303 297 291 290 291 290 289 290 291 290 290 290 290 289 289 289 289 291 291 291 290 290 289
293 293 292 293 295 296 296 298 299 297 298 301 301 303 304 302 305 304 298 300 296 289 288 291 290 290 289 287 288 289 288 288 287 288 288 288 288 289 288 289 289 289 288 288

GFSNW_925_thetae_066.txt.gz
Theta_e
300 299 298 299 300 301 301 301 313 303 302 311 309 313 310 309 310 309 310 311 312 313 312 312 313 314 312 309 310 313 312 314 317 316 310 310 311 313 311 318 315 311 314 311
301 298 298 298 300 301 301 304 305 303 305 311 311 311 311 311 311 310 311 311 311 310 311 313 312 311 309 309 311 312 311 314 316 315 312 311 313 312 309 309 312 315 315 311
300 298 298 298 299 300 300 304 310 308 308 307 309 311 314 313 310 311 310 310 310 311 312 311 312 312 311 310 311 310 310 311 315 315 313 313 315 312 310 315 317 313 314 310
300 298 298 297 298 299 300 304 305 304 309 311 308 311 313 313 314 312 311 312 312 311 312 312 312 311 311 311 310 310 311 314 311 310 311 311 312 313 310 311 313 318 312 311
300 298 297 297 297 299 302 304 305 304 307 305 311 311 313 314 314 313 313 313 312 312 312 312 312 311 311 312 311 311 310 315 311 311 310 311 312 311 312 311 311 310 311 312
299 297 297 297 297 297 301 301 302 304 306 308 311 309 310 313 312 313 312 312 312 312 310 309 309 309 309 310 311 311 311 312 313 315 310 312 315 313 312 311 310 311 314 313
299 299 297 297 296 296 298 299 300 304 309 309 307 308 309 311 313 314 312 312 312 309 308 308 310 310 310 310 309 309 311 312 312 314 312 317 310 309 310 311 311 310 311 311
299 298 297 296 296 296 296 299 300 303 305 305 307 307 308 310 310 312 313 312 310 309 310 312 313 313 312 313 311 310 310 312 314 314 314 312 316 311 311 314 319 312 311 311
298 299 296 297 297 296 295 298 298 301 304 306 303 306 306 311 312 311 311 309 308 309 312 313 313 313 311 313 313 311 310 310 312 313 314 314 313 314 312 312 323 315 310 312
298 299 297 295 296 296 294 295 296 299 303 303 303 306 308 308 309 311 309 311 311 308 313 314 315 313 312 312 312 313 313 313 313 313 313 311 308 308 309 320 322 315 313 313
298 298 298 296 296 297 295 294 295 296 299 299 301 302 305 308 308 311 310 310 310 310 313 313 313 313 313 313 312 312 313 313 313 313 312 313 307 312 317 317 313 311 311 312
297 297 298 298 296 297 296 294 294 294 295 297 297 298 299 301 304 306 309 310 311 310 312 311 312 312 311 312 313 310 314 311 311 311 312 308 308 312 311 310 310 310 311 310
297 297 298 298 296 296 296 296 295 294 295 296 297 299 298 298 299 301 308 309 310 311 311 312 313 311 311 312 312 312 311 309 311 312 312 310 310 310 309 309 310 308 308 307
297 297 297 297 296 296 297 297 295 294 294 296 299 300 301 303 305 300 303 306 308 307 310 313 313 311 309 311 310 311 311 309 312 312 311 311 311 311 311 310 309 307 306 306
297 297 297 296 297 297 296 296 296 295 294 297 298 297 299 300 305 302 302 303 307 310 313 313 313 312 310 309 309 311 309 310 311 311 310 312 312 310 308 309 310 308 307 306
297 297 297 296 297 296 295 296 295 295 294 294 297 300 303 305 305 304 303 304 307 310 312 313 313 310 311 312 312 309 307 308 308 311 309 309 309 308 305 306 305 304 304 304
297 296 296 297 297 296 296 295 296 295 294 295 297 301 304 306 307 308 308 306 308 310 312 312 312 312 312 311 311 309 308 307 307 305 306 309 308 309 304 303 302 301 302 303
295 297 297 297 296 296 297 296 295 294 294 295 298 301 306 307 310 311 308 310 310 310 311 311 312 311 311 312 310 308 305 304 304 303 302 303 303 303 304 302 299 300 302 303
296 297 295 296 297 296 296 296 296 295 296 299 301 306 310 306 310 310 310 309 311 309 311 310 311 311 313 311 310 309 303 303 303 300 300 300 302 303 302 303 301 300 300 300
296 294 297 297 295 296 297 297 297 296 297 297 300 303 306 306 309 310 311 310 310 310 308 309 311 312 308 301 299 299 298 297 296 300 302 301 301 301 301 301 301 302 301 299
293 296 297 296 296 297 298 300 300 300 301 299 301 305 306 306 306 309 308 308 307 311 310 312 312 310 305 298 297 295 294 294 295 296 297 298 298 299 299 300 300 300 301 300
293 294 294 296 298 300 301 303 303 303 305 305 306 307 306 307 307 309 308 308 305 310 307 309 309 306 297 296 295 294 294 296 297 297 297 297 297 297 298 299 300 300 300 301
294 295 297 298 299 302 302 305 307 306 305 303 303 303 307 306 308 308 306 308 310 304 309 309 307 300 296 294 294 294 295 295 295 295 294 294 295 296 296 293 293 294 298 299
297 298 299 299 301 302 303 304 303 302 301 303 302 306 307 306 306 306 309 309 305 311 310 310 303 298 295 294 294 295 294 293 293 293 293 293 293 293 294 293 292 292 293 292
298 298 298 299 299 299 298 297 299 299 299 301 303 303 304 305 306 305 306 310 310 309 309 306 299 294 293 293 293 293 292 292 292 292 292 291 291 292 292 291 291 291 290 290
295 295 297 296 297 299 298 298 299 298 300 299 299 305 306 306 305 308 307 308 310 309 304 298 294 293 292 292 292 292 291 290 290 290 290 290 290 290 290 290 290 289 290 290
292 293 293 295 296 296 297 299 299 296 299 302 301 305 305 303 306 305 305 307 306 302 296 295 294 293 291 290 290 289 288 288 288 288 289 289 289 289 289 289 287 289 289 287

GFSNW_925_thetae_069.txt.gz
Theta_e
301 299 299 299 300 301 302 306 315 307 306 311 311 314 312 309 312 311 312 312 313 314 313 314 315 315 315 311 312 314 314 316 318 317 312 312 313 316 315 320 319 315 318 313
301 299 298 298 299 301 302 308 310 309 309 313 314 313 313 312 313 312 312 313 312 312 313 314 314 314 311 311 312 314 313 316 318 316 314 313 314 314 313 312 317 319 317 313
301 299 298 298 299 300 303 308 311 312 312 309 309 311 314 314 312 312 312 312 312 312 313 312 314 314 312 312 312 311 311 314 317 318 316 316 318 314 312 313 319 316 316 311
300 299 298 298 298 300 304 307 308 306 314 313 311 312 314 314 314 313 312 312 313 312 312 313 314 313 313 312 310 311 313 315 313 312 312 313 314 314 313 313 315 321 313 313
300 300 298 298 297 302 303 305 305 304 310 311 312 312 313 314 314 315 313 313 313 312 312 313 313 312 313 313 312 312 312 316 313 314 312 312 314 313 313 313 312 312 312 312
299 300 298 297 297 299 302 302 302 305 310 312 312 312 311 312 314 314 314 313 313 313 312 311 311 311 311 312 312 313 313 314 315 317 312 313 316 314 313 313 312 313 314 313
299 299 298 297 297 297 299 300 301 305 311 311 310 311 311 312 313 314 314 313 313 310 310 311 311 312 311 311 311 311 313 313 314 315 313 318 313 311 312 313 312 312 312 312
298 299 298 297 298 296 297 299 300 303 306 308 310 310 311 312 312 314 314 312 312 311 312 313 313 314 313 312 312 312 311 312 314 316 315 314 315 312 312 314 317 312 312 312
297 298 298 296 297 297 296 298 298 301 304 309 305 308 309 311 314 313 313 311 310 311 314 314 313 314 312 312 313 312 311 311 313 314 316 315 318 315 313 314 323 315 313 314
297 297 298 298 296 297 296 297 297 299 300 302 305 307 309 309 310 313 312 312 313 310 314 315 315 313 311 313 312 314 313 313 314 314 314 313 311 310 310 321 322 314 313 314
298 298 297 299 298 297 297 296 296 296 298 298 298 303 306 308 310 312 312 313 312 313 315 315 315 314 312 313 312 312 313 313 313 312 313 314 313 313 315 317 315 314 313 314
299 297 296 297 298 297 297 297 296 295 295 296 296 297 300 301 303 306 310 313 313 312 314 313 313 312 313 312 313 312 313 312 312 312 313 311 310 313 311 311 313 313 312 312
299 298 297 298 298 297 297 297 297 296 296 297 297 299 299 296 297 301 307 312 312 312 312 314 314 312 311 312 312 312 312 311 311 312 312 311 311 311 313 311 312 310 310 309
300 298 298 298 297 297 296 297 297 296 295 296 298 299 301 303 302 300 300 305 308 310 312 314 312 311 310 311 311 312 312 312 312 313 312 312 312 312 313 310 310 309 308 308
300 298 298 298 297 297 297 297 297 297 295 297 297 294 295 295 298 305 303 302 305 308 314 314 312 312 311 311 311 310 310 311 313 312 311 312 313 312 310 310 310 309 309 309
299 298 297 297 296 297 297 296 295 296 296 297 296 297 299 303 301 305 305 304 304 309 312 313 313 312 311 312 311 310 310 309 310 310 310 310 310 310 308 308 308 307 306 307
298 296 296 297 297 297 296 297 297 295 295 295 295 299 302 302 306 306 307 305 309 310 311 312 312 313 312 312 312 310 309 309 309 309 308 310 310 311 307 306 306 304 304 304
297 296 295 297 297 296 296 296 296 295 295 295 297 299 304 306 308 309 308 309 309 310 311 311 312 312 312 313 310 310 309 309 308 307 305 306 305 305 306 305 304 304 304 305
296 295 296 295 295 298 297 296 296 295 295 299 300 303 309 303 308 308 309 308 308 309 310 310 311 311 313 311 310 310 308 307 307 305 304 303 303 304 304 304 304 305 305 303
294 295 295 298 297 295 296 296 297 296 296 297 298 300 305 302 307 309 308 310 311 309 310 310 311 311 310 307 304 303 301 300 299 302 304 303 303 303 303 303 303 303 303 303
294 295 297 296 295 297 297 300 299 298 299 297 298 299 304 304 306 307 308 306 307 312 310 311 310 311 308 302 300 298 296 296 297 297 298 299 300 300 300 301 301 301 302 303
294 294 294 295 298 299 301 301 302 301 302 304 305 306 305 305 302 306 307 309 306 311 308 310 310 308 300 298 297 296 296 297 298 298 298 297 297 297 297 298 298 298 298 299
292 294 297 298 299 301 303 304 307 306 305 304 303 303 306 306 308 308 308 309 309 306 309 309 308 303 299 297 297 297 297 296 296 296 294 294 295 295 295 296 294 293 293 295
297 297 298 299 301 301 302 304 304 302 302 302 301 302 307 307 307 306 309 308 305 311 311 311 307 301 298 296 296 296 296 295 294 293 293 293 293 293 293 292 292 292 293 293
298 298 299 299 299 299 298 298 299 300 300 301 302 304 305 306 308 306 307 310 311 309 310 309 302 298 296 296 295 295 294 293 293 292 293 293 292 292 292 291 290 290 291 291
295 297 297 297 298 300 300 298 300 298 300 300 299 303 306 307 306 307 307 308 311 312 310 302 298 296 295 295 295 294 292 291 290 291 291 291 291 291 290 290 289 289 289 289
293 293 294 295 297 296 297 298 299 297 300 301 301 305 307 304 307 306 305 308 310 304 301 298 297 295 293 293 292 291 290 289 289 289 289 289 289 290 290 290 289 288 288 289

GFSNW_925_thetae_072.txt.gz
Theta_e
301 300 299 300 300 301 303 308 314 308 308 310 311 314 313 310 313 312 313 313 313 314 313 315 315 315 313 311 312 315 315 315 319 318 313 312 313 317 316 314 315 314 314 309
300 301 299 299 300 302 302 308 311 311 310 312 313 311 314 313 313 313 313 313 312 312 313 314 314 314 311 312 313 313 313 315 316 315 314 313 314 314 314 312 316 319 315 310
300 301 299 299 299 302 304 308 308 310 310 309 310 313 314 315 313 313 312 312 312 312 313 313 314 314 313 312 310 312 312 314 314 313 316 315 313 314 313 312 315 316 314 310
300 301 299 299 298 303 304 306 306 305 312 313 312 312 313 313 315 314 312 313 313 312 313 313 314 313 313 312 310 311 313 312 312 312 312 313 315 314 313 307 312 310 312 311
300 300 299 299 297 303 302 305 304 304 307 311 311 311 312 313 312 314 314 314 313 313 314 313 313 312 312 313 311 312 312 313 313 311 312 312 313 313 313 312 311 311 311 312
299 300 299 298 297 299 300 300 301 304 307 311 311 312 310 312 312 314 314 314 314 314 312 311 310 310 310 311 312 312 313 312 312 313 312 312 313 313 313 313 311 311 312 311
299 299 299 298 298 297 299 299 300 305 308 309 310 310 311 311 312 314 313 313 313 310 310 311 311 311 311 311 311 310 312 312 313 312 312 316 312 311 312 312 312 311 311 311
299 297 299 298 298 296 298 298 300 302 303 305 307 309 309 311 312 313 313 312 311 311 312 314 313 314 312 311 311 311 310 312 313 313 313 313 314 312 312 312 314 310 310 311
300 298 298 298 297 297 297 298 298 301 301 306 302 305 307 310 311 313 313 311 310 311 313 315 313 314 312 312 311 312 311 310 311 314 314 316 318 313 312 312 321 311 310 311
301 299 298 298 298 297 296 297 296 298 300 299 302 305 306 308 310 310 312 312 312 311 314 314 316 314 311 313 312 314 313 312 312 312 313 312 314 312 311 321 320 313 313 313
301 300 298 297 299 298 297 297 296 296 297 297 297 298 302 304 308 311 311 312 311 312 313 314 314 313 312 312 311 311 312 312 312 312 313 312 311 311 314 316 314 313 313 313
302 301 299 296 298 298 297 297 297 296 296 296 296 296 296 297 300 304 307 311 312 313 312 312 313 312 311 311 313 310 312 310 311 309 310 310 311 311 310 310 312 312 311 310
303 302 300 298 298 299 297 297 296 297 297 296 297 298 298 297 296 298 306 308 311 312 310 312 313 312 309 311 310 311 310 310 310 311 311 309 309 311 310 310 310 310 309 309
304 302 300 299 298 298 297 297 297 297 296 296 297 297 298 299 299 297 299 303 303 306 310 312 312 312 309 309 310 310 310 310 310 310 310 311 311 310 310 309 310 309 308 308
305 303 300 298 297 297 297 296 297 298 297 296 296 295 296 297 295 297 298 299 301 306 310 312 311 310 309 308 309 309 308 309 310 311 309 309 311 309 309 309 309 307 307 308
304 303 299 297 296 295 296 297 296 297 297 297 296 296 295 296 300 296 303 303 302 306 310 309 311 311 310 309 310 308 308 307 308 308 309 309 309 308 307 307 306 306 305 305
303 301 299 296 296 296 297 296 296 295 295 297 295 296 299 301 303 302 306 304 305 307 309 310 310 311 311 310 310 308 307 307 308 307 308 309 309 307 305 305 304 304 303 303
301 299 297 296 297 298 296 296 296 295 295 295 294 297 300 304 306 307 306 306 306 308 309 309 310 310 310 312 309 308 307 307 307 306 305 304 304 304 304 304 303 303 302 302
298 297 296 295 295 295 297 297 296 295 295 297 297 300 302 301 306 306 307 308 309 307 310 310 310 310 311 311 309 308 306 306 306 304 303 302 303 303 303 303 302 303 302 302
296 295 295 297 296 296 296 296 297 296 295 296 296 298 301 302 305 305 304 307 308 308 309 309 311 309 308 305 302 300 299 298 299 302 303 303 303 302 301 300 300 300 300 300
295 295 296 296 295 296 297 299 299 299 298 297 297 297 299 303 305 306 306 305 307 310 309 311 310 308 306 300 297 297 297 296 297 297 298 298 299 299 299 299 299 300 300 300
294 294 294 295 297 298 300 301 300 300 299 302 302 304 300 303 302 303 305 307 305 311 308 310 307 305 299 297 296 296 296 297 298 297 297 296 296 296 297 297 297 297 295 294
294 294 296 298 298 298 301 301 302 304 304 302 300 302 303 304 305 306 305 308 308 306 308 308 306 299 297 296 296 296 296 296 295 295 294 294 294 294 294 294 295 294 293 293
295 295 295 298 300 299 301 301 301 300 301 301 301 300 304 305 304 305 308 307 305 308 310 307 305 300 297 296 296 297 296 295 294 294 293 293 293 293 292 292 292 291 292 292
296 296 297 298 298 297 298 296 297 299 299 300 301 301 303 304 305 304 305 308 307 309 309 306 300 297 295 295 294 295 293 294 293 292 292 292 292 291 291 290 290 290 289 290
293 296 296 297 295 295 296 296 295 298 299 299 299 302 304 304 305 305 307 306 309 307 303 296 296 296 295 295 294 294 292 291 291 291 291 291 291 290 290 290 289 289 289 288
291 289 292 294 296 295 295 295 298 297 299 301 300 304 305 302 305 306 304 306 304 298 296 293 294 293 293 293 293 293 290 289 289 288 289 288 287 288 290 289 288 288 289 288

GFSNW_925_thetae_075.txt.gz
Theta_e
301 302 301 300 301 303 304 303 306 309 308 305 306 313 313 311 313 311 313 311 312 312 311 313 313 313 312 311 311 315 314 315 318 318 315 313 315 318 315 313 315 312 309 312
300 301 300 300 301 303 303 302 304 309 309 304 310 308 311 313 312 313 312 312 311 311 311 313 313 312 311 311 311 312 312 312 314 315 313 312 312 315 315 311 312 313 314 310
300 300 299 296 299 303 305 303 303 302 305 307 310 312 312 314 311 312 312 312 311 311 312 311 313 313 312 311 309 312 311 312 308 311 312 310 310 313 310 306 306 312 310 310
300 300 299 295 296 302 304 300 306 304 306 307 310 311 312 313 312 312 312 312 312 311 311 312 313 312 312 311 310 310 310 309 310 311 312 313 312 313 310 304 310 309 312 310
300 299 297 297 295 300 300 300 302 302 303 305 310 309 311 311 312 312 314 314 313 311 312 311 311 311 311 312 310 311 309 309 309 307 311 311 312 312 312 310 311 310 310 311
300 298 298 297 296 298 298 299 300 302 305 306 310 310 310 311 312 312 313 313 313 311 310 309 308 308 308 309 310 310 310 308 307 308 311 311 311 311 311 311 310 310 311 309
300 298 298 299 297 298 299 298 299 301 303 304 307 305 307 310 311 312 313 312 311 309 309 309 309 309 310 309 309 308 310 310 309 309 310 313 309 310 311 311 311 309 310 310
301 300 297 297 298 296 298 297 298 298 297 301 303 305 306 306 309 313 312 311 309 308 311 313 312 313 311 311 310 309 308 309 311 310 310 310 313 311 311 311 311 309 309 309
302 301 299 296 298 297 296 297 296 298 298 296 299 301 304 305 307 309 312 310 308 310 312 315 313 314 311 311 310 310 309 307 308 311 310 315 317 311 310 312 319 310 308 309
302 302 301 298 296 298 296 297 297 296 297 296 297 302 303 304 308 309 309 311 310 309 311 314 313 314 310 312 310 313 310 309 307 309 308 310 314 312 310 320 316 312 311 311
303 303 302 299 297 298 298 296 297 295 292 294 295 296 298 301 303 308 309 311 308 309 310 311 312 311 311 310 309 310 309 313 313 311 312 310 309 310 313 314 312 313 312 312
305 304 303 301 298 298 297 296 296 297 295 294 296 295 295 295 297 301 303 309 310 312 311 309 309 311 309 308 312 308 310 308 308 308 308 307 309 310 309 310 311 311 310 310
304 305 304 302 299 298 299 298 296 296 297 295 295 295 296 297 296 295 301 304 308 311 309 308 310 311 307 309 308 310 309 307 308 309 309 308 308 310 309 309 309 309 308 308
302 303 304 302 300 298 298 297 296 296 297 297 295 295 296 297 296 296 295 299 302 303 307 309 309 310 306 307 308 308 307 308 309 308 308 309 308 310 309 308 308 308 308 308
298 300 302 303 299 297 298 296 295 296 297 296 295 296 296 295 295 295 296 296 298 303 307 311 309 307 307 306 306 307 306 308 309 310 307 309 309 307 307 307 307 306 306 306
299 299 300 301 298 297 295 295 296 297 297 297 295 295 294 294 295 295 297 296 298 302 306 309 309 308 308 307 308 307 305 304 305 307 308 307 307 306 306 306 305 305 304 303
300 301 301 298 297 296 296 296 296 295 295 296 295 294 294 300 298 295 298 302 303 303 305 308 309 307 310 310 309 306 305 306 305 306 306 308 307 306 303 304 304 303 302 302
301 300 298 297 296 296 297 297 297 296 295 295 292 290 295 301 304 304 302 305 305 306 307 307 308 306 308 309 308 306 305 304 305 305 304 304 302 303 303 302 302 302 301 300
299 298 297 296 296 295 295 296 297 296 295 295 295 294 297 300 303 304 305 305 305 304 307 309 308 308 308 308 307 307 306 305 304 301 300 301 302 302 302 302 300 300 299 299
297 297 295 294 295 296 296 295 297 295 295 296 295 294 296 300 303 304 305 306 306 308 304 307 308 306 306 303 301 299 298 298 300 303 303 302 301 300 300 300 299 299 298 298
296 295 294 296 296 296 296 298 298 297 295 295 295 296 297 298 303 306 304 305 306 307 309 309 308 307 304 296 295 295 296 297 297 297 297 298 298 298 298 298 298 298 298 299
295 294 295 295 296 297 298 299 299 297 296 298 299 302 298 299 302 304 304 306 304 310 307 309 306 304 297 295 294 294 295 297 297 296 296 295 295 295 295 295 296 296 295 294
294 294 294 296 297 295 298 294 297 299 301 300 300 301 301 301 300 303 305 307 307 305 308 307 303 299 295 294 295 295 295 295 294 293 294 294 294 293 294 294 293 293 293 293
292 288 289 294 293 296 295 299 299 298 299 299 300 301 301 303 303 304 307 306 305 306 308 303 301 300 297 297 296 296 296 295 294 293 293 293 293 292 292 291 291 290 291 291
294 294 294 292 292 291 293 296 296 294 297 299 300 299 302 302 304 304 305 307 305 306 308 305 300 296 295 295 294 294 293 293 293 292 292 291 292 291 291 290 290 289 289 289
293 294 294 292 288 287 292 294 294 296 298 296 299 301 302 303 303 301 301 305 308 306 302 296 295 296 295 295 294 293 292 292 291 290 290 290 289 288 289 290 289 288 289 288
286 284 288 288 289 290 293 294 295 296 297 299 296 301 303 300 300 300 299 304 302 298 296 290 292 293 293 293 294 294 291 290 289 288 288 287 285 286 286 286 286 287 288 288

GFSNW_925_thetae_078.txt.gz
Theta_e
299 300 301 301 301 303 305 302 304 308 307 303 302 305 311 311 311 309 311 309 311 311 310 312 312 313 312 311 311 315 312 313 315 315 313 313 314 316 314 308 316 305 305 310
299 300 300 300 300 302 304 302 302 305 306 305 310 308 310 312 312 311 311 312 311 310 311 313 312 311 311 310 310 312 312 312 316 317 314 314 316 317 316 310 305 305 308 310
299 298 295 294 297 301 304 299 301 301 301 304 309 311 311 313 312 311 311 311 310 310 311 310 312 312 312 311 309 312 311 310 308 311 311 310 310 314 315 307 303 308 307 309
299 295 294 295 295 299 303 297 302 301 300 303 307 310 311 311 312 311 312 312 312 311 311 311 312 312 312 310 310 309 308 309 309 310 312 311 310 311 309 306 307 309 310 310
300 297 294 294 295 296 299 297 296 299 300 303 305 308 309 310 311 312 313 313 312 310 312 311 311 309 310 311 309 310 308 310 307 306 310 311 312 311 310 308 309 310 309 310
301 299 296 294 295 296 297 297 298 301 299 302 305 306 308 310 311 311 312 312 312 311 310 308 308 307 306 308 309 309 309 308 306 307 310 310 309 309 310 310 309 310 310 309
301 301 299 296 296 296 297 297 298 298 297 299 303 303 303 307 309 311 310 311 311 309 308 308 308 307 308 308 308 306 308 308 307 307 309 313 307 309 309 310 310 308 309 309
302 301 300 298 295 296 297 296 297 297 294 296 297 299 303 303 305 308 312 311 309 307 310 312 312 312 311 310 309 308 307 308 310 309 309 307 310 310 310 310 310 308 308 308
302 302 301 300 297 296 296 297 296 296 295 294 297 297 300 303 305 307 309 310 308 309 311 314 311 313 311 311 309 308 306 305 307 306 309 313 312 310 309 311 315 310 307 307
304 303 303 302 300 297 298 296 297 295 294 294 295 297 296 298 304 306 308 309 310 308 309 315 312 312 310 311 309 311 308 310 308 308 306 308 307 311 311 318 312 311 306 306
305 305 304 303 302 298 298 296 296 295 292 293 294 296 296 297 300 303 305 308 308 308 311 309 309 310 309 308 308 308 308 308 309 308 309 307 309 309 315 312 312 312 311 311
305 304 305 304 304 299 298 297 296 296 295 295 295 295 295 296 296 296 299 304 304 311 311 307 308 311 308 307 310 306 310 306 308 307 306 305 307 310 309 311 311 311 311 309
303 303 303 304 304 301 298 298 297 296 296 296 294 294 295 296 296 295 296 298 305 308 306 311 312 311 305 308 307 309 308 305 308 308 308 307 308 309 309 309 310 308 308 308
297 298 298 300 303 300 298 298 297 297 296 298 295 295 295 296 296 295 295 295 297 300 304 311 310 309 304 306 306 306 305 306 307 307 306 307 307 308 308 307 306 307 307 307
293 296 298 300 302 299 298 298 297 296 296 297 297 296 295 295 295 294 295 295 294 299 304 309 311 306 307 304 305 307 305 307 309 309 306 307 308 307 306 307 306 305 305 306
296 297 299 301 300 298 296 295 295 297 297 298 295 294 293 294 295 294 295 295 296 298 303 306 308 308 307 306 307 305 303 303 305 307 306 306 306 306 305 305 304 304 304 303
300 301 301 300 299 297 296 294 296 295 295 295 295 294 293 294 299 294 297 297 299 299 299 303 307 309 308 311 309 306 304 303 304 305 306 308 307 306 303 303 303 302 302 301
300 300 299 298 297 296 296 296 296 296 295 294 294 293 293 300 302 300 298 302 302 303 303 305 306 304 306 309 307 306 305 304 305 305 302 303 302 301 302 301 301 301 300 299
299 298 297 297 296 295 295 296 297 295 294 294 295 292 292 296 300 303 302 303 304 302 305 304 307 307 310 307 306 306 305 304 303 300 300 300 301 301 301 301 299 300 298 297
298 297 295 295 294 296 296 295 296 296 296 295 294 294 296 296 301 304 304 303 306 306 304 306 305 305 305 302 300 298 298 298 299 301 302 300 299 299 299 299 298 299 298 297
297 295 295 295 296 296 295 297 296 295 295 294 294 294 296 297 300 303 304 305 305 307 308 306 306 307 301 295 295 294 295 296 296 297 298 298 298 298 298 298 297 297 298 297
295 295 294 294 295 295 296 297 298 296 294 295 298 301 299 298 298 303 303 305 304 309 307 309 306 302 296 295 295 294 294 295 295 296 295 295 295 294 295 295 295 295 295 294
295 294 294 295 296 293 297 289 296 297 300 299 299 299 302 300 299 301 304 307 306 305 308 307 304 299 295 294 294 294 294 294 294 293 293 293 293 293 293 293 292 292 292 292
291 286 290 295 291 294 289 293 295 297 297 298 298 299 301 302 303 303 307 306 305 303 305 304 304 300 297 296 296 295 296 295 294 293 293 293 293 293 292 290 290 289 290 290
287 293 291 289 289 289 290 293 292 291 294 297 299 298 300 302 303 304 305 307 305 306 307 303 298 296 295 295 294 294 293 293 293 292 291 291 291 290 290 290 289 289 289 288
293 294 292 292 286 283 285 287 289 292 298 297 297 300 301 303 303 302 301 303 306 304 300 298 295 296 296 295 294 293 292 292 291 290 290 289 288 286 288 287 287 287 288 288
288 283 287 285 282 285 288 292 293 295 294 297 297 299 300 298 301 300 298 304 301 299 296 293 291 294 293 294 294 293 291 291 290 288 287 287 285 285 285 284 285 285 286 286

GFSNW_925_thetae_081.txt.gz
Theta_e
298 297 299 299 297 302 305 301 301 306 306 301 300 301 309 309 310 308 309 309 310 311 309 312 312 314 313 311 310 313 311 313 316 316 313 313 314 315 314 307 316 310 301 309
297 295 294 296 296 302 304 300 301 303 305 301 300 305 309 311 312 310 311 311 311 309 310 312 311 312 312 310 311 311 312 312 317 315 314 313 315 315 315 309 304 304 307 310
299 297 294 295 296 299 304 298 300 299 299 301 307 307 306 310 311 311 310 311 310 310 310 310 312 311 312 311 308 312 310 310 308 311 311 314 316 315 314 314 313 309 305 310
300 299 297 295 296 297 302 294 299 300 297 300 303 305 307 309 310 309 311 311 312 311 311 310 311 311 311 310 309 309 308 310 308 309 311 310 310 311 314 314 312 310 311 308
301 300 299 297 296 297 298 296 294 295 297 300 303 305 306 308 310 311 310 312 311 311 311 310 311 308 309 310 309 309 307 308 307 306 310 311 312 310 312 313 312 310 309 309
301 301 300 298 296 296 295 295 297 297 296 298 301 303 303 305 305 309 310 312 311 311 310 307 308 307 307 306 309 308 308 307 305 304 309 310 308 309 309 310 308 310 311 310
302 302 301 300 297 295 296 296 296 293 295 295 296 297 298 302 303 305 307 308 310 309 307 308 308 307 306 306 307 305 307 306 307 307 308 309 304 308 308 310 309 307 308 308
302 302 301 300 299 296 296 295 295 293 293 294 295 297 297 298 301 306 307 308 309 307 309 311 312 311 310 309 308 307 305 307 309 309 308 306 309 309 309 309 309 308 308 307
303 303 302 302 300 298 296 296 296 294 294 294 295 296 297 301 296 300 308 301 306 308 310 315 312 312 311 311 309 306 304 304 306 304 308 311 309 310 307 308 311 310 307 307
305 305 304 303 303 300 298 296 296 294 292 292 295 294 295 296 297 298 301 300 306 307 309 316 313 310 309 309 308 310 308 309 311 308 305 307 304 310 308 315 309 310 306 306
305 305 305 305 304 301 298 297 296 295 292 292 294 295 296 296 296 299 299 300 304 309 313 311 311 309 308 307 307 307 307 306 307 308 311 306 307 309 312 309 312 311 308 307
304 305 304 304 304 303 299 297 296 296 295 294 295 295 295 295 295 296 296 300 298 300 311 307 306 310 308 307 309 305 308 305 307 305 305 303 305 308 308 311 311 311 311 310
300 301 301 301 301 303 300 298 297 296 295 294 293 294 295 295 296 296 296 297 301 303 300 307 312 311 304 309 308 307 307 304 308 308 307 305 307 308 308 308 309 308 307 308
292 293 297 297 299 301 300 299 298 296 295 297 294 295 295 296 296 295 295 295 295 296 298 305 309 310 303 305 305 306 305 306 307 306 306 305 306 307 308 307 306 306 307 307
294 294 296 298 301 301 300 298 297 296 295 295 295 295 295 295 294 295 295 295 294 295 298 304 310 306 306 302 304 306 305 307 308 308 306 306 306 306 306 307 307 305 306 306
297 297 298 300 300 299 298 295 295 296 296 297 294 293 293 294 296 294 293 295 294 296 299 300 302 305 307 308 306 304 302 303 304 306 305 306 306 305 305 305 304 304 303 303
299 300 301 299 299 298 296 294 296 296 295 295 293 292 292 293 298 294 294 295 297 297 299 299 303 305 305 310 309 304 304 303 303 303 306 308 306 307 303 302 302 302 301 300
300 299 299 298 297 296 296 296 296 296 295 293 293 290 291 298 300 301 295 298 299 300 299 301 304 302 305 308 305 306 304 304 304 303 303 303 302 300 300 300 300 299 298 297
299 298 297 296 296 294 296 296 296 295 294 294 290 291 290 293 297 302 300 302 303 300 305 304 305 306 305 304 303 303 304 304 303 300 300 300 301 300 300 299 298 299 298 296
297 297 295 291 295 296 295 295 296 296 296 294 292 292 291 294 297 301 304 302 305 304 301 304 305 303 303 298 297 297 296 298 298 301 301 300 300 299 299 298 297 297 298 297
296 293 295 296 296 295 295 296 296 294 294 293 293 293 295 296 297 301 303 304 304 306 306 307 306 306 301 294 294 294 294 295 295 297 297 297 298 298 298 297 297 297 297 296
296 294 295 295 295 295 296 296 297 295 293 293 297 299 299 298 297 300 303 304 303 306 306 308 307 302 296 294 295 293 294 294 294 295 295 294 294 294 295 295 295 294 294 293
295 294 294 295 295 294 295 286 296 296 298 299 298 298 299 300 299 301 303 306 304 304 307 308 305 300 298 295 295 295 294 294 293 293 293 293 293 293 293 292 291 290 291 291
291 286 290 289 289 294 288 289 290 293 295 292 295 298 300 301 302 303 306 307 304 304 301 302 302 298 297 296 296 296 296 295 294 293 293 292 291 291 291 290 290 288 289 289
287 287 288 290 288 284 289 292 288 288 290 295 296 297 298 301 302 304 303 306 304 306 306 302 298 296 295 295 294 294 293 293 293 291 291 290 289 288 289 289 289 288 288 288
290 290 290 292 291 281 288 285 286 287 295 295 296 298 300 302 302 302 301 302 305 303 299 297 295 295 295 295 294 293 292 292 291 290 290 289 287 285 287 286 285 285 287 287
290 283 286 284 280 284 284 289 290 293 294 295 296 298 299 296 300 300 299 302 299 298 296 294 292 291 292 294 294 293 291 291 290 289 287 286 285 284 284 283 284 284 285 284

GFSNW_925_thetae_084.txt.gz
Theta_e
297 296 295 296 297 300 305 301 301 304 304 298 297 299 307 308 309 307 308 308 309 310 309 310 313 316 314 311 311 311 311 314 316 316 313 312 313 314 313 309 312 307 302 310
299 298 296 296 297 299 304 299 299 302 302 300 298 303 307 309 310 310 311 312 310 309 309 311 311 313 311 311 313 312 311 312 317 316 313 313 315 313 311 306 305 311 308 311
300 299 299 297 297 297 302 296 297 296 297 299 305 306 304 308 308 310 310 311 310 310 309 309 311 312 312 311 310 313 311 310 310 312 311 312 314 313 312 306 304 309 306 308
301 300 299 298 297 297 299 292 298 298 295 296 299 302 306 308 308 308 309 312 312 311 310 309 310 310 312 311 310 309 309 310 308 309 310 311 312 312 312 310 310 310 310 309
301 300 300 300 299 297 296 294 293 293 294 296 299 301 303 302 304 306 308 311 312 311 311 310 310 308 308 310 309 309 306 310 307 307 310 310 311 309 311 312 312 310 309 308
301 301 300 300 299 298 294 294 296 294 295 294 297 298 296 298 299 301 307 305 305 309 310 307 307 307 306 307 308 308 308 306 305 305 309 309 308 308 310 312 310 312 312 312
302 301 300 299 299 299 295 296 294 292 296 295 294 296 296 297 298 300 300 303 306 307 305 306 307 307 307 305 306 305 306 306 306 308 307 309 305 307 307 309 309 308 308 307
302 302 301 300 301 299 296 295 294 292 294 293 295 296 296 296 297 298 298 304 303 303 307 311 311 310 309 308 307 306 304 306 308 308 308 306 308 308 308 309 309 307 307 308
303 304 303 303 302 300 298 296 296 292 293 295 293 294 295 295 294 295 299 300 299 301 311 314 312 310 310 311 309 305 303 303 306 305 307 309 307 310 306 307 310 308 306 307
304 304 304 304 303 303 300 296 296 294 292 292 294 294 294 294 295 296 297 298 299 301 310 315 313 310 307 309 308 309 308 310 308 310 307 306 303 305 306 313 308 309 306 305
305 305 305 305 304 303 300 296 297 296 293 292 293 294 294 294 294 297 297 299 300 300 312 313 313 310 308 307 306 307 307 305 307 310 312 307 304 308 311 307 310 311 308 305
305 305 303 303 304 303 302 298 297 296 295 294 295 295 295 294 294 295 296 297 298 300 304 307 307 310 311 306 309 304 308 304 306 305 306 302 303 307 307 309 311 310 310 308
304 300 299 301 301 302 301 299 297 296 296 294 292 294 294 295 295 295 296 295 298 299 298 302 308 310 304 312 310 307 306 303 306 307 306 304 303 305 307 308 310 307 307 308
292 292 295 296 296 300 299 299 298 296 296 296 293 295 295 295 295 294 295 295 294 294 296 299 305 309 304 305 304 306 305 305 306 306 305 304 304 305 307 307 306 306 305 306
293 293 296 297 299 300 299 299 297 296 295 295 293 294 294 294 294 294 294 294 294 294 294 301 306 307 305 301 302 305 304 307 307 307 305 305 304 305 306 306 307 305 305 305
297 296 297 299 299 300 298 294 295 296 295 296 293 292 292 293 293 295 293 293 293 294 297 297 298 301 305 307 305 303 302 302 303 306 304 304 305 305 305 304 303 303 301 301
298 300 300 299 298 298 296 294 295 296 295 293 291 292 291 292 296 293 292 293 293 294 297 298 299 302 304 307 308 305 303 303 303 302 305 308 306 306 302 301 300 301 299 299
300 300 299 298 297 296 296 296 295 295 294 293 292 291 290 294 296 302 293 294 295 298 296 298 300 300 301 304 304 303 302 302 302 302 303 302 301 300 299 299 300 299 297 296
299 298 296 296 295 294 296 296 296 295 293 291 293 290 290 292 295 299 299 299 301 298 302 301 302 303 304 302 302 302 299 300 301 300 300 300 300 300 299 298 297 298 297 295
297 297 294 290 295 295 295 294 295 295 295 292 293 291 295 295 297 300 302 301 303 305 301 303 304 302 300 296 296 295 295 295 298 302 302 301 300 299 298 296 296 296 296 296
296 293 294 296 295 295 295 296 296 294 294 293 293 293 294 296 297 299 301 302 303 304 301 304 304 306 301 294 293 293 294 294 295 296 296 297 298 297 297 296 296 296 296 295
296 295 295 295 295 294 295 295 296 295 293 292 295 298 295 298 297 299 301 302 303 304 305 307 307 301 296 295 295 294 294 294 294 295 295 294 294 294 295 295 294 293 292 292
295 293 293 293 295 293 288 287 295 297 296 298 296 296 298 299 298 300 302 304 304 304 306 305 304 299 298 296 296 295 294 294 294 294 293 293 293 293 292 292 290 289 289 289
292 289 293 290 292 293 288 288 287 289 295 293 291 296 298 300 302 303 303 303 304 302 299 304 300 297 296 296 296 296 295 295 294 292 291 290 290 290 290 290 290 288 288 288
289 290 292 291 288 281 287 284 286 287 291 290 296 296 297 300 302 303 303 303 303 305 303 300 296 295 295 294 294 294 293 293 293 291 291 290 288 287 288 288 287 286 287 287
288 286 288 289 288 282 290 292 284 285 292 289 294 296 300 298 300 301 298 299 299 298 296 296 294 293 294 295 294 293 292 292 291 291 289 288 286 284 286 285 284 284 285 285
291 290 287 286 282 285 284 288 289 291 291 288 295 297 297 294 296 299 299 301 298 297 296 293 292 292 291 291 294 292 292 291 291 289 287 286 285 284 284 283 283 283 284 284

GFSNW_925_thetae_087.txt.gz
Theta_e
299 298 297 297 297 299 304 300 298 303 302 297 295 297 305 306 308 306 308 309 309 311 309 310 313 312 311 310 308 309 309 314 316 314 313 313 313 314 311 312 315 303 307 313
300 299 298 297 297 298 302 297 298 301 301 298 299 302 304 306 309 309 310 311 311 310 310 312 311 312 312 311 310 311 311 313 317 316 312 313 315 313 308 306 307 311 314 313
300 299 298 298 297 297 300 293 294 295 295 296 301 301 302 306 306 307 307 310 311 310 309 308 311 310 313 311 312 313 312 310 309 310 309 311 314 313 309 307 309 311 309 311
300 300 299 299 298 297 298 291 297 296 293 295 297 300 304 300 302 301 304 308 306 304 310 309 309 309 308 312 312 310 310 313 308 309 309 311 312 312 311 306 308 311 309 309
300 299 298 299 299 298 297 294 292 292 294 294 296 298 299 298 298 299 300 304 302 303 306 309 312 309 309 310 310 310 306 311 307 308 309 310 312 310 310 311 311 310 309 310
301 299 299 299 299 299 294 294 295 293 294 293 295 297 296 297 297 299 299 300 301 305 307 305 306 305 306 307 309 310 308 308 307 307 308 308 307 307 309 311 309 311 312 311
301 300 300 300 300 300 297 295 293 292 297 295 295 295 295 296 296 297 298 299 305 305 302 304 306 305 307 304 305 305 306 305 307 309 307 308 304 306 307 309 309 309 310 308
302 301 301 301 300 300 298 295 293 292 296 293 295 295 295 294 294 296 296 298 301 299 303 311 310 308 308 306 304 305 304 306 308 310 308 306 308 308 308 309 309 307 309 309
302 303 302 302 302 301 299 296 295 292 293 295 294 294 294 294 293 294 296 298 297 299 307 313 310 310 309 310 309 304 303 303 307 306 308 309 306 309 306 306 311 307 306 306
303 303 303 303 303 302 300 296 296 294 293 292 293 294 294 293 295 296 296 295 298 299 309 312 313 309 307 309 308 309 307 309 309 309 308 306 303 303 305 312 309 308 307 305
304 304 305 305 304 303 301 297 297 296 292 292 292 293 294 293 293 296 294 297 298 300 306 311 311 308 307 306 305 306 306 306 307 309 310 306 302 308 311 307 309 311 309 304
305 304 304 303 304 302 301 298 297 296 294 294 295 295 295 295 294 294 294 294 296 298 301 301 304 310 311 306 308 303 307 304 305 305 305 302 301 307 306 306 310 310 310 307
305 305 303 302 302 302 300 298 297 295 297 293 292 293 294 295 295 295 294 293 295 297 297 298 303 310 305 308 311 306 305 301 305 305 305 303 303 302 303 307 309 307 307 307
305 297 297 298 300 301 299 298 298 297 295 293 293 294 294 294 294 294 295 294 294 294 293 295 300 304 305 305 302 304 304 304 305 305 304 304 304 303 306 307 306 305 305 305
292 293 294 297 299 299 298 298 297 297 295 294 293 293 293 294 293 293 294 294 292 292 294 296 300 304 306 301 301 303 302 305 306 307 304 304 304 303 305 306 306 305 305 303
292 293 296 299 299 298 298 292 295 296 295 296 293 292 292 293 293 293 293 294 292 292 293 295 295 297 303 305 304 302 301 301 302 304 303 302 304 304 304 304 302 301 300 300
295 297 300 300 299 298 295 294 295 295 294 292 290 292 291 291 294 293 291 292 292 292 294 296 297 298 301 304 304 304 301 302 301 301 302 306 305 305 301 301 300 299 298 298
299 300 299 298 297 296 295 295 295 295 293 292 287 290 291 292 294 298 294 293 292 296 295 295 296 297 298 300 302 300 299 299 300 299 302 302 300 299 299 299 299 298 297 296
301 298 297 296 295 294 295 296 295 295 292 288 291 288 290 291 294 295 300 296 299 297 300 298 299 300 302 301 301 299 296 297 297 297 299 300 300 299 298 298 297 297 296 295
298 296 294 293 295 295 295 294 295 295 292 292 293 290 290 293 296 298 301 301 302 304 300 300 302 302 298 295 294 294 295 295 296 301 302 300 299 298 297 296 295 295 295 295
297 294 295 295 295 295 294 295 295 293 294 293 292 290 290 293 296 298 299 302 303 306 300 301 302 306 300 295 294 294 293 294 294 295 295 295 297 297 296 296 295 295 294 293
296 295 295 295 295 294 292 289 294 294 292 291 293 296 291 296 297 299 299 302 302 302 304 306 303 302 298 297 296 295 294 294 294 294 294 294 294 294 295 294 292 291 291 290
294 293 293 293 293 290 288 291 293 295 292 292 296 292 296 299 299 300 301 302 303 303 305 302 303 298 297 296 296 296 293 293 293 294 293 293 292 292 292 291 290 288 288 288
294 292 293 292 292 290 290 289 288 289 292 293 291 289 293 298 300 301 303 303 303 302 298 301 298 295 295 295 295 295 296 295 293 292 290 289 288 289 289 289 288 286 287 287
291 292 294 291 287 282 285 282 290 290 292 289 290 294 295 297 300 300 303 302 301 302 298 296 292 292 294 294 294 294 293 293 292 291 291 290 288 286 287 287 285 285 286 286
289 288 289 289 286 282 291 292 290 285 290 288 290 294 295 295 298 299 296 296 295 295 295 293 292 291 292 293 293 292 292 292 291 291 290 289 287 284 286 285 284 284 284 284
292 291 287 286 283 286 289 292 290 289 288 287 288 293 293 293 295 298 297 298 294 295 294 288 288 289 291 291 293 292 291 291 291 290 288 286 285 284 284 283 283 282 283 283

GFSNW_925_thetae_090.txt.gz
Theta_e
299 298 298 297 297 300 303 304 310 302 302 307 302 307 303 306 308 308 309 309 309 312 313 312 313 312 312 307 307 308 308 314 315 317 313 313 314 317 315 320 319 313 317 315
299 298 298 297 297 298 301 304 305 300 301 308 304 302 303 305 303 306 305 310 311 308 311 313 312 309 310 309 309 312 312 317 318 318 315 314 314 315 313 313 316 318 317 315
299 299 298 297 297 297 298 301 309 300 302 300 301 301 303 301 300 305 301 305 304 304 312 310 313 309 312 311 310 312 313 313 313 316 314 315 317 317 314 317 320 317 317 314
299 298 298 298 298 298 297 299 303 298 302 301 300 301 302 300 300 299 302 303 302 304 307 311 313 309 311 310 310 312 313 317 312 312 312 313 314 316 314 315 316 320 315 314
299 298 299 299 299 298 297 302 302 297 299 298 299 299 300 299 299 299 301 301 301 305 306 307 308 307 308 309 311 310 311 314 311 312 312 313 314 314 315 315 315 314 312 313
299 299 299 300 300 298 297 294 296 299 297 299 300 299 298 298 298 298 299 300 302 306 305 302 303 304 307 310 312 312 311 313 314 315 310 311 312 310 313 313 313 314 316 314
300 299 299 300 299 300 298 295 296 300 300 299 299 298 297 298 298 298 299 300 301 302 301 304 307 308 309 309 308 307 309 309 311 312 310 310 307 308 309 311 311 312 312 312
301 300 300 300 301 300 299 296 296 300 301 298 298 298 297 297 297 297 298 299 298 300 303 312 312 311 310 309 307 308 307 310 312 313 311 310 312 311 311 311 312 310 311 311
302 301 301 301 302 301 299 296 295 298 301 300 297 298 296 298 298 298 298 298 297 300 307 312 313 313 311 312 311 306 307 308 311 312 312 310 311 310 308 309 317 311 311 311
302 302 302 302 303 301 300 297 296 297 300 296 296 298 298 296 297 298 297 297 299 301 309 312 313 312 309 311 310 311 311 312 313 311 311 309 307 308 308 315 316 312 311 309
302 303 303 303 303 301 300 297 296 297 298 297 295 295 296 296 297 298 297 300 300 302 307 308 311 312 311 310 308 310 310 310 311 311 310 310 305 310 313 312 311 313 312 307
303 303 304 305 304 302 300 298 297 296 297 297 295 295 295 295 296 297 297 297 298 301 302 302 304 310 312 310 312 306 310 309 310 309 309 307 305 310 309 309 311 312 312 308
304 304 304 304 304 302 300 298 297 296 297 297 295 295 294 295 294 295 297 296 297 298 297 299 301 309 309 311 312 310 308 305 308 308 308 307 307 306 305 308 311 309 310 310
304 304 304 301 302 301 299 298 297 297 297 298 297 294 294 294 294 295 295 295 295 296 296 299 301 304 306 309 307 308 308 306 309 309 308 309 307 307 307 309 308 308 308 308
304 304 300 299 302 299 298 298 297 297 297 299 297 293 293 293 293 294 294 295 295 296 298 299 302 304 306 305 305 309 307 309 310 310 307 307 308 307 306 308 308 307 307 306
303 296 295 298 301 298 298 297 296 296 295 297 298 293 293 292 294 294 294 295 295 296 298 299 299 298 303 305 307 306 304 304 305 307 305 305 305 306 306 306 305 303 304 303
294 296 298 301 298 298 296 296 295 295 294 295 297 296 293 291 294 295 294 294 296 296 297 298 299 299 302 306 305 304 303 303 303 303 304 306 307 308 303 304 302 300 300 300
296 299 300 298 298 296 295 295 294 294 293 293 296 296 295 293 298 300 295 296 296 297 298 298 300 300 301 302 302 302 302 302 303 302 302 304 303 302 301 300 300 301 300 299
301 300 298 296 295 294 295 295 295 294 293 295 295 300 302 294 297 298 298 297 299 298 299 300 301 302 303 302 301 301 299 299 299 299 301 302 303 302 301 300 300 300 299 298
298 297 295 295 295 295 296 294 295 295 294 294 296 293 299 296 298 299 300 301 301 303 302 301 303 303 300 299 298 297 296 297 297 299 303 302 301 301 300 299 298 298 297 296
297 295 296 295 295 294 295 295 296 294 295 294 295 295 297 295 299 300 299 302 302 305 304 304 304 306 301 299 298 296 296 295 296 297 297 297 299 300 299 298 296 295 294 293
296 295 295 295 296 295 294 294 295 294 296 294 296 297 295 296 296 297 299 301 303 303 303 306 304 303 298 296 298 296 295 295 295 295 295 295 295 296 296 294 293 292 291 290
295 294 294 295 294 294 294 295 295 296 295 295 296 298 298 298 298 298 299 302 303 303 305 306 304 299 296 295 295 295 294 293 293 293 292 292 292 292 292 291 289 288 289 288
296 295 295 296 294 294 293 294 294 294 296 296 296 296 298 298 298 299 302 302 303 305 304 305 302 297 295 295 295 295 295 295 294 293 291 289 288 289 289 289 287 287 287 287
294 295 299 293 291 288 289 289 292 292 294 294 295 296 296 298 298 300 301 303 303 304 304 302 298 295 292 294 294 294 294 294 293 291 291 290 289 287 288 286 285 285 286 285
292 290 292 290 292 290 291 293 292 291 293 293 294 297 297 298 299 300 301 300 301 302 299 298 296 294 293 294 294 293 292 292 292 291 290 289 288 286 286 285 284 284 284 284
293 293 290 291 290 292 293 293 294 290 294 295 294 294 296 296 298 299 299 301 300 298 297 295 294 293 293 292 293 293 292 291 291 291 290 289 287 285 285 285 284 283 282 283

GFSNW_925_thetae_093.txt.gz
Theta_e
299 299 298 297 297 301 304 308 312 303 303 310 308 306 303 305 303 305 307 309 311 310 312 314 313 312 311 307 305 309 310 314 316 317 314 312 314 316 317 321 320 318 319 316
299 299 297 297 296 300 305 305 308 303 303 307 306 303 303 302 302 304 303 306 306 305 310 315 316 308 311 310 308 313 313 317 319 317 316 314 315 316 318 315 320 322 321 316
300 298 297 298 297 298 303 305 312 303 303 302 303 303 304 302 301 302 304 303 305 306 309 311 313 309 312 310 310 313 314 316 316 319 317 316 317 317 316 317 322 317 317 315
299 298 298 298 297 297 301 305 307 302 304 303 302 302 303 302 302 301 302 304 304 305 309 309 309 309 309 312 311 312 314 319 314 313 314 314 316 318 316 317 317 321 316 316
299 298 299 299 298 297 302 305 305 301 302 301 302 301 302 301 301 301 302 302 303 305 307 306 308 307 310 311 311 311 313 316 313 314 314 314 316 315 316 315 315 315 315 315
298 298 299 299 299 299 302 299 299 304 300 302 302 302 301 300 300 300 300 302 304 306 305 302 303 303 305 308 312 314 313 314 315 317 312 313 316 315 315 315 315 315 317 315
299 299 299 299 299 299 302 300 301 304 302 302 301 300 300 300 299 300 301 301 303 303 302 305 307 308 310 311 311 310 312 312 312 313 311 313 310 309 311 313 312 312 313 313
299 299 300 300 300 300 300 297 301 304 302 302 301 300 300 300 299 300 300 301 300 301 304 312 312 312 311 311 310 310 310 312 313 314 312 310 313 312 312 313 314 312 313 313
299 300 300 301 301 300 299 297 298 303 303 302 300 300 299 301 301 302 300 300 300 302 307 312 313 313 311 312 312 309 310 311 313 313 313 310 313 310 310 311 316 314 313 313
300 300 301 301 301 301 299 298 297 301 303 299 299 301 300 299 300 302 300 299 302 303 310 313 314 313 310 312 311 311 311 312 313 313 313 310 309 310 310 316 319 314 314 311
301 301 301 302 301 301 301 298 297 301 302 299 298 298 299 299 299 301 300 302 303 305 310 310 311 312 312 312 310 311 310 311 311 312 312 311 308 311 314 313 313 314 314 310
302 301 302 303 302 301 300 300 297 298 301 300 297 297 296 297 297 298 298 301 300 301 304 305 307 311 312 311 314 309 311 310 311 310 310 308 307 308 309 310 311 314 314 310
302 302 303 304 303 301 300 300 298 299 300 299 297 297 295 295 296 296 300 299 299 300 299 302 304 306 308 310 313 312 310 308 309 309 310 309 309 309 308 308 312 311 311 311
303 303 304 304 304 301 300 299 299 299 300 302 298 295 296 295 295 296 296 297 297 297 298 301 304 304 307 308 309 310 310 308 310 310 310 310 310 310 308 310 310 310 310 310
303 304 304 303 303 300 299 299 298 298 300 302 299 296 295 294 295 295 296 296 297 298 300 301 303 304 306 307 307 309 309 310 311 312 308 308 309 307 308 310 310 309 309 308
304 304 303 303 302 299 299 300 297 296 297 300 300 296 295 294 295 296 296 297 297 298 300 301 301 299 301 305 307 307 306 306 306 307 305 306 306 307 307 308 307 306 306 306
305 302 301 302 299 298 298 298 297 296 296 299 299 298 295 294 297 297 297 296 297 297 299 300 301 300 303 304 305 305 303 303 304 304 305 308 307 308 305 306 304 302 302 302
300 300 301 300 297 296 296 295 294 295 295 296 300 299 297 295 300 300 297 298 297 297 299 299 300 301 301 302 302 302 303 302 305 302 302 304 304 304 303 303 302 303 302 301
299 300 298 297 296 296 296 294 295 294 296 299 300 304 305 296 300 300 298 298 299 299 300 301 301 302 303 303 303 303 301 300 300 300 300 303 304 305 303 302 302 303 301 300
300 298 297 297 296 295 295 294 296 296 296 296 300 298 302 299 301 300 300 300 301 303 303 302 303 304 303 301 299 299 298 297 298 299 302 302 304 303 302 302 300 300 299 298
298 297 296 296 295 295 296 296 297 296 297 297 298 299 301 297 301 301 300 301 302 304 305 304 304 305 303 299 297 298 297 296 297 296 298 298 299 300 300 299 298 297 296 295
297 296 295 295 296 295 296 297 296 296 299 297 299 298 299 298 297 298 299 300 303 303 304 306 304 304 300 298 297 295 296 295 296 294 296 294 294 296 297 296 295 294 293 291
295 296 295 297 295 297 297 298 298 298 297 297 297 298 299 298 298 298 299 302 303 303 305 305 305 301 298 297 296 295 294 294 294 294 292 292 291 291 292 292 290 289 290 289
299 299 297 301 297 297 298 299 300 298 299 298 300 299 300 299 299 299 300 302 302 305 305 306 304 300 296 296 296 295 295 295 293 293 292 291 290 290 290 289 287 287 288 288
298 300 304 297 295 292 293 293 295 296 296 298 298 298 299 298 298 299 301 303 302 304 306 306 302 297 294 295 295 294 294 293 292 292 291 291 290 289 289 289 287 286 286 286
295 294 295 293 295 292 293 295 294 294 298 297 298 297 298 299 299 299 300 301 303 306 305 302 299 296 295 295 294 295 293 292 292 292 291 290 290 289 287 287 286 285 284 285
296 295 292 294 295 294 295 296 296 295 297 298 297 297 298 298 298 299 301 303 304 303 301 299 298 296 295 294 293 293 293 292 292 292 291 290 289 288 286 286 287 285 284 283

GFSNW_925_thetae_096.txt.gz
Theta_e
300 299 299 298 298 302 305 309 315 305 304 310 310 308 303 303 302 304 306 308 308 307 308 313 312 312 310 307 305 308 310 314 313 313 312 311 313 313 316 320 319 317 318 313
301 299 299 298 298 303 306 308 309 305 304 310 310 304 304 302 302 303 304 306 305 306 309 315 311 309 310 311 307 314 311 315 317 316 315 314 315 314 317 317 316 320 323 313
300 299 298 298 298 299 304 307 311 305 306 302 303 304 304 302 302 302 302 303 305 306 309 310 311 309 311 312 312 313 313 315 315 319 317 314 313 314 316 315 319 317 319 312
300 299 298 298 298 298 303 307 311 305 308 305 302 302 303 302 302 301 302 304 305 305 308 310 310 308 311 311 312 312 313 317 315 314 314 315 315 316 316 314 316 317 316 315
300 298 298 298 298 299 302 306 304 301 301 301 302 302 302 302 301 301 302 303 304 306 306 305 307 305 309 310 310 311 312 316 313 313 314 314 316 317 316 315 315 314 314 315
300 298 298 299 297 299 304 301 301 304 302 302 302 302 301 301 300 301 301 302 304 306 305 302 302 303 304 306 310 313 313 316 314 318 313 313 315 315 315 315 314 315 316 314
299 298 299 299 298 300 303 302 301 304 302 302 302 301 300 300 300 301 301 301 302 302 302 303 305 306 307 308 310 310 310 312 311 311 311 314 309 308 310 314 313 312 312 311
299 298 299 299 299 298 302 301 302 304 302 301 301 301 301 300 300 300 300 301 300 300 304 311 312 313 312 311 310 309 309 310 312 313 311 310 311 311 311 312 313 312 312 312
299 299 299 300 300 300 299 300 302 303 302 301 301 301 300 302 301 301 302 301 301 302 306 312 313 314 311 313 312 309 309 309 311 311 313 312 312 310 309 310 315 313 313 312
299 299 300 300 299 299 299 298 301 302 301 299 300 301 301 299 300 302 301 300 303 302 309 311 311 313 310 312 311 311 310 310 310 311 311 309 309 309 309 314 316 314 313 309
299 300 300 301 301 299 301 298 300 302 300 298 299 298 299 298 299 301 299 301 303 306 309 309 309 310 310 311 309 310 309 309 310 311 311 310 309 310 314 312 313 313 312 308
300 300 301 301 301 300 299 299 299 300 301 298 298 297 297 297 297 298 298 301 300 301 304 304 306 309 310 310 312 308 310 308 309 309 310 307 307 307 307 307 308 312 312 308
300 301 302 301 300 299 301 298 299 300 299 297 297 297 296 296 296 296 298 298 299 300 299 302 304 306 306 309 312 310 310 307 307 308 309 308 307 307 307 307 310 310 310 310
301 302 302 302 301 300 298 298 300 300 300 300 297 296 296 295 296 296 296 296 297 297 297 301 303 305 306 307 307 307 307 307 309 308 308 308 307 306 307 309 309 309 308 307
302 303 304 303 301 299 298 298 299 299 300 301 297 296 296 295 295 296 297 296 296 297 298 300 303 303 305 306 306 305 307 307 308 312 305 304 305 304 307 307 309 309 307 306
303 304 304 304 302 300 298 300 297 296 298 300 298 295 295 294 296 296 296 296 296 297 298 300 300 299 299 302 305 305 303 303 303 304 303 303 304 305 305 306 305 304 304 304
304 304 305 303 299 298 298 299 298 296 297 299 297 297 294 296 297 297 297 296 297 297 298 298 300 300 301 302 303 302 301 301 301 301 302 306 304 304 303 304 302 302 302 302
304 304 302 300 297 296 296 295 295 295 296 296 299 297 295 295 299 299 298 297 296 297 298 298 299 300 299 300 301 301 300 300 302 299 299 300 301 302 303 302 302 302 301 300
303 301 299 297 297 297 296 294 294 294 296 299 299 298 299 295 300 299 297 298 299 299 299 300 301 301 301 302 301 300 299 299 299 298 299 301 302 302 302 302 302 302 300 299
300 298 297 297 296 295 294 295 296 296 296 296 300 298 298 298 300 300 301 300 302 302 302 302 302 300 301 299 298 298 298 297 297 298 298 299 299 300 302 301 300 299 298 297
298 297 297 296 294 295 297 297 297 296 297 297 298 298 297 297 301 301 299 301 302 303 304 303 304 303 301 297 297 296 296 296 296 296 296 297 298 299 300 299 298 296 295 293
297 296 295 295 296 296 297 297 297 296 299 297 297 297 297 297 297 298 299 300 299 302 302 304 303 301 298 297 296 296 295 295 294 294 295 294 294 293 295 295 293 292 292 291
296 296 297 297 296 298 297 298 298 298 298 297 297 298 298 297 298 299 299 299 299 301 303 304 302 298 297 295 296 296 295 294 294 293 292 292 292 291 291 291 290 289 289 289
297 298 297 299 297 298 299 301 300 298 297 297 297 297 298 298 298 298 300 300 300 303 304 300 297 295 294 296 295 295 295 294 294 293 291 290 290 290 290 288 287 286 287 287
298 300 303 297 295 293 294 295 296 297 297 297 296 295 297 297 298 298 300 303 301 301 297 297 294 291 294 294 295 294 294 293 292 291 290 290 290 290 289 288 287 286 285 286
296 296 295 294 294 292 294 295 296 296 296 294 295 294 292 295 297 299 299 300 295 296 296 293 292 289 288 293 293 293 293 292 292 291 290 289 289 289 287 287 287 288 288 286
297 295 293 295 295 294 295 295 295 295 294 294 292 291 292 293 297 298 297 295 295 294 293 291 292 292 292 291 292 292 292 292 292 291 290 289 289 289 288 287 289 287 286 284

GFSNW_925_thetae_099.txt.gz
Theta_e
308 307 304 299 298 301 305 306 307 305 304 299 301 297 302 303 301 302 306 305 306 306 308 313 308 309 310 309 303 310 310 311 309 310 313 310 309 311 317 313 318 310 307 310
306 305 302 299 298 303 305 306 302 304 304 297 297 302 303 301 301 302 303 304 305 305 308 314 309 308 308 310 310 311 310 315 312 313 314 313 314 313 316 316 312 315 318 312
306 305 300 298 297 304 305 302 302 300 300 297 300 302 303 302 300 301 302 303 304 305 309 309 310 308 309 311 312 311 312 313 313 311 311 311 312 313 314 310 311 319 318 313
306 303 300 298 297 302 304 302 304 302 301 299 300 301 302 302 301 300 301 303 304 305 305 309 309 308 310 310 310 309 312 315 313 313 313 314 313 313 315 314 315 317 317 313
305 303 299 298 298 298 302 300 298 297 298 299 300 300 300 301 301 301 302 302 303 306 304 305 307 305 308 308 309 309 309 312 313 309 313 314 315 315 315 315 315 314 314 314
305 301 299 298 298 299 300 300 300 297 300 299 298 299 299 300 300 300 300 301 301 306 303 301 301 303 303 305 309 312 312 314 312 312 311 312 314 314 315 314 314 314 315 312
303 300 298 298 298 299 303 301 299 298 299 298 299 300 299 300 300 300 300 300 300 301 300 301 303 303 305 306 307 307 310 309 308 308 308 313 309 307 310 313 312 311 310 310
302 300 298 299 298 299 302 301 300 299 298 297 299 299 299 298 298 298 299 300 299 299 304 308 311 310 310 309 308 308 307 308 310 310 308 309 311 310 310 311 313 311 311 311
301 300 298 299 298 298 301 301 302 299 297 298 299 298 299 297 297 299 300 299 300 302 307 309 311 310 311 312 311 308 307 307 309 308 310 311 311 309 308 309 313 312 311 309
301 299 299 299 299 298 300 300 302 299 296 296 298 297 297 297 298 298 299 299 299 301 307 309 304 310 308 310 310 310 308 307 308 309 309 308 309 308 308 310 313 313 310 308
302 299 299 299 299 299 299 300 301 300 294 295 297 297 296 296 296 298 297 299 300 300 307 308 308 307 308 308 308 308 307 306 307 306 310 309 309 310 313 310 310 312 309 307
300 299 300 300 299 299 299 300 300 300 296 295 296 296 296 297 296 296 296 298 299 301 304 304 306 306 306 307 311 307 308 306 309 307 308 305 305 306 306 305 306 311 309 308
299 300 300 300 300 299 299 300 298 297 295 294 294 295 296 296 296 297 295 296 299 300 298 302 304 306 303 307 310 308 308 304 305 307 307 307 306 306 305 307 309 309 309 309
300 301 301 300 300 299 299 300 300 299 296 296 294 295 295 296 296 296 296 295 296 296 294 300 303 305 303 304 305 304 305 306 307 308 305 306 304 304 306 306 308 307 306 307
301 300 301 300 299 298 299 300 299 300 298 296 294 295 295 295 296 296 296 296 294 294 295 297 301 301 302 304 305 302 302 304 307 308 304 305 304 303 305 306 307 307 306 304
302 302 301 301 299 298 298 296 297 298 298 294 295 293 294 294 296 295 295 295 295 295 297 298 299 297 297 299 303 302 300 300 301 302 302 303 303 303 302 304 303 302 303 303
302 303 302 301 298 298 297 297 297 297 299 295 294 294 293 296 296 295 295 295 296 296 298 296 298 298 298 299 300 300 300 299 299 298 300 303 302 301 300 302 302 302 301 301
304 304 303 299 297 296 296 296 296 296 296 296 294 293 292 295 298 298 297 297 296 296 297 297 297 298 297 299 298 300 298 298 297 296 297 298 299 300 301 301 301 301 300 299
303 301 298 297 297 296 295 294 294 295 296 296 295 291 293 293 299 298 297 298 299 298 298 299 300 299 300 298 299 299 298 298 298 297 296 297 298 299 300 301 301 301 299 298
301 299 297 296 296 294 294 295 294 293 294 295 297 294 294 295 298 299 300 299 301 301 301 301 301 300 298 298 296 297 297 297 297 297 297 297 297 298 300 300 299 299 298 296
297 296 297 296 295 295 296 295 294 294 296 295 296 294 296 296 299 299 299 300 301 301 302 300 303 302 299 295 295 295 296 295 295 296 295 296 297 297 298 298 296 295 293 292
296 296 295 295 296 296 297 294 295 296 298 295 294 295 292 296 296 298 299 299 298 296 301 302 299 298 296 294 294 295 295 295 294 294 294 294 294 293 295 294 292 291 290 289
298 296 295 297 296 295 294 296 296 297 296 296 294 294 296 295 297 297 298 299 293 298 301 299 296 295 295 293 294 295 295 294 294 294 293 292 291 290 292 291 290 290 289 288
299 297 298 299 298 297 296 298 298 297 296 296 295 294 295 296 297 297 292 298 300 301 296 295 292 294 293 293 294 295 295 294 294 293 292 291 290 289 289 287 286 286 286 286
298 298 301 295 293 293 295 294 296 295 297 295 295 294 296 297 297 297 295 300 300 296 294 292 289 288 290 294 295 295 294 293 293 292 291 290 290 289 289 288 288 286 286 288
295 294 293 293 292 293 294 296 297 296 296 292 293 292 291 294 295 298 293 292 291 292 290 289 289 289 292 293 293 293 293 292 292 292 291 290 290 288 288 287 287 288 288 288
296 293 292 294 294 293 295 296 296 294 294 295 291 291 293 291 291 292 294 293 290 296 292 286 289 290 289 289 290 291 292 292 292 292 291 290 290 289 288 287 288 289 287 286

GFSNW_925_thetae_102.txt.gz
Theta_e
315 311 308 306 303 305 307 306 307 304 304 298 296 296 301 302 301 301 306 305 306 304 308 310 307 307 308 308 307 310 309 308 307 307 311 309 308 310 315 307 314 305 302 310
314 310 307 306 305 306 306 306 301 304 303 297 295 300 302 301 302 301 302 303 304 305 308 311 307 306 306 309 310 311 310 311 310 308 313 310 312 312 314 311 307 311 305 310
311 308 307 305 304 304 306 301 299 299 297 295 298 301 301 301 300 301 301 303 303 305 308 307 309 303 308 310 312 311 312 313 308 304 308 309 310 312 314 307 305 313 309 314
310 307 306 301 302 304 304 302 300 299 299 298 299 300 301 301 301 300 301 303 304 304 307 308 308 306 307 308 309 308 312 313 313 313 312 312 311 312 313 308 314 318 317 315
309 305 304 299 301 306 303 302 297 294 296 297 298 300 299 300 300 300 301 302 303 303 305 304 308 306 308 307 307 308 307 311 310 308 311 313 314 313 313 315 314 315 315 314
308 306 301 299 302 304 300 299 299 295 298 297 297 297 298 300 299 299 300 301 300 304 302 301 301 302 303 304 307 311 311 310 310 310 309 311 310 314 313 314 313 312 314 311
307 305 300 299 299 301 301 299 298 296 298 297 298 298 299 299 299 300 300 300 300 300 299 301 302 303 304 305 306 304 308 307 307 307 306 311 308 306 311 313 310 310 310 310
307 304 300 299 298 301 301 300 299 296 297 296 298 298 298 297 298 298 299 299 298 298 303 306 310 309 308 308 306 307 305 307 309 308 307 307 311 310 310 311 313 311 311 310
306 302 300 299 298 301 301 301 302 296 297 297 297 297 296 296 296 298 299 299 299 301 307 308 309 309 309 311 310 305 305 305 307 307 309 311 310 308 307 308 314 312 310 308
305 302 299 298 298 299 300 301 302 297 296 296 296 296 297 295 296 297 298 299 299 300 305 307 303 309 307 309 310 310 307 306 307 308 310 307 307 308 307 309 310 313 308 307
304 300 299 299 299 298 299 300 301 298 294 294 296 296 295 296 296 297 296 300 297 298 305 308 307 306 306 307 307 307 306 305 306 305 309 309 307 309 313 308 308 311 308 307
302 299 299 299 298 298 299 300 298 298 295 294 296 295 296 296 296 294 295 298 298 298 300 301 303 306 304 305 309 306 307 305 308 306 306 303 303 305 304 304 305 310 308 307
301 299 300 300 299 299 299 298 297 296 294 293 293 294 295 296 296 297 296 295 297 298 296 301 303 305 304 305 308 306 307 304 304 306 306 305 304 304 304 305 308 308 308 308
301 300 300 299 299 299 300 298 298 297 294 295 294 295 295 295 296 296 296 295 295 294 294 299 303 304 300 304 303 302 303 304 305 306 305 304 303 302 304 305 307 306 305 307
301 302 300 300 299 299 299 299 299 299 296 295 294 294 294 295 296 296 296 295 293 293 295 297 299 300 300 302 304 301 301 303 306 306 303 304 304 303 302 304 304 305 305 304
301 301 301 299 298 299 299 295 299 297 297 293 295 292 293 294 295 295 294 294 293 293 294 296 296 296 297 298 302 301 300 299 300 302 301 302 302 303 300 302 302 302 304 303
301 301 300 298 299 299 297 295 296 299 297 293 294 293 292 295 295 295 295 296 294 293 294 295 295 296 296 298 300 299 299 299 297 296 297 302 301 300 298 299 301 301 301 302
301 301 299 298 297 297 296 296 296 297 297 294 292 292 293 295 297 297 296 297 296 294 295 294 295 296 295 298 297 298 298 297 296 295 295 295 296 297 298 301 300 300 299 298
301 300 299 297 297 294 295 295 296 297 296 295 291 290 291 293 298 297 297 298 294 296 295 296 297 297 298 298 296 298 296 297 297 297 297 296 295 297 299 299 299 300 299 298
300 298 297 296 295 294 295 295 293 292 292 294 296 292 294 296 299 299 297 298 300 297 297 298 299 298 297 296 296 295 295 296 297 297 298 297 296 297 298 299 298 297 297 295
299 296 296 294 295 296 295 292 293 292 294 295 294 293 297 295 298 300 298 297 300 295 296 298 296 298 297 294 294 293 293 294 296 296 296 295 295 296 297 298 296 295 293 292
297 295 295 295 295 297 301 291 293 294 296 294 294 293 292 293 294 298 298 297 298 295 299 301 298 296 295 293 293 292 292 294 294 294 294 294 294 293 294 294 293 291 290 290
299 297 296 298 297 301 300 296 293 294 294 293 293 294 293 294 294 297 298 299 294 299 300 297 294 292 293 292 292 293 294 294 294 294 293 292 292 291 291 291 290 290 289 288
299 298 299 300 298 297 295 297 297 293 295 295 293 293 294 294 292 297 294 295 301 300 296 294 290 292 292 291 292 293 294 295 294 294 292 292 291 290 289 287 287 287 287 287
298 299 302 297 293 293 295 292 295 295 296 294 294 293 294 294 294 295 294 299 299 295 293 291 288 287 289 290 292 294 294 294 293 292 291 291 290 290 289 289 288 287 285 286
295 294 292 292 293 294 295 296 297 296 295 292 292 292 291 294 293 293 296 294 291 292 288 287 287 289 290 292 292 290 293 293 292 292 291 291 290 290 289 288 288 288 287 287
295 291 292 292 294 294 296 297 296 293 294 292 290 292 293 291 289 292 291 292 290 286 295 290 287 291 291 288 290 291 291 291 292 291 291 291 291 290 289 287 288 288 288 288

GFSNW_925_thetae_105.txt.gz
Theta_e
303 304 310 309 305 305 306 305 307 303 303 297 294 295 300 302 301 302 305 304 305 305 308 309 306 304 307 306 308 309 308 304 303 306 308 310 308 309 312 309 313 307 302 312
303 304 309 307 304 306 307 303 303 303 303 297 293 299 301 300 302 301 303 302 304 304 308 307 306 304 305 308 309 310 310 308 301 303 310 310 311 311 312 308 305 313 303 310
303 306 310 306 304 307 306 301 301 300 297 293 297 300 300 300 299 300 301 303 303 305 308 306 307 302 308 309 311 311 312 313 305 303 307 308 310 311 313 302 303 313 307 312
303 311 308 305 306 307 304 302 300 300 299 298 298 299 299 300 300 299 300 303 304 300 305 307 307 303 307 308 308 308 311 313 315 313 311 310 310 311 313 304 310 307 314 313
304 309 308 306 304 306 302 302 299 294 296 296 298 300 299 300 299 300 301 303 305 304 305 301 308 305 306 303 307 308 309 311 309 307 310 312 313 311 312 314 313 314 313 314
308 309 307 305 304 306 301 298 296 296 297 296 297 297 297 299 298 299 300 300 301 303 302 301 301 301 302 303 306 309 310 307 306 308 306 311 309 309 312 313 312 313 315 313
310 308 306 303 301 304 301 300 296 296 298 297 298 297 298 298 299 299 299 299 300 300 299 300 302 302 304 305 306 304 307 306 306 307 305 310 307 306 310 311 310 310 309 310
305 306 305 303 301 305 300 299 298 296 296 296 297 297 297 297 297 298 299 299 297 297 302 306 309 308 308 308 305 304 303 306 308 308 307 306 311 309 311 311 313 311 311 310
306 307 305 303 301 304 300 300 299 295 297 297 297 296 295 295 295 297 299 298 298 301 307 307 308 308 309 310 309 304 304 304 306 306 308 311 309 307 306 308 314 311 309 308
309 306 304 304 301 301 300 301 299 297 296 295 295 296 295 294 295 296 298 298 299 299 304 304 302 307 306 308 310 309 305 305 306 307 306 306 304 307 306 309 307 312 308 307
308 305 304 301 299 300 299 300 299 297 294 294 295 295 295 295 295 297 295 299 297 298 304 304 304 305 304 305 306 306 306 304 306 304 308 308 302 307 311 305 308 310 307 306
307 304 302 299 300 299 299 298 297 297 294 294 295 294 295 295 295 294 294 297 296 297 300 299 301 304 297 302 306 304 306 303 306 304 305 302 303 305 304 305 304 309 307 306
304 302 299 300 301 299 300 297 296 296 293 292 293 294 295 296 296 296 296 294 296 297 295 298 300 303 301 301 303 305 305 302 303 305 305 304 302 303 303 303 306 306 307 307
303 299 299 301 300 299 299 297 296 297 293 294 294 294 294 295 296 296 296 294 294 293 293 297 300 300 299 301 302 301 301 302 304 304 304 303 303 302 302 303 304 305 304 306
300 302 300 299 299 299 299 298 299 298 295 295 293 293 293 295 295 295 295 294 292 292 295 297 299 298 299 299 300 299 299 302 304 308 302 303 304 304 302 302 302 302 304 305
301 300 299 299 299 299 299 296 298 297 297 293 295 291 292 295 295 294 294 293 291 291 294 295 294 295 296 298 299 299 298 298 299 301 299 300 300 301 297 299 300 300 302 303
300 300 299 299 299 298 296 295 297 297 296 293 293 293 291 295 295 294 293 294 292 292 293 295 294 295 295 297 298 297 297 297 296 296 297 301 298 298 296 297 299 300 300 301
300 299 299 298 298 297 296 296 297 297 295 292 291 293 295 295 297 297 296 294 293 293 293 293 295 295 294 298 296 296 297 295 295 295 295 296 295 295 296 298 298 299 298 298
300 300 298 297 297 295 295 296 296 297 296 292 290 291 291 293 298 295 296 295 292 294 294 295 295 296 298 298 295 295 295 296 296 296 296 297 296 295 296 297 299 299 299 298
298 299 297 296 294 295 296 295 293 291 291 293 292 292 295 295 298 297 295 295 295 289 296 295 297 297 296 295 294 294 294 294 295 297 297 297 297 297 296 296 297 297 297 295
299 296 296 294 295 296 293 292 292 291 293 294 292 292 295 294 294 296 295 290 292 290 295 296 294 297 296 293 293 292 292 293 294 296 296 295 295 296 295 295 296 295 294 293
298 295 295 295 296 296 298 290 292 293 295 293 293 293 291 292 293 296 295 292 296 292 297 299 297 295 294 292 292 291 291 292 293 295 294 294 294 294 293 294 294 292 291 290
298 298 298 299 298 300 302 300 292 291 292 292 293 294 293 293 293 296 295 294 292 297 300 297 294 291 292 291 291 291 292 293 294 294 294 293 292 291 291 292 291 291 290 289
299 299 300 301 299 299 297 296 292 291 292 294 292 294 294 294 292 296 289 294 299 300 296 295 289 290 291 290 291 291 292 292 294 294 293 293 292 291 290 289 287 287 288 287
299 300 304 299 294 295 294 287 292 291 295 292 293 291 293 291 293 294 293 299 299 296 293 290 288 286 290 289 290 290 290 290 292 293 292 292 291 290 290 289 289 287 285 286
296 294 294 293 295 296 294 291 294 293 294 291 292 292 290 293 292 291 291 293 293 291 288 287 283 286 287 290 291 289 290 292 293 292 292 292 291 291 290 289 289 288 288 287
294 293 292 292 294 295 295 296 296 294 295 296 291 290 291 290 288 290 290 292 291 286 284 292 288 290 289 288 289 290 290 291 292 292 292 291 291 291 290 288 289 289 288 288

GFSNW_925_thetae_108.txt.gz
Theta_e
303 303 303 304 305 305 305 304 305 302 303 301 293 295 299 301 301 303 304 303 304 305 308 307 297 303 305 305 308 309 308 303 305 310 308 310 308 309 312 308 313 305 305 312
303 304 301 304 308 301 306 303 304 302 301 298 294 298 300 299 301 301 303 302 303 304 307 305 305 299 304 307 309 311 310 305 296 301 304 308 310 311 312 306 305 313 310 312
302 303 302 303 307 302 305 300 304 302 301 294 297 299 299 300 299 300 302 302 303 305 308 305 306 301 307 308 308 311 311 312 304 306 309 307 307 310 309 300 305 311 308 311
302 301 302 304 307 304 303 299 301 302 304 297 297 298 299 299 300 299 301 303 303 301 305 306 306 303 306 307 306 308 310 310 312 313 311 310 310 310 312 303 309 305 311 312
301 302 309 309 304 306 301 301 300 295 295 296 297 300 299 299 299 299 300 303 303 302 303 300 304 304 306 302 307 309 309 308 308 307 307 311 311 310 312 311 313 312 311 312
300 303 305 306 303 307 300 297 295 297 297 296 297 297 297 299 298 299 299 301 302 303 302 300 300 300 301 303 306 308 309 305 304 306 305 310 307 307 311 312 311 312 314 312
301 307 305 305 304 306 301 299 295 297 298 297 297 297 298 298 298 299 299 299 301 300 298 300 302 302 304 304 305 303 306 305 305 306 304 309 306 306 308 310 309 308 309 309
303 308 307 304 307 304 300 299 296 296 296 295 297 297 296 296 296 298 298 298 297 296 302 306 308 307 307 307 305 304 303 304 307 307 306 306 310 308 313 312 312 311 310 309
302 305 307 304 306 305 300 299 297 295 296 296 296 295 296 295 295 297 298 298 297 301 306 307 308 307 308 309 308 303 303 302 304 305 306 311 308 306 305 307 313 311 309 307
302 304 307 303 304 306 300 299 297 296 295 294 295 295 295 293 294 295 297 299 299 299 303 304 301 306 305 308 308 308 304 304 305 306 305 306 303 305 305 308 305 310 308 306
303 307 305 304 305 305 300 298 298 297 294 293 294 294 293 294 294 297 295 299 297 297 303 303 302 304 303 304 304 305 305 303 305 304 307 307 302 305 309 304 305 309 307 306
303 307 304 302 302 301 300 297 297 298 294 293 294 294 294 294 294 293 293 296 296 298 299 299 300 303 294 301 305 303 305 302 304 303 304 302 303 305 303 303 304 307 307 305
307 306 303 300 302 300 300 297 296 296 293 292 292 293 295 295 295 295 297 294 296 296 294 296 299 303 299 300 301 305 304 301 302 304 304 303 303 303 302 303 304 304 304 305
307 305 302 299 301 300 299 297 296 296 293 294 293 294 294 295 295 296 296 294 294 293 293 297 298 300 297 299 300 300 300 302 302 302 303 302 302 302 301 302 301 302 302 304
304 302 299 300 300 299 298 297 298 297 295 295 293 292 293 294 295 295 295 294 292 292 295 296 298 296 298 296 298 298 297 301 303 304 301 302 302 301 300 301 301 300 301 303
300 299 301 300 300 298 298 296 297 297 296 293 295 291 292 294 295 294 293 292 290 291 294 294 293 293 296 298 299 297 297 297 298 301 300 300 300 298 297 299 299 300 300 300
301 300 299 299 299 298 296 296 296 296 296 292 293 293 292 294 294 293 292 292 291 292 293 294 294 295 294 296 297 296 296 296 296 295 297 300 298 298 295 297 298 299 299 299
300 300 299 299 298 297 297 296 296 296 294 291 291 294 295 295 294 294 293 293 292 292 293 292 294 294 294 298 295 295 295 294 295 296 294 295 295 295 295 296 297 298 297 296
299 299 299 298 297 295 296 296 297 297 295 292 291 294 294 293 295 293 293 292 292 293 294 294 294 296 297 297 295 294 294 296 296 294 295 295 296 296 295 294 295 297 299 298
299 298 297 296 295 295 295 295 294 292 292 292 292 292 296 294 294 293 293 294 294 288 295 294 296 296 295 294 293 293 294 293 293 295 296 295 296 296 296 296 296 295 295 295
299 296 295 294 295 295 292 293 293 292 294 294 291 292 294 293 292 293 294 289 290 289 294 295 293 297 295 292 292 291 292 292 293 294 294 295 295 296 295 295 296 295 294 294
298 295 296 296 296 296 294 290 291 292 295 292 293 293 291 292 292 293 293 291 288 292 294 294 294 294 292 291 291 291 291 291 292 294 293 294 294 294 294 294 294 293 292 291
298 299 298 298 296 297 298 299 293 292 291 293 294 294 293 293 292 292 291 288 293 296 299 297 293 291 292 290 290 290 291 292 292 292 294 293 293 292 292 292 292 291 290 290
300 300 302 301 300 297 298 298 295 290 291 294 293 294 294 293 292 292 289 293 297 300 292 294 288 289 290 289 290 290 290 291 291 291 293 293 292 292 291 290 289 287 288 289
299 300 304 300 294 295 293 289 292 290 295 292 292 292 293 291 293 293 294 298 298 295 293 290 287 285 288 289 290 289 289 289 289 292 292 292 292 291 290 290 289 288 286 285
296 295 295 294 295 296 294 290 293 291 294 290 291 291 290 292 292 292 291 292 291 292 288 286 280 283 287 289 290 289 288 289 290 292 292 292 292 291 291 290 289 289 288 288
295 294 292 292 293 295 295 294 294 293 293 292 290 290 292 290 288 290 290 290 291 287 284 284 287 288 288 288 289 289 289 289 291 292 292 291 291 291 290 289 290 289 289 289

GFSNW_925_thetae_111.txt.gz
Theta_e
303 302 303 304 304 306 305 303 305 302 302 303 296 295 298 300 300 303 303 303 302 304 306 305 295 303 305 304 308 310 307 303 307 309 307 310 308 310 311 310 314 306 312 315
303 302 304 304 304 304 305 304 303 302 300 301 294 297 299 299 300 301 302 303 303 304 305 303 303 299 303 306 309 311 311 306 302 305 306 307 309 310 310 305 307 311 312 314
302 301 303 303 302 305 303 302 305 303 302 296 297 299 299 300 298 299 301 302 303 305 306 303 305 298 306 308 307 310 310 312 306 314 312 309 310 310 309 302 312 312 310 310
303 302 302 300 303 305 303 300 303 303 303 302 296 298 298 299 300 299 301 303 303 300 304 306 305 302 304 306 307 308 308 310 312 311 311 311 310 311 311 309 309 309 311 310
302 302 302 301 301 306 302 299 299 294 295 296 296 299 297 299 298 299 301 303 302 301 302 300 303 303 302 301 305 308 306 306 307 306 309 309 309 309 310 312 311 311 310 311
302 303 302 302 306 303 300 297 295 296 296 295 296 296 296 298 298 299 299 300 301 303 302 300 300 299 300 303 305 306 307 305 304 306 305 309 307 307 311 311 309 311 313 311
302 302 302 303 304 304 301 298 295 296 297 297 297 296 297 297 298 299 299 299 301 300 298 299 301 303 303 304 304 302 305 305 305 305 303 309 305 306 307 310 309 307 308 308
302 302 306 307 304 304 301 298 295 295 296 295 296 296 296 295 296 297 298 298 296 296 301 304 307 304 306 306 302 304 301 303 306 307 305 305 309 307 312 312 313 309 309 306
302 307 307 306 305 303 299 297 296 294 296 296 295 295 295 295 295 296 298 297 297 301 305 306 307 306 307 308 307 302 303 300 304 305 306 310 308 305 304 307 313 309 307 306
301 306 306 305 305 304 300 297 297 295 294 293 294 294 295 293 294 295 297 299 300 299 303 304 300 306 304 308 308 308 303 303 304 307 305 305 303 303 304 307 307 309 306 306
302 305 306 306 306 305 300 296 297 296 292 292 292 293 292 293 294 296 295 299 296 297 303 302 302 303 302 304 303 305 304 303 305 303 306 307 303 304 308 303 304 308 306 305
303 306 304 305 306 305 300 297 296 296 292 292 293 293 293 294 293 292 293 296 296 298 299 298 299 303 293 299 305 301 305 301 304 303 304 300 303 304 303 303 303 306 306 304
303 307 305 305 304 303 300 297 296 296 291 291 292 292 294 295 295 295 296 293 295 296 293 296 298 302 298 300 301 304 303 299 301 304 304 303 303 302 302 303 304 304 304 304
304 307 304 301 302 300 298 297 296 296 292 294 293 293 293 294 295 295 295 294 293 292 292 297 298 300 296 298 299 300 300 300 300 301 302 302 301 302 301 302 300 301 302 304
307 306 302 299 300 299 298 297 297 296 295 295 293 291 293 293 295 295 295 294 292 292 295 296 298 296 297 295 296 297 296 300 302 303 300 301 300 300 299 301 301 300 301 302
305 303 299 300 301 299 298 296 296 297 296 292 295 290 293 294 294 293 292 291 290 291 294 294 293 292 295 297 298 296 295 296 298 301 298 299 299 296 297 299 299 299 299 300
302 299 299 299 299 298 296 296 296 296 296 291 292 294 292 294 293 292 291 291 290 291 292 294 293 294 294 295 297 295 295 295 295 296 297 299 298 298 296 297 298 299 298 298
299 300 300 298 298 298 297 295 295 295 294 291 290 294 295 294 293 294 291 292 291 291 292 292 294 293 293 297 295 294 294 293 294 294 294 295 293 294 295 295 295 297 297 296
299 298 298 298 297 296 296 296 296 296 295 292 290 294 296 292 293 292 292 291 292 292 294 294 294 295 297 297 294 293 293 295 295 293 293 293 294 294 294 295 294 295 295 296
299 299 298 296 295 296 295 295 294 292 292 291 292 291 295 293 293 292 293 293 294 288 295 293 296 296 295 293 293 292 293 293 293 294 295 294 294 295 295 296 296 296 295 294
300 297 296 295 295 295 292 293 295 293 295 293 291 292 294 292 292 293 293 291 289 289 294 295 293 295 294 292 292 290 292 292 292 294 294 293 293 293 294 295 296 296 295 294
299 296 295 296 297 296 294 292 292 293 295 292 293 292 291 292 291 293 292 289 286 292 292 293 294 294 292 290 290 289 291 291 291 293 292 293 294 294 294 295 295 294 293 292
298 299 298 298 296 296 294 295 294 292 293 293 293 294 293 292 292 291 289 287 290 294 297 295 293 290 291 289 289 289 290 292 292 292 293 293 293 293 293 293 292 292 291 291
300 300 297 296 297 296 296 297 298 293 291 294 293 293 294 293 292 291 289 293 294 298 292 293 288 287 288 288 289 290 290 290 290 290 292 291 292 292 292 291 290 289 288 289
300 300 304 299 294 294 292 288 291 290 293 292 292 292 292 291 293 293 293 296 298 295 293 291 286 283 285 288 290 288 289 289 288 290 290 291 292 291 291 291 290 289 289 286
296 295 296 295 297 296 294 290 293 290 293 290 291 291 291 292 293 292 292 292 292 292 289 286 280 281 284 289 290 288 288 288 289 291 291 291 292 291 291 291 290 290 289 289
295 293 291 291 292 294 293 292 293 292 292 292 290 291 293 290 288 292 291 291 291 286 284 282 286 286 287 287 288 288 289 289 289 290 291 291 291 291 291 289 291 290 290 289

GFSNW_925_thetae_114.txt.gz
Theta_e
302 302 304 304 303 304 305 303 306 302 302 305 302 306 300 301 302 305 305 306 306 306 307 306 306 308 307 307 309 310 310 309 314 313 309 311 311 314 314 320 317 314 317 317
302 302 303 303 303 302 303 303 303 301 300 305 305 300 301 301 302 305 304 306 305 305 307 307 306 305 307 307 311 312 312 312 314 312 311 311 312 313 312 311 314 315 319 318
302 302 303 303 303 303 302 304 305 303 304 301 301 302 302 302 300 302 302 304 305 307 307 307 307 308 307 308 307 310 311 312 313 315 314 313 315 315 313 312 319 316 316 315
302 302 301 303 302 302 302 303 305 304 304 304 301 300 302 302 302 301 303 305 306 307 307 307 307 306 307 307 308 310 311 314 312 313 313 312 314 315 314 314 313 318 314 314
302 302 302 303 301 302 302 302 303 300 301 304 303 300 301 302 301 303 304 305 306 305 307 306 307 306 307 308 309 310 309 314 311 312 310 312 314 313 314 314 314 314 314 314
302 302 301 302 302 305 302 297 297 301 300 303 304 302 300 301 301 300 301 304 306 306 305 304 304 304 304 306 308 310 311 311 311 314 309 311 314 312 314 313 312 314 316 313
302 302 303 302 302 302 302 298 298 301 300 302 303 299 300 301 301 302 301 303 306 302 300 303 304 306 306 307 307 307 310 310 310 311 309 313 310 310 310 314 313 312 312 311
301 301 301 302 303 304 301 298 298 300 300 301 298 299 300 300 300 301 302 300 299 301 305 308 309 309 310 309 307 307 307 309 310 312 311 310 310 310 313 314 315 311 310 310
300 302 303 303 304 304 300 297 296 298 300 300 298 300 300 301 302 302 300 300 299 303 308 309 310 311 310 310 310 306 306 306 310 311 312 313 310 308 307 310 316 311 310 310
303 307 306 305 304 303 300 296 296 298 299 296 296 300 300 299 299 302 301 302 304 302 308 310 310 310 307 310 310 310 309 309 311 312 311 309 306 306 306 311 314 312 309 310
304 305 303 303 301 300 299 295 296 297 297 295 294 294 297 297 299 303 300 304 303 305 309 308 309 309 308 309 307 308 309 309 309 310 312 312 306 307 309 310 309 311 309 308
304 306 304 303 303 301 299 296 296 296 297 295 293 293 293 293 294 299 299 301 303 307 307 305 306 308 306 307 309 305 308 307 309 308 308 305 306 308 307 307 310 310 310 308
305 306 305 305 305 304 299 296 296 296 296 296 296 295 294 294 294 295 303 299 300 301 299 304 305 307 305 309 308 308 306 303 307 308 306 307 306 306 306 307 308 307 308 307
306 306 305 306 304 304 299 297 296 296 297 299 296 293 294 293 294 295 295 297 296 297 299 303 305 306 302 305 304 307 306 305 306 306 305 305 305 305 306 305 304 305 305 307
306 306 306 305 305 301 298 297 296 296 299 298 297 293 293 293 294 294 295 296 298 299 302 303 304 302 303 301 302 305 304 307 308 309 307 307 307 305 303 304 303 303 305 306
305 305 304 301 300 298 298 300 296 296 296 299 299 293 294 294 294 294 294 294 296 297 300 300 298 296 300 304 304 302 302 302 304 307 304 304 304 302 301 302 302 302 302 302
305 303 299 300 299 298 297 298 296 296 295 297 297 297 295 294 294 295 296 294 295 297 298 299 299 299 299 301 303 300 300 301 301 302 303 303 302 303 300 300 300 300 300 300
304 302 299 300 298 298 296 295 295 295 294 295 297 296 297 295 297 298 295 297 296 296 297 297 299 298 298 302 301 297 299 300 300 301 298 302 301 299 299 298 298 300 300 300
300 299 298 298 298 297 296 296 296 295 296 298 296 299 300 295 296 296 297 296 299 296 298 298 297 300 302 302 300 298 299 301 301 298 298 298 299 298 298 298 298 299 299 299
298 298 298 299 295 295 295 295 298 297 296 295 296 295 298 297 296 297 298 297 299 301 299 296 299 301 300 297 297 298 299 299 298 299 298 298 298 298 298 298 298 298 297 297
300 299 297 295 295 295 295 298 300 297 299 295 295 295 297 295 299 299 296 297 297 301 299 300 301 301 299 296 296 295 298 297 298 298 299 298 298 298 297 297 297 297 296 296
300 297 296 296 298 298 298 298 295 296 299 294 296 296 296 295 294 298 296 298 295 301 297 299 301 301 296 294 295 294 297 297 297 296 297 296 296 296 296 296 296 296 295 294
299 299 300 300 300 302 300 299 298 297 295 294 295 297 296 294 295 296 296 297 299 297 299 301 301 297 294 293 294 294 296 296 295 295 295 295 295 295 295 295 294 294 293 292
300 300 302 301 301 300 302 301 301 296 296 295 296 296 298 296 297 296 298 296 297 299 299 301 300 296 295 293 293 294 295 296 296 295 294 294 294 293 293 293 292 291 291 290
301 301 302 298 298 295 294 292 294 293 295 295 295 296 296 296 296 296 296 297 299 298 301 300 298 292 290 292 294 295 294 294 294 293 293 293 292 292 292 291 291 290 290 289
297 297 299 296 298 297 294 294 295 293 295 293 295 295 296 298 297 297 298 298 300 303 298 297 290 288 289 293 293 293 292 291 291 291 291 292 291 291 291 291 291 290 290 289
296 296 293 296 296 298 296 294 295 294 295 299 295 296 299 294 295 297 296 299 301 296 294 290 290 291 291 292 293 291 291 291 291 291 291 292 292 291 290 290 290 290 290 290

GFSNW_925_thetae_117.txt.gz
Theta_e
302 302 302 303 303 304 303 303 305 301 302 306 306 309 302 303 304 307 307 307 308 308 308 308 310 310 309 309 309 311 310 311 317 314 311 311 313 315 314 323 319 319 317 318
301 302 302 302 303 302 303 303 303 301 302 308 308 303 303 303 305 307 306 308 307 307 308 309 309 309 308 308 310 313 312 313 319 318 313 313 315 314 314 314 319 319 318 320
301 302 303 303 302 302 302 303 305 303 303 304 306 304 304 304 303 306 304 306 307 307 308 307 309 309 308 308 309 310 312 311 315 317 315 314 317 315 315 317 320 318 319 316
301 302 302 303 302 301 301 305 307 305 306 305 303 303 303 304 304 304 305 306 308 309 309 308 309 308 309 308 309 311 312 313 312 313 314 314 315 315 315 317 316 319 316 315
301 302 302 302 301 303 303 305 306 305 304 304 305 302 303 303 303 305 305 307 308 307 309 308 308 308 309 310 310 311 311 314 312 313 312 314 314 315 315 315 315 315 315 315
301 302 302 303 301 302 303 301 301 305 304 305 305 305 303 303 303 303 303 306 308 308 307 306 306 307 307 308 310 311 312 313 314 315 312 312 314 314 314 315 314 315 316 314
301 302 301 303 302 302 301 302 303 304 305 305 305 303 302 302 303 304 304 306 308 305 304 305 306 307 308 309 309 309 312 312 312 313 311 315 312 312 313 315 314 313 312 311
301 301 302 303 302 303 303 300 301 303 303 304 303 301 302 302 303 305 304 303 302 303 307 310 311 311 311 310 309 310 309 311 312 314 313 312 312 312 314 316 314 311 311 311
302 301 301 302 302 303 302 299 298 302 303 302 301 302 302 303 305 305 303 302 303 306 310 310 311 312 310 311 311 308 308 309 313 312 313 314 311 310 310 311 316 312 311 311
301 301 301 302 303 303 300 298 297 301 302 299 300 302 302 303 305 307 304 304 306 305 311 311 312 311 309 311 310 310 309 310 312 312 313 311 308 309 309 313 316 312 311 311
307 306 303 303 304 304 300 297 297 301 301 298 297 298 300 301 304 307 305 305 306 308 311 310 310 310 310 310 309 309 309 310 310 310 311 313 308 309 312 313 313 312 311 311
306 305 304 305 304 301 299 298 296 298 300 297 295 295 295 296 296 302 303 305 306 309 310 308 309 309 310 309 309 307 309 309 310 310 310 308 308 310 309 309 311 311 311 310
302 301 300 300 300 299 299 298 298 298 299 299 299 298 295 295 295 296 305 304 304 305 303 308 308 309 308 308 308 309 307 306 309 309 308 309 309 309 309 309 310 310 310 309
304 304 304 303 301 298 298 299 297 300 301 301 298 295 296 294 296 296 297 300 300 302 303 306 307 308 305 307 307 308 308 307 308 309 308 308 308 308 309 308 307 308 308 309
304 306 305 304 303 299 298 297 296 297 302 301 299 296 295 296 297 297 298 300 302 304 305 306 306 305 305 304 305 306 307 308 308 308 308 309 309 307 307 307 306 306 307 307
305 306 305 305 303 298 298 302 296 296 298 301 301 296 297 296 297 297 298 298 300 301 304 304 302 300 303 305 305 305 306 307 307 308 307 307 307 306 305 305 305 304 304 305
306 306 305 305 302 298 300 301 297 296 297 301 300 299 297 296 297 298 299 298 299 301 301 302 302 302 302 304 305 304 303 305 305 306 305 306 305 306 304 304 303 302 303 302
305 305 303 301 299 298 298 295 295 295 298 300 302 299 299 296 299 300 298 300 299 299 301 300 301 300 301 303 303 301 302 304 305 305 303 306 305 304 303 302 302 302 303 302
304 301 299 299 298 301 298 296 295 295 299 303 301 304 305 297 299 299 299 299 302 299 301 300 300 302 304 304 303 301 302 304 304 304 302 303 303 303 302 301 301 301 301 301
300 299 300 302 299 296 296 297 300 301 299 298 301 299 302 299 299 300 301 300 303 305 302 299 301 303 303 302 301 301 302 303 304 302 301 302 302 302 301 300 300 300 300 299
299 302 300 296 295 296 298 302 303 300 302 298 298 299 299 297 302 303 299 302 301 305 304 302 305 304 303 300 300 300 301 302 302 303 303 301 302 301 300 299 299 298 298 297
301 298 296 296 300 300 301 303 299 299 303 297 298 298 300 298 298 301 298 302 299 305 299 301 304 304 299 298 299 298 301 301 301 300 301 300 300 300 299 299 298 297 297 296
298 301 301 301 303 304 303 302 302 302 299 297 297 299 299 297 298 300 299 301 303 298 302 304 306 301 297 297 297 297 300 300 300 299 299 298 298 298 297 297 296 296 296 295
303 303 304 303 305 304 306 306 307 300 300 299 301 299 301 299 300 299 301 300 299 303 303 305 306 302 299 296 296 298 299 299 298 298 297 297 296 296 295 295 295 294 294 293
301 301 306 304 302 298 297 296 296 295 298 299 299 299 300 299 299 299 298 299 302 302 308 308 303 296 294 295 296 297 297 298 297 296 296 296 295 294 294 293 293 292 291 290
297 299 302 299 299 299 296 297 298 297 298 297 301 300 300 301 301 299 301 302 305 311 305 303 295 291 292 295 296 296 294 294 293 294 294 294 293 293 293 292 292 291 290 290
298 299 297 300 299 303 299 297 298 296 298 303 301 302 304 298 300 300 301 304 310 305 300 296 293 294 293 295 295 294 294 294 293 294 294 294 293 292 292 291 291 291 291 290